[[{"header":{"parameterUnit":"m.s-1","parameterCategory":1,"la1":30.6,"la2":29.2853,"lo1":-89.7004,"lo2":-87.6739,"dy":0.0162,"dx":0.0183,"nx":112,"ny":82,"refTime":"2024-03-16T18:00:00:Z","depth":0,"parameterNumber":2,"parameterNumberName":"U-component_of_WINDS"},"data":[0.0,0.0,0.0,0.0,0.0,0.0,0.0,0.0,0.0,0.0,0.0,0.0,0.0,0.0,0.0,0.0,0.0,0.0,0.0,0.0,0.0,0.0,0.0,0.0,0.0,0.0,0.0,0.0,0.0,0.0,0.0,0.0,0.0,0.0,0.0,0.0,0.0,0.0,0.0,0.0,0.0,0.0,0.0,0.0,0.0,0.0,0.0,0.0,0.0,0.0,0.0,0.0,0.0,0.0,0.0,0.0,0.0,0.0,0.0,0.0,0.0,0.0,0.0,0.0,0.0,0.0,0.0,0.0,0.0,0.0,0.0,0.0,0.0,0.0,0.0,0.0,0.0,0.0,0.0,0.0,0.0,0.0,0.0,0.0,0.0,0.0,0.0,0.0,0.0,0.0,0.0,3.0956,3.3462,3.5,3.4925,3.3955,3.2189,2.9478,0.0,0.0,0.0,0.0,0.0,0.0,0.0,0.0,0.0,0.0,0.0,0.0,0.0,0.0,0.0,0.0,0.0,0.0,0.0,0.0,0.0,0.0,0.0,0.0,0.0,0.0,0.0,0.0,0.0,0.0,0.0,0.0,0.0,0.0,0.0,0.0,0.0,0.0,0.0,0.0,0.0,0.0,0.0,0.0,0.0,0.0,0.0,0.0,0.0,0.0,0.0,0.0,0.0,0.0,0.0,0.0,0.0,0.0,0.0,0.0,0.0,0.0,0.0,0.0,0.0,0.0,0.0,0.0,0.0,0.0,0.0,0.0,0.0,0.0,0.0,0.0,0.0,0.0,0.0,0.0,0.0,0.0,0.0,0.0,0.0,0.0,0.0,0.0,0.0,0.0,0.0,0.0,0.0,0.0,0.0,0.0,0.0,0.0,0.0,0.0,0.0,0.0,0.0,0.0,3.0611,3.3866,3.5621,3.6356,3.584,3.4178,3.2426,3.0813,0.0,0.0,0.0,0.0,0.0,0.0,0.0,0.0,0.0,0.0,0.0,0.0,0.0,0.0,0.0,0.0,0.0,0.0,0.0,0.0,0.0,0.0,0.0,0.0,0.0,0.0,0.0,0.0,0.0,0.0,0.0,0.0,0.0,0.0,0.0,0.0,0.0,0.0,0.0,0.0,0.0,0.0,0.0,0.0,0.0,0.0,0.0,0.0,0.0,0.0,0.0,0.0,0.0,0.0,0.0,0.0,0.0,0.0,0.0,0.0,0.0,0.0,0.0,0.0,0.0,0.0,0.0,0.0,0.0,0.0,0.0,0.0,0.0,0.0,0.0,0.0,0.0,0.0,0.0,0.0,0.0,0.0,0.0,0.0,0.0,0.0,0.0,0.0,0.0,0.0,0.0,0.0,0.0,0.0,0.0,0.0,0.0,0.0,0.0,0.0,0.0,0.0,0.0,3.0444,3.2221,3.6154,3.6835,3.6843,3.6437,3.444,3.2571,3.0946,2.906,0.0,0.0,0.0,0.0,0.0,0.0,0.0,0.0,0.0,0.0,0.0,0.0,0.0,0.0,0.0,0.0,0.0,0.0,0.0,0.0,0.0,0.0,0.0,0.0,0.0,0.0,0.0,0.0,0.0,0.0,0.0,0.0,0.0,0.0,0.0,0.0,0.0,0.0,0.0,0.0,0.0,0.0,0.0,0.0,0.0,0.0,0.0,0.0,0.0,0.0,0.0,0.0,0.0,0.0,0.0,0.0,0.0,0.0,0.0,0.0,0.0,0.0,0.0,0.0,0.0,0.0,0.0,0.0,0.0,0.0,0.0,0.0,0.0,0.0,0.0,0.0,0.0,0.0,0.0,0.0,0.0,0.0,0.0,0.0,0.0,0.0,0.0,0.0,0.0,0.0,0.0,0.0,0.0,0.0,0.0,0.0,0.0,0.0,0.0,0.0,0.0,0.0,3.2354,3.3879,3.7531,3.7571,3.7118,3.6535,3.4538,3.2406,3.0331,2.8343,0.0,0.0,0.0,0.0,0.0,0.0,0.0,0.0,0.0,0.0,0.0,0.0,0.0,0.0,0.0,0.0,0.0,0.0,0.0,0.0,0.0,0.0,0.0,0.0,0.0,0.0,0.0,0.0,0.0,0.0,0.0,0.0,0.0,0.0,0.0,0.0,0.0,0.0,0.0,0.0,0.0,0.0,0.0,0.0,0.0,0.0,0.0,0.0,0.0,0.0,0.0,0.0,0.0,0.0,0.0,0.0,0.0,0.0,0.0,0.0,0.0,0.0,0.0,0.0,0.0,0.0,0.0,0.0,0.0,0.0,0.0,0.0,0.0,0.0,0.0,0.0,0.0,0.0,0.0,0.0,0.0,0.0,0.0,0.0,0.0,0.0,0.0,0.0,0.0,0.0,0.0,0.0,0.0,0.0,0.0,0.0,0.0,0.0,0.0,0.0,0.0,0.0,3.3264,3.5313,3.7505,3.7908,3.7454,3.6011,3.4044,3.1737,2.8915,2.7549,0.0,0.0,0.0,0.0,0.0,0.0,0.0,0.0,0.0,0.0,0.0,0.0,0.0,0.0,0.0,0.0,0.0,0.0,0.0,0.0,0.0,0.0,0.0,0.0,0.0,0.0,0.0,0.0,0.0,0.0,0.0,0.0,0.0,0.0,0.0,0.0,0.0,0.0,0.0,0.0,0.0,0.0,0.0,0.0,0.0,0.0,0.0,0.0,0.0,0.0,0.0,0.0,0.0,0.0,0.0,0.0,0.0,0.0,0.0,0.0,0.0,0.0,0.0,0.0,0.0,0.0,0.0,0.0,0.0,0.0,0.0,0.0,0.0,0.0,0.0,0.0,0.0,0.0,0.0,0.0,0.0,0.0,0.0,0.0,0.0,0.0,0.0,0.0,0.0,0.0,0.0,0.0,0.0,0.0,0.0,0.0,0.0,0.0,0.0,0.0,0.0,0.0,3.2952,3.4751,0.0,3.7969,3.731,3.5699,3.4382,3.2556,2.9999,0.0,0.0,0.0,0.0,0.0,0.0,0.0,0.0,0.0,0.0,0.0,0.0,0.0,0.0,0.0,0.0,0.0,0.0,0.0,0.0,0.0,0.0,0.0,0.0,0.0,0.0,0.0,0.0,0.0,0.0,0.0,0.0,0.0,0.0,0.0,0.0,0.0,0.0,0.0,0.0,0.0,0.0,0.0,0.0,0.0,0.0,0.0,0.0,0.0,0.0,0.0,0.0,0.0,0.0,0.0,0.0,0.0,0.0,0.0,0.0,0.0,0.0,0.0,0.0,0.0,0.0,0.0,0.0,0.0,0.0,0.0,0.0,0.0,0.0,0.0,0.0,0.0,0.0,0.0,0.0,0.0,0.0,0.0,0.0,0.0,0.0,0.0,0.0,0.0,0.0,0.0,0.0,0.0,0.0,0.0,0.0,0.0,0.0,0.0,0.0,0.0,0.0,3.1646,3.2894,3.4593,0.0,3.7667,3.688,3.5234,3.4243,3.2623,3.0197,0.0,0.0,0.0,0.0,0.0,0.0,0.0,0.0,0.0,0.0,0.0,0.0,0.0,0.0,0.0,0.0,0.0,0.0,0.0,0.0,0.0,0.0,0.0,0.0,0.0,0.0,0.0,0.0,0.0,0.0,0.0,0.0,0.0,0.0,0.0,0.0,0.0,0.0,0.0,0.0,0.0,0.0,0.0,0.0,0.0,0.0,0.0,0.0,0.0,0.0,0.0,0.0,0.0,0.0,0.0,0.0,0.0,0.0,0.0,0.0,0.0,0.0,0.0,0.0,0.0,0.0,0.0,0.0,0.0,0.0,0.0,0.0,0.0,0.0,0.0,0.0,0.0,0.0,0.0,0.0,0.0,0.0,0.0,0.0,0.0,0.0,0.0,0.0,0.0,0.0,0.0,0.0,0.0,0.0,0.0,0.0,0.0,0.0,0.0,0.0,0.0,0.0,3.1338,3.3284,3.5235,3.7196,3.6998,3.609,3.4628,3.3452,3.1677,0.0,0.0,0.0,0.0,0.0,0.0,0.0,0.0,0.0,0.0,0.0,0.0,0.0,0.0,0.0,0.0,0.0,0.0,0.0,0.0,0.0,0.0,0.0,0.0,0.0,0.0,0.0,0.0,0.0,0.0,0.0,0.0,0.0,0.0,0.0,0.0,0.0,0.0,0.0,0.0,0.0,0.0,0.0,0.0,0.0,0.0,0.0,0.0,0.0,0.0,0.0,0.0,0.0,0.0,0.0,0.0,0.0,0.0,0.0,0.0,0.0,0.0,0.0,0.0,0.0,0.0,0.0,0.0,0.0,0.0,0.0,0.0,0.0,0.0,0.0,0.0,0.0,0.0,0.0,0.0,0.0,0.0,0.0,0.0,0.0,0.0,0.0,0.0,0.0,0.0,0.0,0.0,0.0,0.0,0.0,0.0,0.0,0.0,0.0,0.0,0.0,0.0,0.0,0.0,3.2946,3.4719,3.687,3.677,3.5937,3.442,3.3877,3.2456,2.9669,0.0,0.0,0.0,0.0,0.0,0.0,0.0,0.0,0.0,0.0,0.0,0.0,0.0,0.0,0.0,0.0,0.0,0.0,0.0,0.0,0.0,0.0,0.0,0.0,0.0,0.0,0.0,0.0,0.0,0.0,0.0,0.0,0.0,0.0,0.0,0.0,0.0,0.0,0.0,0.0,0.0,0.0,0.0,0.0,0.0,0.0,0.0,0.0,0.0,0.0,0.0,0.0,0.0,0.0,0.0,0.0,0.0,0.0,0.0,0.0,0.0,0.0,0.0,0.0,0.0,0.0,0.0,0.0,0.0,0.0,0.0,0.0,0.0,0.0,0.0,0.0,0.0,0.0,0.0,0.0,0.0,0.0,0.0,0.0,0.0,0.0,0.0,0.0,0.0,0.0,0.0,0.0,0.0,0.0,0.0,0.0,0.0,0.0,0.0,0.0,0.0,0.0,3.1404,3.306,3.4757,3.6614,3.6631,3.5891,3.445,3.4164,3.2874,3.0065,0.0,0.0,0.0,0.0,0.0,0.0,0.0,0.0,0.0,0.0,0.0,0.0,0.0,0.0,0.0,0.0,0.0,0.0,0.0,0.0,0.0,0.0,0.0,0.0,0.0,0.0,0.0,0.0,0.0,0.0,0.0,0.0,0.0,0.0,0.0,0.0,0.0,0.0,0.0,0.0,0.0,0.0,0.0,0.0,0.0,0.0,0.0,0.0,0.0,0.0,0.0,0.0,0.0,0.0,0.0,0.0,0.0,0.0,0.0,0.0,0.0,0.0,0.0,0.0,0.0,0.0,0.0,0.0,0.0,0.0,0.0,0.0,0.0,0.0,0.0,0.0,0.0,0.0,0.0,0.0,0.0,0.0,0.0,0.0,0.0,0.0,0.0,0.0,0.0,0.0,0.0,0.0,0.0,0.0,0.0,0.0,0.0,0.0,0.0,0.0,0.0,0.0,3.1563,3.3525,3.5239,3.6384,3.6523,3.5953,3.4691,3.4328,3.3065,3.035,0.0,0.0,0.0,0.0,0.0,0.0,0.0,0.0,0.0,0.0,0.0,0.0,0.0,0.0,0.0,0.0,0.0,0.0,0.0,0.0,0.0,0.0,0.0,0.0,0.0,0.0,0.0,0.0,0.0,0.0,0.0,0.0,0.0,0.0,0.0,0.0,0.0,0.0,0.0,0.0,0.0,0.0,0.0,0.0,0.0,0.0,0.0,0.0,0.0,0.0,0.0,0.0,0.0,0.0,0.0,0.0,0.0,0.0,0.0,0.0,2.4511,0.0,0.0,0.0,0.0,0.0,0.0,0.0,0.0,0.0,0.0,0.0,0.0,0.0,0.0,0.0,0.0,0.0,0.0,0.0,0.0,0.0,0.0,0.0,0.0,0.0,0.0,0.0,0.0,0.0,0.0,0.0,0.0,0.0,0.0,0.0,0.0,0.0,0.0,0.0,0.0,0.0,3.1675,3.3861,3.5629,3.643,3.6523,3.6091,3.5125,3.4544,3.3447,3.1691,0.0,0.0,0.0,0.0,0.0,0.0,0.0,0.0,0.0,0.0,0.0,0.0,0.0,0.0,0.0,0.0,0.0,0.0,0.0,0.0,0.0,0.0,0.0,0.0,0.0,0.0,0.0,0.0,0.0,0.0,0.0,0.0,0.0,0.0,0.0,0.0,0.0,0.0,0.0,0.0,0.0,0.0,0.0,0.0,0.0,0.0,0.0,0.0,0.0,0.0,0.0,0.0,0.0,0.0,0.0,0.0,0.0,0.0,0.0,0.0,0.0,2.5973,0.0,0.0,0.0,0.0,0.0,0.0,0.0,0.0,0.0,0.0,0.0,0.0,0.0,0.0,0.0,0.0,0.0,0.0,0.0,0.0,0.0,0.0,0.0,0.0,0.0,0.0,0.0,0.0,0.0,0.0,0.0,0.0,0.0,0.0,0.0,0.0,0.0,0.0,0.0,0.0,3.2582,3.4358,3.5753,3.643,3.6523,3.6199,3.5416,3.4741,3.3642,3.2,3.0361,0.0,0.0,0.0,0.0,0.0,0.0,0.0,0.0,0.0,0.0,0.0,0.0,0.0,0.0,0.0,0.0,0.0,0.0,0.0,0.0,0.0,0.0,0.0,0.0,0.0,0.0,0.0,0.0,0.0,0.0,0.0,0.0,0.0,0.0,0.0,0.0,0.0,0.0,0.0,0.0,0.0,0.0,0.0,0.0,0.0,0.0,0.0,0.0,0.0,0.0,0.0,0.0,0.0,2.987,3.0119,3.0675,3.1321,3.0939,2.9697,2.913,2.83,2.7283,0.0,0.0,0.0,0.0,0.0,0.0,0.0,0.0,0.0,0.0,0.0,0.0,0.0,0.0,0.0,0.0,0.0,0.0,0.0,0.0,0.0,0.0,0.0,0.0,0.0,3.2355,3.2026,0.0,0.0,0.0,0.0,0.0,0.0,0.0,0.0,0.0,0.0,0.0,0.0,3.3547,3.4913,3.5906,3.6461,3.6523,3.6276,3.5722,3.5,3.3902,3.2276,3.1218,2.9875,0.0,0.0,0.0,0.0,0.0,0.0,0.0,0.0,0.0,0.0,0.0,0.0,0.0,0.0,0.0,0.0,0.0,0.0,0.0,0.0,0.0,0.0,0.0,0.0,0.0,0.0,0.0,0.0,0.0,0.0,0.0,0.0,2.4399,2.4828,0.0,0.0,0.0,0.0,0.0,0.0,0.0,0.0,0.0,0.0,0.0,0.0,0.0,0.0,3.1322,3.2285,3.2895,3.3102,3.3511,3.3773,3.3975,3.4096,3.4021,3.3813,3.3735,0.0,2.8475,2.8554,0.0,0.0,0.0,0.0,0.0,0.0,0.0,0.0,0.0,0.0,0.0,0.0,0.0,0.0,0.0,0.0,0.0,0.0,0.0,0.0,0.0,0.0,3.1134,3.2446,3.2387,3.2041,0.0,3.1322,3.021,2.9026,0.0,0.0,0.0,0.0,0.0,0.0,0.0,0.0,3.3685,3.5404,3.6538,3.6492,3.6523,3.6445,3.6399,3.5492,3.4577,3.3757,3.2881,3.1768,3.0413,2.9368,0.0,0.0,0.0,0.0,0.0,0.0,0.0,0.0,0.0,0.0,0.0,0.0,0.0,0.0,0.0,0.0,0.0,0.0,0.0,0.0,0.0,0.0,0.0,0.0,0.0,0.0,0.0,0.0,0.0,2.4177,2.4996,2.5881,2.648,2.668,0.0,0.0,0.0,0.0,0.0,0.0,0.0,0.0,0.0,3.2052,3.2697,3.3309,3.3917,3.4738,3.5357,3.5735,3.5927,3.6235,3.6608,3.6608,3.6608,3.6579,3.6259,3.4932,3.2893,3.1731,3.0382,2.8976,0.0,0.0,0.0,0.0,2.8726,2.9149,3.0081,3.0531,0.0,0.0,0.0,0.0,0.0,0.0,0.0,0.0,0.0,0.0,0.0,0.0,0.0,3.3593,3.3863,3.3878,3.3742,3.3275,3.2346,0.0,3.0228,3.0093,2.9411,0.0,0.0,0.0,0.0,0.0,3.4854,3.6349,3.7188,3.692,3.7336,3.7429,3.6934,3.6134,3.5291,3.4331,3.3924,3.3134,3.1819,3.1149,3.0164,0.0,0.0,0.0,0.0,0.0,0.0,0.0,0.0,0.0,0.0,0.0,0.0,0.0,0.0,0.0,0.0,0.0,0.0,0.0,0.0,0.0,0.0,0.0,0.0,0.0,0.0,0.0,0.0,2.5329,2.5838,2.6891,2.7997,2.8355,0.0,0.0,0.0,0.0,0.0,0.0,3.116,3.2439,3.3621,3.4597,3.521,3.5799,3.638,3.6954,3.7535,3.8028,3.8028,3.826,3.8696,3.8696,3.8696,3.8667,3.8202,3.7651,3.6856,3.4429,3.2542,3.1146,3.0839,3.0615,3.0539,3.1108,3.146,3.188,3.307,3.3555,3.3423,3.2339,0.0,3.1726,3.0063,0.0,0.0,0.0,0.0,3.1503,3.3035,3.3938,3.4585,3.5118,3.5609,3.5835,3.5194,3.5092,3.4436,0.0,3.1657,3.1409,3.041,0.0,0.0,0.0,0.0,3.4758,3.5826,3.7111,3.7754,3.7431,3.7971,3.8079,3.7429,3.6643,3.5752,3.4755,3.4713,3.4106,3.2676,3.2726,3.1924,0.0,0.0,0.0,0.0,0.0,0.0,0.0,0.0,0.0,0.0,0.0,0.0,0.0,0.0,0.0,0.0,0.0,0.0,0.0,0.0,0.0,0.0,0.0,0.0,0.0,0.0,0.0,0.0,0.0,0.0,2.8068,2.9166,0.0,0.0,0.0,0.0,3.1706,3.3454,3.4475,3.4372,3.5646,3.6598,3.7099,3.768,3.8347,3.9015,3.9596,3.9915,3.9944,3.9944,3.9973,4.0002,4.0002,4.0002,4.0002,3.9973,3.9625,3.8812,3.5636,3.4355,3.4238,3.2899,3.3358,3.4734,3.4395,3.4466,3.4713,3.4988,3.4667,3.4239,3.4805,3.4681,3.4153,3.3227,3.2609,0.0,0.0,3.3317,3.4211,3.5108,3.5966,3.6679,3.7139,3.7268,3.7169,3.6706,3.6751,3.5997,0.0,3.2437,3.2227,3.1538,0.0,3.2075,3.2844,3.4315,3.5554,3.6104,3.7341,3.8083,3.7899,3.7883,3.7913,3.7883,3.6843,3.5902,3.5218,3.5291,3.463,3.305,3.3894,3.3562,3.1788,3.0156,0.0,0.0,0.0,0.0,0.0,0.0,0.0,0.0,0.0,0.0,0.0,0.0,0.0,0.0,0.0,0.0,0.0,0.0,0.0,0.0,0.0,0.0,0.0,0.0,0.0,0.0,0.0,0.0,3.1545,3.258,0.0,0.0,3.4222,3.4522,3.4755,3.5805,3.676,3.7521,3.8383,3.915,3.9741,4.0757,4.1221,4.1076,4.2092,4.2502,4.2355,4.2088,4.1864,4.1691,4.1508,4.1395,4.1366,4.0931,4.0612,4.0292,3.8725,3.7758,3.7228,3.6416,3.6615,3.7345,3.7207,3.7097,3.7057,3.7218,3.7284,3.7253,3.691,3.6122,3.5245,3.5002,3.4744,3.4668,3.5318,3.5602,3.5989,3.7248,3.7361,3.743,3.8452,3.8015,3.7481,3.773,3.7511,3.694,3.5865,3.4825,3.388,3.3185,3.3352,3.3653,3.3873,3.5216,3.637,3.679,3.7997,3.872,3.8443,3.8923,3.9031,3.8456,3.755,3.6671,3.5898,3.5799,3.53,3.4257,3.4819,3.4284,3.2446,3.1784,3.0839,0.0,0.0,0.0,0.0,0.0,0.0,0.0,0.0,0.0,0.0,0.0,0.0,0.0,0.0,0.0,0.0,0.0,0.0,0.0,0.0,0.0,0.0,0.0,0.0,0.0,0.0,3.1445,3.4254,3.5371,3.6186,3.6798,3.7498,3.7912,3.7912,3.8725,3.9596,4.0437,4.1076,4.1599,4.2063,4.2905,4.3158,4.2731,4.3573,4.3871,4.361,4.3322,4.3055,4.279,4.2566,4.2363,4.2153,4.1774,4.1476,4.1265,4.094,4.0431,3.9855,3.9161,3.9083,3.9355,3.9409,3.9354,3.9286,3.9204,3.9196,3.9083,3.8314,3.7302,3.6446,3.6544,3.6511,3.6597,3.7358,3.7607,3.7893,3.8988,3.9073,3.9062,3.9876,3.9409,3.8769,3.884,3.8427,3.7943,3.7593,3.6589,3.5661,3.5177,3.5289,3.5455,3.5428,3.6462,3.7359,3.7563,3.8567,3.916,3.8963,3.9443,3.9461,3.8675,3.7863,3.705,3.6255,3.6014,3.5501,3.4627,3.5121,3.456,3.2792,3.2495,3.157,3.0056,0.0,0.0,0.0,0.0,0.0,0.0,0.0,0.0,0.0,0.0,0.0,0.0,0.0,0.0,0.0,0.0,0.0,0.0,0.0,0.0,0.0,0.0,0.0,3.1622,3.2213,3.3484,3.5949,3.7309,3.8071,3.816,3.9991,4.1192,4.1192,4.2324,4.3021,4.3071,4.366,4.4037,4.4037,4.4066,4.4066,4.4044,4.4044,4.3914,4.3674,4.3617,4.3486,4.3215,4.3215,4.2895,4.2345,4.2553,4.2286,4.1752,4.2038,4.2121,4.2017,4.0987,4.0676,4.0889,4.1013,4.1224,4.1381,4.0907,4.0329,3.9661,3.9016,3.8456,3.8001,3.8001,3.8001,3.8118,3.8646,3.935,4.002,4.0369,4.1085,4.1641,4.1501,4.1433,4.1111,4.0016,3.9607,3.9146,3.8047,3.7674,3.7507,3.7434,3.7434,3.7434,3.7464,3.8033,0.0,3.8422,3.902,3.9391,3.9391,3.9391,3.914,3.8482,3.7793,3.705,3.6285,3.587,3.5178,3.4085,3.4801,3.4515,3.3013,3.2245,3.1228,2.9923,0.0,0.0,0.0,0.0,0.0,0.0,0.0,0.0,0.0,0.0,0.0,0.0,0.0,0.0,0.0,0.0,0.0,0.0,0.0,0.0,0.0,0.0,3.2552,3.2494,3.4789,3.7149,3.9075,4.0498,4.1577,4.2278,4.2686,4.2975,4.3195,4.3343,4.3697,4.4327,4.4428,4.4636,4.5075,4.5514,4.5654,4.5442,4.5493,4.5407,4.5125,4.4367,4.3894,4.3618,4.332,4.3123,4.2952,4.3214,4.2948,4.2365,4.2647,4.2677,4.2476,4.2052,4.2077,4.2416,4.2426,4.2316,4.213,4.2092,4.1573,4.0999,4.1269,4.0946,4.0424,4.0424,4.0424,4.0503,4.0805,4.0919,4.1134,4.1814,4.1746,4.17,4.2581,4.2073,4.1452,4.161,4.1231,4.0745,4.0441,4.0332,3.9846,3.8362,3.8123,3.8302,3.8763,3.9002,0.0,3.914,3.9302,3.9391,3.9391,3.9391,3.9331,3.9122,3.7988,3.7156,0.0,3.5785,3.5099,3.5017,3.5447,3.5326,3.4497,3.3629,3.2881,0.0,0.0,0.0,0.0,0.0,0.0,0.0,0.0,0.0,0.0,0.0,0.0,0.0,0.0,0.0,0.0,0.0,0.0,0.0,0.0,0.0,0.0,3.3761,3.5506,3.5605,3.7441,3.9584,4.1697,4.274,4.3667,4.4712,4.4773,4.495,4.5396,4.5171,4.5246,4.5728,4.5671,4.5775,4.6096,4.6469,4.6599,4.6405,4.6457,4.6339,4.6077,4.5481,4.5094,4.4832,4.4465,4.4014,0.0,4.3692,4.3249,4.242,4.2876,4.3017,0.0,0.0,0.0,0.0,0.0,4.2932,4.2682,4.2839,4.2439,4.1882,4.2261,4.1961,4.1403,4.1403,4.1403,4.1482,4.1866,4.1918,4.1991,4.2698,4.2569,4.2402,4.313,4.2741,4.2222,4.2381,4.2092,4.1733,4.1463,0.0,0.0,4.0236,3.9846,3.9768,4.0187,4.0247,4.0247,4.0247,4.0247,4.0127,3.984,3.981,3.9571,3.902,3.8015,0.0,0.0,0.0,3.5474,3.5534,3.5503,0.0,0.0,0.0,3.4889,3.5047,0.0,0.0,0.0,3.2662,3.2792,0.0,0.0,0.0,0.0,0.0,0.0,0.0,0.0,0.0,0.0,0.0,0.0,0.0,0.0,0.0,0.0,3.6045,3.888,3.9799,4.0252,4.1405,4.3878,4.4349,4.492,4.5972,4.627,4.6683,4.7305,4.7124,4.6952,4.7,0.0,0.0,0.0,0.0,4.707,4.7132,4.7075,4.6897,4.668,4.6547,4.6421,4.6231,4.5909,4.515,4.4173,4.4136,4.3487,4.2417,4.3107,4.3332,4.3292,4.3036,4.3068,4.3309,4.3369,4.321,4.3021,4.321,0.0,0.0,4.25,4.2092,4.1613,4.1613,4.1613,4.1733,4.2331,4.25,4.2631,4.316,4.329,4.329,4.329,4.329,4.316,4.2631,4.25,4.2351,4.1733,4.1613,4.1792,4.2391,4.1942,4.1523,4.1613,4.1553,4.1523,4.1523,4.1463,4.1134,4.0457,0.0,0.0,3.8601,3.8052,3.7695,3.7524,3.6868,3.6306,3.5949,3.5614,3.5743,3.6393,3.6557,3.696,3.7621,3.7621,3.7653,3.7685,3.563,3.4768,0.0,0.0,0.0,0.0,0.0,0.0,0.0,0.0,0.0,0.0,0.0,0.0,0.0,0.0,0.0,3.6083,3.8679,4.0901,4.2287,4.3401,4.4389,4.5123,4.5952,4.6628,4.7082,4.6767,4.669,4.7048,4.6832,4.676,4.6976,4.6784,0.0,4.74,4.74,4.7557,4.7894,4.7387,4.7137,4.7059,0.0,0.0,4.5884,4.5613,4.5351,4.5127,4.5064,4.4706,4.4206,4.4291,4.4218,4.4093,4.4192,4.3843,4.334,4.3731,4.3496,4.3001,4.3021,4.3081,4.313,4.313,4.304,4.2921,4.2921,4.2921,0.0,4.31,4.313,4.316,4.326,4.329,4.329,4.329,4.329,4.326,4.316,4.313,4.31,4.2951,4.2921,4.298,4.31,4.2611,4.2361,4.2861,4.2521,4.2201,4.2201,4.1733,4.1134,4.0457,4.0397,4.0098,3.9272,3.8637,3.8265,3.823,3.8108,3.788,3.7484,3.8199,3.8277,3.7561,3.7899,3.816,3.8287,3.8287,3.8586,3.906,3.759,3.7179,0.0,0.0,0.0,0.0,0.0,0.0,0.0,0.0,0.0,0.0,0.0,3.0554,0.0,0.0,3.6205,3.8645,4.0618,4.2385,4.3887,4.514,4.5949,4.6039,4.66,4.7162,4.7621,4.7316,4.7287,4.7718,4.75,4.7402,4.7525,4.7402,4.7419,4.7578,4.7578,4.7645,4.7699,4.742,4.7253,4.7227,4.6767,4.6553,4.6553,4.6275,4.5983,4.5706,4.5652,4.5351,4.4881,4.4786,4.4806,4.4886,4.4753,4.4479,4.4204,4.4537,4.4422,4.4145,4.4145,4.4006,4.3818,4.3818,4.3579,4.329,4.329,4.329,4.329,4.329,4.329,4.329,4.329,4.329,4.329,4.329,4.329,4.329,4.329,4.329,4.329,4.329,4.329,4.329,4.329,4.304,4.294,4.325,4.304,4.2851,4.2851,4.2551,4.2102,4.1463,4.1104,4.0636,3.996,3.929,3.8702,3.8185,3.8682,3.8824,3.848,3.9125,3.9409,3.925,3.944,3.9724,4.004,4.004,4.023,4.0514,3.9866,3.9345,0.0,0.0,0.0,0.0,0.0,0.0,0.0,0.0,2.903,3.1002,3.1793,3.2866,3.5216,3.6947,3.8688,4.0772,4.228,4.3612,4.4851,4.6026,4.6757,4.6841,4.7019,4.7356,4.7978,4.7843,4.8001,4.8616,4.8394,4.8241,4.8369,4.8241,4.8082,4.7868,4.7816,4.7688,4.7453,4.7291,4.7348,4.7543,4.7243,4.7214,4.7403,4.698,4.6549,4.6084,4.6101,4.5816,4.531,4.5139,4.5294,4.5631,4.5172,4.5116,4.5315,4.525,4.5227,4.5242,4.5242,4.4904,4.4476,4.4476,4.4117,4.3698,4.3698,4.3698,4.3698,4.3698,4.3698,4.3698,4.3698,4.3698,4.3668,4.3549,4.3469,4.3439,4.3319,4.329,4.329,4.329,4.329,4.329,4.329,4.329,4.329,4.329,4.329,4.329,4.329,4.329,4.307,4.247,4.1931,4.1313,4.0636,3.9978,3.9265,3.8546,3.9242,3.9579,3.9303,3.9627,4.0102,4.0701,4.0701,4.0986,4.1605,4.1605,4.1605,4.1605,4.1605,4.0988,2.7582,2.6606,0.0,2.799,2.8354,2.9169,0.0,0.0,3.3192,3.6137,3.5873,3.6058,3.9161,3.9744,4.0431,4.2545,4.3729,4.4589,4.5108,4.6119,4.7006,4.7605,4.7658,4.7882,4.8443,4.8293,4.8491,4.9312,4.8863,4.8783,4.9314,4.8836,4.8536,4.8508,4.8246,4.8115,4.8009,4.7304,4.7447,4.8434,4.7129,4.6937,4.772,4.691,4.6507,4.6451,4.6572,4.6417,4.6049,4.5745,4.586,4.6258,4.5865,4.6003,4.6314,4.5303,4.4977,4.5013,4.5013,4.5078,4.5185,4.5185,4.5125,4.5065,4.5065,4.5065,4.5065,4.5065,4.5065,4.5065,4.5065,4.5065,4.4915,4.4326,4.4177,4.4027,4.3429,4.329,4.329,4.329,4.329,4.329,4.329,4.329,4.329,4.329,4.329,4.329,4.329,4.329,4.307,4.247,4.2321,4.2021,4.1343,4.0666,4.0364,4.0546,4.0449,4.0368,4.0327,4.0719,4.0951,4.1045,4.1045,4.1244,4.1605,4.1605,4.1605,4.1605,4.1605,4.151,2.89,0.0,0.0,0.0,3.0343,3.1363,3.3126,3.3699,3.4471,3.677,3.7309,3.8212,4.1085,4.167,4.2412,0.0,4.528,4.5809,4.6798,4.7018,4.7154,4.7257,4.7062,4.7438,4.8746,4.8618,4.8594,4.8949,4.8923,4.8869,4.8761,4.8842,4.8785,4.859,4.8135,4.8082,4.843,4.7561,4.7454,4.8106,4.731,4.7227,4.7803,4.7556,4.7472,4.7499,4.738,4.695,4.6314,4.6163,4.6043,4.5959,4.5627,4.5958,4.6572,4.6372,4.6324,4.6343,4.6343,4.6147,4.5882,4.5882,4.5633,4.5304,4.5304,4.5304,4.5304,4.5304,4.5304,4.5304,4.5304,4.5304,4.5214,4.4945,4.4885,4.4796,4.4506,4.4446,4.4356,4.3967,4.3878,4.3758,4.3369,4.329,4.329,4.329,4.329,4.329,4.329,4.329,4.307,4.247,4.241,4.2141,4.1463,4.1359,4.1382,4.1529,4.1832,4.2027,4.2027,4.2379,4.2616,4.2599,4.2599,4.2685,4.2806,4.2821,4.2804,4.2804,4.2838,4.2838,2.9825,0.0,0.0,3.0886,3.222,3.3506,3.4283,3.5008,3.6131,3.7975,3.8822,4.0004,4.259,4.3131,0.0,4.6275,4.645,4.6677,4.7695,4.7457,4.7027,4.6589,4.6376,4.6862,4.8378,4.8517,4.8654,4.8954,4.9146,4.9118,4.8844,4.9009,4.9091,4.9008,4.8491,4.8436,4.8927,4.8028,4.7757,4.8165,4.7558,4.7527,4.7916,4.7852,4.7872,4.7951,4.7741,4.7272,4.6652,4.6459,4.6253,4.5922,4.5416,4.5795,4.6689,4.711,4.7285,4.7309,4.7309,4.6958,4.657,4.657,4.6241,4.5843,4.5843,4.5843,4.5843,4.5843,4.5843,4.5843,4.5843,4.5843,4.5813,4.5633,4.5574,4.5514,4.5334,4.5304,4.5155,4.4676,4.4586,4.4416,4.3938,4.3848,4.3848,4.3848,4.3848,4.3728,4.3349,4.329,4.313,4.269,4.2661,4.2451,4.1953,4.2047,4.2115,4.2115,4.2633,4.2923,4.2923,4.3325,4.3602,4.372,4.3584,4.3602,4.3691,4.3706,4.3688,4.372,4.3706,4.3706,0.0,0.0,2.997,3.1875,3.3597,3.5297,3.7148,3.8111,3.9152,4.1315,4.1202,4.1506,4.4059,4.4128,4.4556,4.6887,4.7049,4.6894,4.6948,4.6921,4.6598,4.5742,4.5848,4.6302,0.0,4.7812,4.8762,4.9874,4.9729,4.9841,5.0404,4.9586,4.9373,4.994,4.9694,4.9501,4.9474,4.8682,4.854,4.9047,4.7865,4.7622,4.8165,4.7316,4.7082,4.7343,4.7343,4.7315,4.7232,4.6652,4.65,4.6559,4.5362,4.5624,4.6743,4.7063,4.7222,4.7309,4.7309,4.7309,4.7279,4.7279,4.7249,4.7249,4.7249,4.7249,4.7249,4.7249,4.7249,4.7249,4.7249,4.7249,4.71,4.642,4.6271,4.6091,4.5454,4.5304,4.5274,4.5274,4.5274,4.5244,4.5244,4.5244,4.5244,4.5244,4.5244,4.4766,4.3489,4.329,4.329,4.326,4.326,4.326,4.323,4.272,4.24,4.24,4.2474,4.2527,4.2527,4.2887,4.329,4.3703,4.3339,4.3308,4.3691,4.3691,4.3706,4.372,4.372,4.372,0.0,0.0,3.3109,3.4394,3.5808,3.7099,3.7987,3.9166,4.0204,4.055,4.0701,4.1152,4.2556,4.2568,4.3094,4.5319,4.6402,4.7028,4.7432,4.7808,4.7377,4.5553,4.5739,0.0,0.0,0.0,0.0,4.9051,4.9426,4.9611,4.9583,4.9668,4.9787,4.9991,4.9345,4.9372,5.0158,4.9059,4.8811,4.9412,4.92,4.9088,4.9084,4.8976,4.8589,4.7895,4.7895,4.757,4.7029,4.699,4.6761,4.6422,4.6181,4.6401,4.6889,4.7358,4.7773,4.8089,4.7977,4.7967,4.7878,4.7459,4.7608,4.7878,4.7429,4.7309,4.7309,4.7309,4.7309,4.7309,4.7309,4.7309,4.7249,4.704,4.6958,4.6899,4.6681,4.6621,4.6501,4.6031,4.5942,4.5822,4.5364,4.5304,4.5304,4.5304,4.5304,4.5125,4.4706,4.4646,4.4446,4.3997,4.3967,4.3788,4.3319,4.3405,4.3565,4.3834,4.4118,4.44,4.4669,4.4827,4.4953,4.5078,4.4953,4.4971,4.5096,4.5096,4.5096,4.5078,4.5078,4.5078,3.2306,3.3651,3.4879,3.6178,3.7464,3.8477,3.876,3.9789,4.0547,3.9995,4.023,4.0723,4.1359,4.1392,4.2025,4.4261,4.5453,4.6329,4.7106,4.7483,4.7082,4.5394,4.5604,0.0,0.0,0.0,0.0,4.8615,4.9158,4.9534,4.9708,4.9833,5.0005,5.0308,4.969,4.9725,5.0487,4.9798,4.9526,4.9721,4.9721,4.9582,4.9351,4.947,4.9141,4.8503,4.8177,4.7742,4.7228,4.7191,4.6912,4.6527,4.6484,4.6727,4.7193,4.774,4.8191,4.8535,4.8619,4.8648,4.8588,4.8169,4.8319,4.8528,4.7848,4.7668,4.7668,4.7668,4.7668,4.7698,4.7938,4.7848,4.7668,4.7668,4.7489,4.7309,4.7309,4.7309,4.7211,4.6826,4.6723,4.6552,4.6188,4.6056,4.6022,4.6022,4.6022,4.5843,4.5364,4.5304,4.5125,4.4706,4.4676,4.4476,4.4057,4.4448,4.4732,4.471,4.5234,4.5553,4.5573,4.5701,4.5805,4.5805,4.5805,4.5805,4.5805,4.6026,4.6044,4.5805,4.6329,4.6424,3.4051,3.4853,3.5349,3.7196,3.851,3.9372,3.9546,4.0056,4.0311,3.9773,3.9884,4.0171,0.0,0.0,4.1402,4.3597,4.4334,4.4984,4.6056,4.6196,4.5955,0.0,0.0,0.0,0.0,0.0,0.0,4.8642,0.0,4.9656,5.0824,5.0133,5.0077,5.0878,5.0618,5.0514,5.0515,5.0767,5.0575,5.0077,4.9473,4.92,4.9138,4.8896,4.8923,4.9029,4.8238,4.7885,4.783,4.7201,4.6928,4.6873,4.6271,4.6634,4.7578,4.8165,4.8434,4.8637,4.914,4.9344,4.9337,4.9307,4.9307,4.9217,4.8558,4.8349,4.8349,4.8349,4.8349,4.8498,4.9127,4.8798,4.8319,4.8349,4.7848,4.7369,4.7399,4.7399,4.7464,4.7658,4.752,4.7426,4.7619,4.746,4.7331,4.7331,4.7309,4.683,4.5574,4.5394,4.5394,4.5334,4.5334,4.5334,4.5304,4.5716,4.5667,4.5,4.5754,4.5934,4.5335,4.5685,4.59,4.59,4.59,4.59,4.59,4.655,4.6518,4.5931,4.7277,4.753,3.5552,3.6884,3.7939,3.8441,3.9095,3.9624,3.965,3.993,3.9919,3.9183,3.8822,3.8362,0.0,0.0,0.0,4.1779,4.3738,0.0,4.7415,4.8033,0.0,0.0,0.0,4.6975,4.625,4.7,0.0,0.0,4.9426,4.9891,5.0851,5.1117,5.1144,5.0905,5.0653,5.0486,5.0514,5.0339,5.0489,5.1044,5.0906,5.0464,4.9774,5.0179,4.9902,4.9083,4.9078,4.8942,4.8728,4.791,4.7452,4.7212,4.6613,4.6887,4.7679,4.7774,4.8608,4.9708,4.9798,4.9904,4.989,4.9456,4.9583,4.983,4.9247,4.9037,4.9037,4.9037,4.9037,4.9067,4.9269,4.8798,4.8438,4.8917,4.8528,4.8177,4.8678,4.8798,4.882,4.8865,4.8533,4.829,4.8355,4.789,4.7516,4.7516,4.7417,4.7189,4.683,4.68,4.6591,4.6091,4.6031,4.5822,4.5334,4.5428,4.5523,4.5647,4.6188,4.6559,4.6682,4.7114,4.7372,4.7372,4.7372,4.7372,4.7372,4.753,4.753,4.7372,4.7719,4.7814,3.7487,3.8718,3.9597,3.9597,3.9823,3.9798,3.8818,3.8966,3.8825,3.7147,3.7093,0.0,0.0,0.0,0.0,0.0,0.0,0.0,4.7873,4.8626,4.8821,0.0,4.8916,0.0,4.7727,4.8565,4.9431,0.0,5.0045,5.048,5.1609,5.1627,5.148,5.1282,5.0885,5.0739,5.0894,5.0454,5.0627,5.1404,5.1128,5.074,5.0216,5.0436,5.0133,4.9502,0.0,4.9254,4.9036,4.8272,4.7946,4.7972,4.7988,4.827,4.8738,4.9449,5.0233,5.0984,5.1297,5.147,5.1379,5.0421,5.0361,5.0518,4.9883,4.9673,4.9673,4.9673,4.9673,4.9763,5.0085,4.9643,4.9224,4.9613,4.9217,4.8828,4.9217,4.9277,4.9277,4.9277,4.9156,4.8996,4.8938,4.8615,4.8255,4.7932,4.7815,4.7682,4.7469,4.7352,4.716,4.6779,4.6719,4.6655,4.6497,4.6654,4.6792,4.6914,4.7353,4.7583,4.7514,4.7744,4.7909,4.7909,4.7909,4.7909,4.7909,4.8193,4.8193,4.7909,4.8509,4.8636,3.9471,4.0249,4.0575,4.0499,4.0477,3.9925,3.7764,3.7731,3.7438,3.4733,0.0,3.5674,3.4239,0.0,3.7974,3.9924,0.0,4.4564,4.8036,4.8688,4.926,5.047,5.081,5.0492,4.9379,5.03,5.0978,5.0949,5.0768,5.1282,5.2639,5.1963,5.1612,5.1793,5.1172,5.0971,5.1266,5.0683,5.0683,5.1266,5.0767,5.0515,5.0487,5.0235,5.0123,5.0096,0.0,0.0,4.9279,4.8599,4.8491,4.8789,4.9431,4.9772,5.0088,5.1505,5.2038,5.2138,5.2807,5.3101,5.3019,5.1858,5.1468,5.1325,5.0667,5.0488,5.0458,5.0345,5.0315,5.0488,5.1056,5.0697,5.0226,5.0405,4.9942,4.9456,4.9636,4.9606,4.9576,4.9666,4.9697,4.9666,4.9517,4.9404,4.9164,4.8617,4.8505,4.8339,4.7912,4.755,4.7352,4.7396,4.7396,4.7559,4.8007,4.8364,4.8461,4.8278,4.8683,4.8685,4.8117,4.8123,4.8162,4.8162,4.8162,4.8162,4.8162,4.8731,4.8731,4.8193,4.9438,4.9742,4.07,4.1102,4.1051,4.06,4.0461,3.9906,3.8041,3.7362,0.0,0.0,0.0,3.4292,3.3574,3.5484,0.0,4.0514,0.0,0.0,0.0,0.0,4.988,0.0,0.0,0.0,0.0,0.0,0.0,0.0,0.0,5.2363,5.2694,5.2745,5.244,5.1736,5.092,5.0519,5.0569,5.0027,5.0066,5.0656,5.0767,5.0711,5.0515,5.0656,5.0739,5.0739,0.0,0.0,5.0491,4.9417,4.8979,4.9007,4.8654,4.9083,4.9904,4.9983,5.0995,5.2317,5.2234,5.263,5.3169,5.2929,5.2869,5.2749,5.2067,5.1858,5.1738,5.1176,5.1026,5.1056,5.1176,5.0697,5.0488,5.1588,5.0936,5.0338,5.1468,5.1259,5.105,5.1588,5.1019,5.0427,5.0381,4.9907,4.9583,4.9692,4.9529,4.9357,4.9259,4.8273,4.7624,4.7837,4.788,4.7986,4.8239,4.8322,4.8407,4.8533,4.8982,4.9162,4.9037,4.9387,4.9564,4.9564,4.9564,4.9564,4.9564,4.9659,4.9659,4.9564,5.0405,5.0742,4.1611,4.22,4.2361,4.1207,4.0868,4.0007,3.7005,0.0,0.0,0.0,0.0,3.3539,3.2581,0.0,0.0,0.0,0.0,0.0,0.0,0.0,0.0,0.0,0.0,0.0,0.0,0.0,0.0,0.0,0.0,0.0,5.2672,5.2578,5.2185,5.125,5.0537,5.0312,5.0671,5.0089,5.0263,5.1183,5.1183,5.11,5.0961,5.0767,5.0795,5.0878,5.0627,0.0,5.0656,5.0075,4.991,5.0022,4.9858,5.0267,5.0941,5.1206,5.2023,5.2983,5.3132,5.3667,5.4246,5.4246,5.3767,5.3139,5.2839,5.2725,5.2636,5.2336,5.2007,5.1738,5.1738,5.1206,5.0877,5.1528,5.1293,5.1093,5.1582,5.1533,5.1483,5.1642,5.1263,5.0913,5.0913,5.0642,5.0358,5.0118,4.999,4.9847,4.9621,4.9018,4.8736,4.8997,4.8499,4.848,4.9253,4.8799,4.8687,4.9239,4.9481,4.9602,4.9602,4.9812,4.9912,4.9912,4.9912,4.9912,4.9912,5.0311,5.0469,5.05,5.1195,5.1512,4.2444,4.311,4.3371,4.201,4.1409,4.0158,3.6236,3.5843,0.0,0.0,3.233,3.3227,3.2241,0.0,0.0,0.0,0.0,0.0,0.0,0.0,0.0,0.0,0.0,0.0,0.0,0.0,0.0,0.0,0.0,0.0,5.2465,5.2245,5.176,5.0986,5.027,5.0141,5.0674,5.0174,5.0404,5.1321,5.1321,5.1294,5.1266,5.0795,5.0739,5.0989,5.0655,0.0,0.0,5.0431,5.0515,5.0739,5.1017,5.1403,5.1896,5.2701,5.3285,5.3759,5.4304,5.4794,5.5179,5.5179,5.4486,5.3618,5.3468,5.3408,5.3384,5.3258,5.2815,5.2396,5.2396,5.2037,5.1648,5.1648,5.188,5.2118,5.1881,5.1903,5.1937,5.1922,5.1689,5.1533,5.158,5.1436,5.1143,5.0718,5.0612,5.0554,5.0479,5.0493,5.0658,5.1122,4.967,4.9135,5.0341,4.9615,4.945,5.0314,5.0354,5.0354,5.0354,5.0354,5.0354,5.0354,5.0354,5.0354,5.0354,5.0911,5.1216,5.1216,5.1922,5.2238,4.3225,4.3385,4.3042,4.2889,4.1982,4.0295,3.7175,0.0,0.0,3.2214,3.2535,3.3372,3.3473,0.0,0.0,0.0,0.0,4.1945,0.0,0.0,0.0,0.0,0.0,0.0,0.0,0.0,0.0,0.0,0.0,0.0,5.2121,5.2121,5.1913,5.1533,5.0477,4.9935,4.9985,4.9747,4.967,4.9812,5.0572,5.0962,5.0934,5.0878,5.1045,5.1294,0.0,0.0,0.0,5.0263,5.0066,5.0123,5.0459,5.11,5.1896,5.2701,5.3521,5.4304,5.4926,5.5154,5.5179,5.5179,5.5119,5.488,5.4281,5.4132,5.3982,5.3378,5.3169,5.3109,5.3109,5.3079,5.3019,5.3019,5.3498,5.3947,5.3922,5.3468,5.3296,5.4121,5.3302,5.256,5.2789,5.2134,5.1711,5.2056,5.1949,5.2208,5.3177,5.3338,5.3736,5.4886,5.1851,5.0066,5.0865,5.0824,5.1068,5.1766,5.1828,5.1828,5.1828,5.1828,5.1828,5.1828,5.1828,5.1828,5.1828,5.1891,5.1922,5.1922,5.2681,5.2976,4.3363,4.417,4.4327,4.3468,4.205,4.0211,3.7519,0.0,3.5066,3.2466,3.2863,3.3578,3.333,3.4312,0.0,0.0,3.7187,0.0,0.0,0.0,0.0,0.0,0.0,0.0,0.0,0.0,0.0,0.0,0.0,0.0,5.1783,5.1783,5.1657,5.1408,5.0771,5.0578,5.0793,5.0502,5.0572,5.0934,5.1293,5.1431,5.1431,5.1072,5.1072,5.1377,0.0,0.0,0.0,5.0572,5.0544,5.0516,5.0263,5.0628,5.1348,5.203,5.2596,5.3182,5.4101,5.4671,5.4981,5.4981,5.5053,5.5149,5.488,5.479,5.473,5.4461,5.4102,5.3803,5.3803,5.3503,5.3198,5.3198,5.3536,5.3789,5.3642,5.3506,5.3483,5.3704,5.3344,5.3008,5.3104,5.2815,5.2635,5.2825,5.2446,5.2296,5.2749,5.2439,5.2679,5.3883,5.2557,5.1933,5.2782,5.1881,5.1445,5.1976,5.2017,5.2017,5.2017,5.2017,5.2017,5.2017,5.2017,5.2017,5.2017,5.246,5.2681,5.2681,5.3376,5.3913,4.3065,4.415,4.4652,4.4037,4.2261,4.0115,0.0,0.0,3.5026,3.3,3.3413,3.4039,3.3557,3.4403,3.5102,3.4893,3.5933,3.7359,3.9078,0.0,0.0,0.0,0.0,0.0,0.0,0.0,0.0,0.0,0.0,0.0,0.0,5.1752,5.1662,5.154,5.1262,5.1263,5.1622,5.1422,5.146,5.182,5.1985,5.1955,5.1787,5.1266,5.1183,5.1377,0.0,0.0,0.0,5.06,5.0628,5.06,5.0263,5.046,5.0989,5.1759,5.222,5.2623,5.3789,5.444,5.4828,5.4905,5.5057,5.5179,5.5179,5.5179,5.5179,5.5179,5.485,5.4491,5.4491,5.4132,5.3797,5.3797,5.395,5.4023,5.3822,5.392,5.4048,5.392,5.3745,5.362,5.3693,5.3494,5.332,5.3393,5.2954,5.2654,5.2797,5.2399,5.2604,5.3905,5.3721,5.3823,5.4464,5.296,5.227,5.2892,5.2744,5.2618,5.2618,5.2618,5.2618,5.2618,5.2618,5.2618,5.2618,5.3155,5.3502,5.3702,5.4198,5.4767,4.2334,4.2919,4.3257,4.4742,4.2604,4.0017,0.0,0.0,3.5068,3.3928,3.4261,3.4761,3.4601,3.5401,3.5998,3.573,3.6879,3.8271,3.9685,0.0,0.0,0.0,0.0,0.0,0.0,0.0,0.0,0.0,0.0,0.0,0.0,5.209,5.209,5.209,5.1903,5.1917,5.2191,5.2276,5.2139,5.1818,5.2408,5.2377,5.1787,5.1514,5.1404,0.0,0.0,0.0,0.0,5.015,5.001,5.0038,5.0347,5.0655,5.1045,5.2166,5.2783,5.3263,5.4388,5.4803,5.4854,5.5103,5.5179,5.5179,5.5179,5.5179,5.5179,5.5179,5.5179,5.5179,5.5179,5.5179,5.5179,5.5179,5.5179,5.5179,5.5179,5.5179,5.528,5.5501,5.5038,5.466,5.4843,5.4159,5.3664,5.3873,5.3706,5.376,5.4223,5.427,5.4821,5.6326,5.5888,5.5451,5.5473,5.4202,5.3878,5.4985,5.4451,5.4071,5.4071,5.4071,5.4071,5.4071,5.4071,5.4071,5.4071,5.4071,5.4429,5.5092,5.5092,5.5471,4.0937,4.1967,4.2484,4.2448,4.079,3.9038,3.8422,0.0,3.5145,3.4222,3.4455,3.4659,3.4215,3.4941,3.5762,3.6246,3.738,3.8401,0.0,0.0,0.0,0.0,0.0,0.0,0.0,0.0,0.0,0.0,0.0,0.0,0.0,5.2337,5.2553,5.2769,5.2541,5.2574,5.2875,5.2273,5.2011,5.2127,5.1933,5.1819,5.1787,5.1293,0.0,0.0,0.0,0.0,0.0,5.0375,5.0206,5.0038,5.0572,5.0962,5.132,5.273,5.3155,5.3237,5.4152,5.4462,5.4487,5.4564,5.4845,5.5179,5.5179,5.5179,5.5179,5.5179,5.5179,5.5179,5.5179,5.5179,5.5179,5.5179,5.5179,5.5179,5.5179,5.5179,5.5204,5.5305,5.518,5.503,5.5075,5.4875,5.47,5.4775,5.4335,5.4065,5.4206,5.4152,5.4575,5.5811,5.5681,5.5806,5.6603,5.583,5.5487,5.5841,5.5651,5.5525,5.5525,5.5525,5.5525,5.5525,5.5525,5.5525,5.5525,5.5525,5.562,5.5873,5.6324,5.6387,0.0,4.0761,4.1343,4.1246,3.9852,0.0,0.0,0.0,3.4982,3.4341,3.4388,3.4454,3.4091,3.4713,3.546,3.5967,0.0,0.0,0.0,0.0,0.0,0.0,0.0,0.0,0.0,0.0,0.0,0.0,0.0,0.0,0.0,5.2677,5.2953,5.3258,5.2998,5.3019,5.3348,5.2773,5.2483,5.2432,5.2073,5.1875,5.1787,5.1293,0.0,0.0,0.0,0.0,0.0,5.0347,5.0206,5.0038,5.0544,5.0767,5.1017,5.2568,5.2917,5.2812,5.4075,5.441,5.4329,5.459,5.487,5.5179,5.5179,5.5179,5.5179,5.5179,5.5179,5.5179,5.5179,5.5179,5.5179,5.5179,5.5179,5.5179,5.5179,5.5179,5.5179,5.5179,5.5179,5.5179,5.5179,5.5179,5.5179,5.5179,5.485,5.4491,5.4227,5.4127,5.4467,5.5582,5.562,5.6115,5.7502,5.6726,5.6315,5.6568,5.6315,5.6211,5.6211,5.6211,5.6211,5.6211,5.6211,5.6211,5.6211,5.6441,5.6568,5.6599,5.7295,5.739,0.0,3.925,3.9885,4.0701,3.9498,3.8069,0.0,0.0,0.0,3.4349,3.4199,3.4153,3.4171,3.4675,3.5124,0.0,0.0,0.0,0.0,0.0,0.0,0.0,0.0,0.0,0.0,0.0,0.0,0.0,0.0,0.0,0.0,5.3102,5.3224,5.3531,5.3288,5.3288,5.3622,5.359,5.3279,5.2757,5.2715,5.2349,5.1759,5.1514,0.0,0.0,0.0,0.0,0.0,5.015,5.001,5.0038,5.0431,5.0403,5.0376,5.2085,5.2383,5.2221,5.4104,5.4517,5.4304,5.49,5.5103,5.5128,5.5128,5.5154,5.5179,5.5179,5.5179,5.5179,5.5179,5.5179,5.5179,5.5179,5.5179,5.5179,5.5179,5.5179,5.5179,5.5179,5.5179,5.5179,5.5179,5.5179,5.5179,5.5179,5.5179,5.4995,5.4421,5.4356,5.4745,5.5729,5.5871,5.6544,5.8165,5.7096,5.6599,5.724,5.6694,5.6369,5.6369,5.6369,5.6369,5.6369,5.6369,5.6369,5.6369,5.6979,5.7272,5.7272,5.7981,5.8297,3.6137,0.0,3.7593,3.8086,3.7737,3.7254,0.0,0.0,0.0,0.0,0.0,3.3826,3.4135,3.4561,0.0,0.0,0.0,0.0,0.0,0.0,0.0,0.0,0.0,0.0,0.0,0.0,0.0,0.0,0.0,0.0,0.0,5.2861,5.2861,5.3224,5.3379,5.3622,5.3984,5.3501,5.322,5.3101,5.2602,5.21,5.1486,5.1404,0.0,0.0,0.0,0.0,5.0459,5.015,5.001,5.0095,5.11,5.1568,5.184,5.3129,5.3498,5.3471,5.3945,5.3789,5.3419,5.3785,5.4175,5.4509,5.4509,5.482,5.5179,5.5179,5.5179,5.5179,5.5179,5.5179,5.5179,5.5179,5.5179,5.5179,5.5179,5.5179,5.5179,5.5179,5.5179,5.5179,5.5179,5.5179,5.5179,5.5179,5.5179,5.527,5.5489,5.5877,5.6364,5.701,5.7433,5.7854,5.8274,5.7981,5.7886,5.8045,5.7886,5.7823,5.7823,5.7823,5.7823,5.7823,5.7823,5.7823,5.7823,5.795,5.8045,5.8045,5.8234,5.8297,3.5211,3.591,3.6508,3.6816,3.6859,3.6749,3.6276,0.0,0.0,0.0,0.0,0.0,3.4078,0.0,0.0,0.0,0.0,0.0,0.0,0.0,0.0,0.0,0.0,0.0,0.0,0.0,0.0,0.0,0.0,0.0,0.0,5.3075,5.3014,5.2861,5.3197,5.3305,5.3215,5.3208,5.298,5.257,5.21,5.1711,5.1404,5.1404,5.1294,0.0,0.0,0.0,5.0655,5.0347,5.015,5.0066,5.0906,5.1211,5.1348,5.2489,5.2757,5.2596,5.3129,5.3287,5.334,5.3733,5.4071,5.4329,5.4487,5.4773,5.5032,5.5032,5.5133,5.5179,5.5179,5.5179,5.5179,5.5179,5.5179,5.5179,5.5179,5.5179,5.5179,5.5179,5.5179,5.5179,5.5179,5.5179,5.5255,5.5476,5.5526,5.57,5.6189,5.653,5.6892,5.7448,5.7754,5.8011,5.8274,5.8297,5.8297,5.8297,5.8297,5.8297,5.8297,5.8297,5.8297,5.8297,5.8297,5.8297,5.8297,5.8297,5.8297,5.8297,5.8297,5.8297,3.5038,3.5723,3.6165,3.625,3.6436,3.6372,0.0,0.0,0.0,0.0,0.0,0.0,0.0,0.0,0.0,0.0,0.0,0.0,0.0,0.0,0.0,0.0,0.0,0.0,0.0,0.0,0.0,0.0,0.0,0.0,0.0,5.3349,5.3227,5.2527,5.2953,5.2843,5.214,5.2827,5.2791,5.2012,5.1766,5.1599,5.1405,5.1433,5.146,0.0,0.0,0.0,5.0823,5.0599,5.0291,5.0038,5.0459,5.0487,5.0404,5.1431,5.1595,5.1403,5.2301,5.2996,5.3576,5.3993,5.4175,5.4304,5.4619,5.4777,5.4803,5.4803,5.5006,5.5179,5.5179,5.5179,5.5179,5.5179,5.5179,5.5179,5.5179,5.5179,5.5179,5.5179,5.5179,5.5179,5.5179,5.5255,5.5426,5.5844,5.6058,5.6335,5.6748,5.6913,5.7167,5.7722,5.7676,5.7864,5.8432,5.8361,5.8297,5.8297,5.8297,5.8297,5.8297,5.8297,5.8297,5.8297,5.8297,5.8297,5.8297,5.8297,5.8297,5.8297,5.8297,5.8297,3.571,3.6221,3.625,3.5767,3.5921,0.0,0.0,0.0,0.0,0.0,0.0,0.0,0.0,0.0,0.0,0.0,0.0,0.0,0.0,0.0,0.0,0.0,0.0,0.0,0.0,0.0,0.0,0.0,0.0,0.0,0.0,0.0,5.2861,5.2214,5.3044,5.2959,5.179,5.267,5.3055,5.299,5.2936,5.2375,5.1396,5.1623,5.1595,0.0,0.0,5.0627,5.0543,5.0543,5.0291,5.0066,5.0878,5.1321,5.1541,5.1732,5.2356,5.3052,5.2703,5.2998,5.3474,5.3343,5.3576,5.3993,5.4278,5.4564,5.4803,5.4803,5.5006,5.5179,5.5179,5.5179,5.5179,5.5179,5.5179,5.5179,5.5179,5.5179,5.5179,5.5179,5.5179,5.5179,5.5179,5.5526,5.5819,5.5893,5.6831,5.7475,5.7392,5.7875,5.841,5.8963,5.8529,5.8426,5.9096,5.8645,5.8297,5.8297,5.8297,5.8297,5.8297,5.8297,5.8297,5.8297,5.8297,5.8297,5.8297,5.8297,5.8297,5.8297,5.8297,5.8297,3.4813,3.5507,3.5926,3.555,0.0,0.0,0.0,0.0,0.0,0.0,0.0,0.0,0.0,0.0,0.0,0.0,0.0,0.0,0.0,0.0,0.0,0.0,0.0,0.0,0.0,0.0,0.0,0.0,0.0,0.0,0.0,0.0,5.2861,5.2399,5.2688,5.2875,5.2988,5.2928,5.2811,5.2714,5.2516,5.2065,5.1391,5.1533,5.1426,5.1096,0.0,5.0822,5.0961,5.0795,5.0543,5.0347,5.1045,5.1321,5.1321,5.1321,5.1458,5.1649,5.2059,5.2356,5.2678,5.3343,5.371,5.3997,5.4436,5.4671,5.4828,5.4981,5.5078,5.5179,5.5179,5.5179,5.5179,5.5179,5.5179,5.5179,5.5179,5.5179,5.5179,5.5179,5.5179,5.5179,5.5179,5.5706,5.6048,5.5929,5.7247,5.8251,5.8048,5.8859,5.9435,5.9325,5.9033,5.8835,5.8748,5.8487,5.8297,5.8297,5.8297,5.8297,5.8297,5.8297,5.8297,5.8297,5.8297,5.8297,5.8297,5.8297,5.8297,5.8297,5.8297,5.8297,3.4512,3.5236,3.5868,0.0,0.0,0.0,0.0,0.0,0.0,0.0,0.0,0.0,0.0,0.0,0.0,0.0,0.0,0.0,0.0,0.0,0.0,0.0,0.0,0.0,0.0,0.0,0.0,0.0,0.0,0.0,0.0,0.0,5.3044,5.2738,5.2584,5.3016,5.3974,5.3274,5.2844,5.2714,5.2321,5.1982,5.1697,5.1474,5.1287,5.1099,5.0822,5.0906,5.1266,5.0961,5.0683,5.0515,5.0961,5.0934,5.0739,5.1017,5.0823,5.0572,5.165,5.2086,5.2383,5.3524,5.3919,5.3997,5.4517,5.4751,5.4828,5.4951,5.5197,5.5414,5.5239,5.5179,5.5179,5.5179,5.5179,5.5179,5.5179,5.5179,5.5179,5.5179,5.5354,5.5418,5.5418,5.6187,5.6733,5.6589,5.8128,5.9228,5.8958,5.9868,6.036,5.9854,5.9507,5.9033,5.8361,5.8297,5.8297,5.8297,5.8297,5.8297,5.8297,5.8297,5.8297,5.8297,5.8297,5.8297,5.8297,5.8297,5.8297,5.8297,5.8297,5.8297,3.6207,3.6586,3.6514,3.7263,0.0,0.0,0.0,0.0,0.0,0.0,0.0,0.0,0.0,0.0,0.0,0.0,0.0,0.0,0.0,0.0,0.0,0.0,0.0,0.0,0.0,0.0,0.0,0.0,0.0,0.0,0.0,0.0,0.0,5.3044,5.3352,5.3536,5.3639,5.3556,5.3676,5.3938,5.3381,5.2932,5.259,5.178,5.1534,5.1679,5.0565,5.0404,5.0906,5.0627,5.0543,5.0515,5.0515,5.0347,5.0207,5.1321,5.1705,5.1759,5.2411,5.2974,5.3422,5.3789,5.3919,5.3942,5.4252,5.4539,5.4751,5.4462,5.5214,5.5983,5.5359,5.5179,5.5179,5.5179,5.5179,5.5179,5.5179,5.5179,5.5179,5.5179,5.5713,5.6132,5.6132,5.7461,5.8514,5.8502,6.0047,6.0958,6.0281,6.0842,6.1308,6.1245,6.0076,5.9033,5.8361,5.8297,5.8297,5.8297,5.8297,5.8297,5.8297,5.8297,5.8297,5.8297,5.8297,5.8297,5.8297,5.8297,5.8297,5.8297,5.8297,5.8297,3.52,3.5796,3.6068,3.6505,0.0,0.0,0.0,0.0,0.0,0.0,0.0,0.0,0.0,0.0,0.0,0.0,0.0,0.0,0.0,0.0,0.0,0.0,0.0,0.0,0.0,0.0,0.0,0.0,0.0,0.0,0.0,0.0,0.0,5.341,5.3332,5.3672,5.4458,5.4331,5.4476,5.4956,5.4166,5.3599,5.3311,5.2531,5.2063,5.1734,5.0734,5.0543,5.0878,5.0599,5.0515,5.0543,5.0683,5.0656,5.0628,5.1072,5.1017,5.0823,5.1787,5.2275,5.2598,5.3576,5.3919,5.3971,5.4226,5.4381,5.4513,5.4594,5.4951,5.5253,5.5015,5.5406,5.5713,5.5299,5.5179,5.5179,5.5179,5.5179,5.5179,5.5179,5.5414,5.5665,5.5963,5.7274,5.8232,5.8158,6.0061,6.1258,6.0592,6.1397,6.1687,6.0803,5.9475,5.8582,5.8329,5.8297,5.8297,5.8297,5.8297,5.8297,5.8297,5.8297,5.8297,5.8297,5.8297,5.8297,5.8297,5.8297,5.8297,5.8297,5.8297,5.8297,3.4607,3.5288,3.5862,0.0,0.0,0.0,0.0,0.0,0.0,0.0,0.0,0.0,0.0,0.0,0.0,0.0,0.0,0.0,0.0,0.0,0.0,0.0,0.0,0.0,0.0,0.0,0.0,0.0,0.0,0.0,0.0,0.0,0.0,0.0,5.3442,5.3746,5.4718,5.4533,5.4707,5.5215,5.4475,5.3965,5.3656,5.293,5.2179,5.1458,5.0819,5.0655,5.0878,5.0515,5.0459,5.0627,5.0628,5.0739,5.0878,5.0683,5.0488,5.0404,5.1238,5.1759,5.2221,5.3182,5.3748,5.4136,5.429,5.4645,5.4949,5.5112,5.5467,5.5768,5.5482,5.5632,5.5833,5.5593,5.5329,5.5239,5.5448,5.5329,5.5239,5.5448,5.5658,5.5965,5.6476,5.7856,5.8848,5.8768,6.0534,6.1678,6.1233,6.1883,6.1947,6.0771,5.9847,5.9183,5.8961,5.874,5.8708,5.893,5.874,5.8519,5.8297,5.8297,5.8297,5.8297,5.8297,5.8297,5.8297,5.8297,5.8297,5.8297,5.8297,5.8424,3.4871,3.5447,3.6155,0.0,0.0,0.0,0.0,0.0,0.0,0.0,0.0,0.0,0.0,0.0,0.0,0.0,0.0,0.0,0.0,0.0,0.0,0.0,0.0,0.0,0.0,0.0,0.0,0.0,0.0,0.0,0.0,0.0,0.0,0.0,5.3738,5.3757,5.4078,5.4078,5.4251,5.4597,5.4251,5.3944,5.3698,5.2715,5.1794,5.0906,5.0627,5.0655,5.085,5.0263,5.0348,5.0823,5.0235,5.0376,5.0823,5.0235,5.0376,5.0906,5.0906,5.1649,5.2596,5.2625,5.3485,5.449,5.4517,5.5355,5.6225,5.5987,5.6965,5.7882,5.6931,5.596,5.5414,5.6042,5.5713,5.5414,5.6072,5.5683,5.5388,5.6072,5.6701,5.7304,5.7992,5.9605,6.0794,6.082,6.1714,6.2421,6.2421,6.239,6.2137,6.1466,6.1403,6.1087,6.036,5.9696,5.9602,6.0265,5.9665,5.9001,5.8329,5.8297,5.8297,5.8297,5.8297,5.8297,5.8329,5.8329,5.8329,5.8329,5.8329,5.8677,3.5368,3.5943,0.0,0.0,0.0,0.0,0.0,0.0,0.0,0.0,0.0,0.0,0.0,0.0,0.0,0.0,0.0,0.0,0.0,0.0,0.0,0.0,0.0,0.0,0.0,0.0,0.0,0.0,0.0,0.0,0.0,0.0,0.0,0.0,5.2594,5.3052,5.3816,5.34,5.3458,5.3961,5.3631,5.3777,5.4288,5.3136,5.2324,5.185,5.1099,5.0739,5.0599,5.0151,5.0123,5.0263,5.0066,5.0123,5.0263,5.0066,5.0376,5.1017,5.185,5.2681,5.3449,5.4286,5.4846,5.5182,5.5398,5.5703,5.6065,5.6385,5.6769,5.71,5.6997,5.6773,5.6585,5.6791,5.6675,5.6466,5.6252,5.6372,5.6466,5.6252,5.7011,5.791,5.8451,5.9695,6.0796,6.117,6.1876,6.2421,6.2421,6.1979,6.1624,6.1403,6.0929,6.0518,6.0297,6.0107,6.0076,6.0297,6.0107,5.9696,5.9033,5.9001,5.9001,5.9001,5.9001,5.9222,5.9696,5.9696,5.9696,5.9696,5.9696,5.9791,3.5573,0.0,0.0,0.0,0.0,0.0,0.0,0.0,0.0,0.0,0.0,0.0,0.0,0.0,0.0,0.0,0.0,0.0,0.0,0.0,0.0,0.0,0.0,0.0,0.0,0.0,0.0,0.0,0.0,0.0,0.0,0.0,0.0,0.0,5.1903,5.2218,5.2778,5.242,5.2477,5.2951,5.2736,5.2992,5.3668,5.2995,5.2407,5.1878,5.1211,5.0656,5.0291,5.0234,5.0263,5.032,5.0095,5.0151,5.0376,5.0376,5.0764,5.1404,5.2101,5.3077,5.4079,5.4532,5.5207,5.5821,5.6042,5.6435,5.6883,5.7207,5.7476,5.769,5.7849,5.7902,5.7842,5.7573,5.7304,5.7064,5.6974,5.7034,5.7142,5.7256,5.7893,5.8644,5.9399,6.0358,6.1115,6.1413,6.2013,6.2421,6.2421,6.2042,6.1814,6.1814,6.1403,6.1126,6.1126,6.0897,6.0834,6.1119,6.0897,6.055,6.0139,5.9854,5.9696,5.9696,5.9696,5.9886,6.0297,6.0297,6.0297,6.0297,6.0297,6.0455,3.5815,0.0,0.0,0.0,0.0,0.0,0.0,0.0,0.0,0.0,0.0,0.0,0.0,0.0,0.0,0.0,0.0,0.0,0.0,0.0,0.0,0.0,0.0,0.0,0.0,0.0,0.0,0.0,0.0,0.0,0.0,0.0,0.0,5.1663,5.1409,5.1308,5.1334,5.1336,5.1478,0.0,5.1763,5.1932,5.2212,5.2491,5.2183,5.1321,5.1017,5.0572,5.001,5.0319,5.0627,5.0823,5.0292,5.0432,5.0906,5.0961,5.1376,5.193,5.1956,5.3164,5.4567,5.4036,5.5024,5.649,5.6518,5.7285,5.8167,5.8223,5.8637,5.9072,5.9072,5.9099,5.8949,5.8324,5.7723,5.7423,5.7965,5.7693,5.7637,5.8785,5.9092,5.9544,6.0701,6.1334,6.1658,6.1658,6.2091,6.2421,6.2421,6.2421,6.2421,6.2421,6.2421,6.2421,6.2421,6.1845,6.1751,6.2358,6.1845,6.1498,6.1498,6.0803,6.0392,6.0392,6.0392,6.0423,6.0487,6.0487,6.0487,6.0487,6.0487,6.0834,3.7653,3.8348,0.0,0.0,0.0,0.0,0.0,0.0,0.0,0.0,0.0,0.0,0.0,0.0,0.0,0.0,0.0,0.0,0.0,0.0,0.0,0.0,0.0,0.0,0.0,0.0,0.0,0.0,0.0,0.0,0.0,0.0,0.0,5.0416,5.0338,5.0529,5.102,5.0812,5.0954,0.0,5.1488,5.1516,5.1599,5.1874,5.1625,5.0989,5.0934,5.0572,5.001,5.0066,5.0291,5.0599,5.0656,5.0795,5.0961,5.1431,5.1848,5.2238,5.2981,5.4146,5.5366,5.5709,5.6393,5.7185,5.7409,5.7664,5.7975,5.8445,5.8664,5.8828,5.9045,5.9099,5.9069,5.8919,5.877,5.856,5.8175,5.8411,5.8748,5.8966,5.9744,6.0609,6.1328,6.1866,6.2216,6.2216,6.2315,6.2421,6.2421,6.2421,6.2421,6.2421,6.2421,6.2421,6.2421,6.2263,6.2263,6.239,6.2263,6.2168,6.2168,6.1529,6.115,6.115,6.115,6.1435,6.1947,6.1947,6.1947,6.1947,6.1947,6.2042,3.7652,0.0,0.0,0.0,0.0,0.0,0.0,0.0,0.0,0.0,0.0,0.0,0.0,0.0,0.0,0.0,0.0,0.0,0.0,0.0,0.0,0.0,0.0,0.0,0.0,0.0,0.0,0.0,0.0,0.0,0.0,5.1032,5.0787,5.0009,5.001,5.0146,5.0471,5.0483,5.0652,5.0953,5.1266,5.1487,5.1596,5.1732,5.1541,5.1128,5.0962,5.0656,5.0234,5.0234,5.0347,5.0543,5.0795,5.0823,5.0794,5.1653,5.2181,5.2654,5.3658,5.4881,5.5966,5.6308,5.6794,5.7331,5.75,5.7669,5.7864,5.8169,5.8502,5.8721,5.8691,5.8882,5.9072,5.8936,5.8991,5.9009,5.865,5.886,5.9171,5.9391,5.9919,6.0633,6.1455,6.2041,6.2421,6.2421,6.2421,6.2421,6.2421,6.2421,6.2421,6.2421,6.2421,6.2421,6.2421,6.2421,6.2421,6.2421,6.2421,6.2421,6.2421,6.2042,6.1877,6.1877,6.1877,6.2042,6.2421,6.2421,6.2421,6.2421,6.2421,6.2421,3.7053,0.0,4.0725,0.0,0.0,0.0,0.0,0.0,0.0,0.0,0.0,0.0,0.0,0.0,0.0,0.0,0.0,0.0,0.0,0.0,0.0,0.0,0.0,0.0,0.0,0.0,0.0,0.0,0.0,0.0,5.077,5.0824,5.0634,5.0037,5.001,5.001,5.0066,5.0347,5.0515,5.0571,5.1128,5.1514,5.1732,5.1732,5.1623,5.1377,5.1017,5.0711,5.0515,5.0431,5.0431,5.0515,5.085,5.0878,5.0847,5.2072,5.274,5.318,5.4283,5.5451,5.6394,5.6394,5.6794,5.7303,5.7303,5.7472,5.7725,5.7781,5.8197,5.8555,5.8362,5.8691,5.9045,5.88,5.8936,5.9099,5.9099,5.9099,5.9288,5.9952,6.0302,6.0782,6.1613,6.2305,6.2674,6.2453,6.2516,6.2547,6.2421,6.2421,6.2421,6.2421,6.2421,6.2421,6.2421,6.2421,6.2421,6.2421,6.2421,6.2421,6.2421,6.2421,6.2421,6.2421,6.2421,6.2421,6.2421,6.2421,6.2421,6.2421,6.2421,6.2421,0.0,0.0,4.2359,0.0,0.0,0.0,0.0,0.0,0.0,0.0,0.0,0.0,0.0,0.0,0.0,0.0,0.0,0.0,0.0,0.0,0.0,0.0,0.0,0.0,0.0,0.0,0.0,0.0,0.0,0.0,5.02,5.0634,5.0634,5.0037,5.001,5.015,5.043,5.0487,5.0627,5.085,5.1211,5.1432,5.1431,5.1431,5.1404,5.1377,5.0795,5.0515,5.0487,5.0206,5.0234,5.0543,5.1045,5.1377,5.1819,5.3304,5.3894,5.405,5.5042,5.5818,5.6394,5.6394,5.6794,5.7303,5.7303,5.7331,5.7416,5.7725,5.8031,5.8335,5.8555,5.8855,5.9072,5.9045,5.9072,5.9099,5.9099,5.9099,5.9422,6.0481,6.1928,6.2865,6.2392,6.335,6.3811,6.2579,6.2951,6.311,6.2484,6.2421,6.2421,6.2421,6.2421,6.2421,6.2421,6.2421,6.2421,6.2421,6.2421,6.2421,6.2421,6.2421,6.2421,6.2421,6.2421,6.2421,6.2421,6.2421,6.2421,6.2421,6.2421,6.2421,3.7989,3.9985,4.2015,0.0,0.0,0.0,0.0,0.0,0.0,0.0,0.0,0.0,0.0,0.0,0.0,0.0,0.0,0.0,0.0,0.0,0.0,0.0,0.0,0.0,0.0,0.0,0.0,0.0,0.0,5.0551,5.0037,5.0254,5.0281,5.001,5.001,5.0066,5.0234,5.043,5.0711,5.1183,5.1321,5.1459,5.1623,5.1294,5.1128,5.11,5.0683,5.0571,5.0711,5.0403,5.0459,5.0794,5.1544,5.1961,5.2267,5.381,5.4401,5.4538,5.5619,5.6193,5.6451,5.6794,5.7078,5.7303,5.7303,5.7303,5.736,5.7725,5.8003,5.8223,5.839,5.8773,5.9045,5.8909,5.8991,5.9099,5.9099,5.9342,5.9793,6.0638,6.171,6.2336,6.2029,6.3066,6.3584,6.2547,6.3046,6.3236,6.2484,6.2421,6.2421,6.2421,6.2421,6.2421,6.2421,6.2421,6.2579,6.2983,6.3015,6.3179,6.3558,6.359,6.34,6.3015,6.2611,6.2421,6.2421,6.2421,6.2421,6.2421,6.28,6.3015,0.0,0.0,4.0621,4.357,0.0,0.0,0.0,0.0,0.0,0.0,0.0,0.0,0.0,0.0,0.0,0.0,0.0,0.0,0.0,0.0,0.0,0.0,0.0,0.0,0.0,0.0,0.0,0.0,0.0,5.001,5.001,5.001,5.001,5.001,5.001,5.0038,5.015,5.0431,5.085,5.1404,5.1294,5.1376,5.1541,5.1045,5.0739,5.0656,5.0459,5.0571,5.0878,5.0599,5.0627,5.0878,5.1822,5.2296,5.2574,5.3978,5.4713,5.5195,5.6108,5.648,5.6709,5.7162,5.7303,5.7303,5.7303,5.736,5.7472,5.7725,5.8059,5.8335,5.8335,5.8719,5.9045,5.8828,5.8936,5.9126,5.9288,5.9739,6.032,6.0897,6.1586,6.2003,6.1847,6.3047,6.3647,6.2547,6.3331,6.3647,6.2547,6.2705,6.2863,6.2705,6.2832,6.2927,6.2927,6.2927,6.3148,6.371,6.3742,6.3963,6.4474,6.4506,6.4279,6.3742,6.3211,6.2832,6.2674,6.2674,6.2769,6.2958,6.3489,6.3742,0.0,3.7399,0.0,4.1381,0.0,0.0,0.0,0.0,0.0,0.0,0.0,0.0,0.0,0.0,0.0,0.0,0.0,0.0,0.0,0.0,0.0,0.0,0.0,0.0,0.0,0.0,0.0,0.0,0.0,5.001,5.001,5.001,5.001,5.001,5.001,5.015,5.0459,5.0739,5.1045,5.1404,5.11,5.0934,5.0934,5.0655,5.0347,5.0038,5.0038,5.0376,5.0878,5.0599,5.0515,5.0627,5.1487,5.2212,5.2874,5.3811,5.5055,5.6337,5.6394,5.6766,5.7247,5.7303,5.7303,5.7303,5.7303,5.75,5.7781,5.7809,5.8225,5.8694,5.8694,5.8882,5.9099,5.9072,5.9072,5.9234,5.9736,6.032,6.0923,6.143,6.255,6.3179,6.2466,6.4095,6.481,6.2705,6.4152,6.4721,6.2674,6.3558,6.4152,6.3489,6.4026,6.438,6.438,6.438,6.4411,6.4443,6.4443,6.4443,6.4506,6.4506,6.4474,6.4443,6.4411,6.4089,6.3451,6.3451,6.3773,6.438,6.4411,6.4443,0.0,0.0,0.0,4.0698,4.2214,0.0,0.0,0.0,0.0,0.0,0.0,0.0,0.0,0.0,0.0,0.0,0.0,0.0,0.0,0.0,0.0,0.0,0.0,0.0,0.0,0.0,0.0,0.0,0.0,0.0,4.9412,4.9412,4.9412,4.9412,4.9792,5.0178,5.0515,5.0023,5.0297,5.1376,5.0849,5.0822,5.1211,5.0906,5.0599,5.0319,5.0319,5.0431,5.0627,5.0319,5.0319,5.057,5.1291,5.1818,5.243,5.4121,5.5197,5.5908,5.6707,5.7106,5.7303,5.7303,5.7303,5.7331,5.7585,5.7697,5.7892,5.8252,5.8527,5.8748,5.8909,5.9018,5.9099,5.9099,5.9099,5.9342,6.0268,6.0664,6.0975,6.1481,6.223,6.2857,6.3078,6.4089,6.4626,6.3843,6.4784,6.5158,6.3906,6.419,6.4411,6.4184,6.4348,6.4506,6.4506,6.4506,6.4721,6.5164,6.5221,6.5385,6.5827,6.5859,6.5638,6.5195,6.5221,6.4848,6.4152,6.4152,6.4279,6.4506,6.4974,6.5221,0.0,0.0,0.0,0.0,0.0,0.0,0.0,0.0,0.0,0.0,0.0,0.0,0.0,0.0,0.0,0.0,0.0,0.0,0.0,0.0,0.0,0.0,0.0,0.0,0.0,0.0,0.0,0.0,0.0,0.0,4.9087,4.9087,4.9195,4.9385,4.9765,5.0178,5.0515,4.9748,5.0075,5.1376,5.0708,5.0682,5.1211,5.0906,5.0627,5.0319,5.0319,5.0459,5.0627,5.0376,5.0432,5.071,5.1399,5.2012,5.2685,5.4317,5.5424,5.6191,5.6792,5.7134,5.7303,5.7303,5.7303,5.7331,5.7585,5.7781,5.8031,5.8417,5.8664,5.8855,5.9045,5.9099,5.9159,5.9368,5.9428,5.9759,6.0935,6.1155,6.1335,6.2109,6.2701,6.3242,6.3742,6.4405,6.4784,6.4538,6.5322,6.5574,6.4601,6.4839,6.4977,6.4725,6.4914,6.5071,6.5071,6.5149,6.5416,6.5917,6.5948,6.6143,6.6586,6.6617,6.6396,6.5948,6.5948,6.5701,6.5201,6.4974,6.4974,6.5227,6.5701,6.5948,0.0,0.0,0.0,0.0,0.0,0.0,4.3375,0.0,0.0,0.0,0.0,0.0,0.0,0.0,0.0,0.0,0.0,0.0,0.0,0.0,0.0,0.0,0.0,0.0,0.0,0.0,0.0,0.0,0.0,4.8436,4.9005,4.9032,4.9331,4.9956,4.9928,5.0096,5.0515,5.0133,5.0435,5.1348,5.068,5.0545,5.0878,5.06,5.032,5.001,5.0038,5.0376,5.0906,5.0878,5.0878,5.0961,5.1822,5.2771,5.3726,5.4288,5.5681,5.7162,5.6623,5.6822,5.7303,5.7303,5.7303,5.7303,5.7303,5.7723,5.8195,5.8195,5.8664,5.9099,5.9099,5.9129,5.9279,5.9937,6.0144,6.0516,6.1753,6.1925,6.2233,6.3318,6.4032,6.4506,6.4506,6.5132,6.5379,6.469,6.5732,6.6112,6.4727,6.5534,6.5941,6.5219,6.5784,6.6192,6.6192,6.6459,6.6617,6.6617,6.6617,6.6617,6.6617,6.6617,6.6617,6.6617,6.6617,6.6617,6.6617,6.5948,6.598,6.6617,6.6617,6.6617,3.497,0.0,0.0,0.0,0.0,0.0,3.9988,4.0941,0.0,0.0,0.0,0.0,0.0,0.0,0.0,0.0,0.0,0.0,0.0,0.0,0.0,0.0,0.0,0.0,0.0,0.0,0.0,0.0,4.773,4.7703,4.7866,4.7866,4.83,4.9304,4.83,4.8654,5.0487,4.928,4.9355,5.0652,5.004,4.9906,5.0243,5.0353,5.0381,5.0375,5.0822,5.11,5.1211,5.0516,5.0263,5.0319,5.0988,5.1738,5.2574,5.4035,5.5194,5.6105,5.682,5.7162,5.7303,5.7303,5.7303,5.736,5.7613,5.789,5.825,5.85,5.8828,5.9099,5.9099,5.9458,5.9847,6.0084,6.0804,6.1689,6.2414,6.3282,6.3848,6.3693,6.4118,6.469,6.5195,6.5474,6.5695,6.5985,6.6365,6.6459,6.608,6.6286,6.639,6.6201,6.6359,6.6485,6.6485,6.6565,6.6617,6.6617,6.6617,6.6617,6.6617,6.6617,6.6617,6.6617,6.6617,6.6617,6.6617,6.6396,6.6428,6.6617,6.6617,6.6617,0.0,0.0,0.0,0.0,0.0,0.0,3.9231,3.9833,4.0591,0.0,0.0,0.0,0.0,0.0,0.0,0.0,0.0,0.0,0.0,0.0,0.0,0.0,0.0,0.0,0.0,0.0,0.0,4.7405,4.716,4.7106,4.7404,4.7622,4.8083,4.8899,4.7973,4.8299,5.0131,4.884,4.8887,5.0239,4.9592,4.9593,5.0158,5.0321,5.0518,5.0683,5.0906,5.1045,5.0961,5.0263,5.0151,5.0459,5.1042,5.168,5.243,5.3838,5.4828,5.5595,5.6423,5.6822,5.6964,5.7219,5.7303,5.736,5.7697,5.8003,5.825,5.8609,5.9091,5.9518,5.9518,5.9997,6.0678,6.1197,6.1891,6.2692,6.3784,6.4613,6.4969,6.4575,6.4956,6.5511,6.5922,6.6043,6.6143,6.6554,6.6617,6.6617,6.6617,6.6512,6.6432,6.6432,6.6432,6.6432,6.6432,6.6538,6.6617,6.6617,6.6617,6.6617,6.6617,6.6617,6.6617,6.6617,6.6617,6.6617,6.6617,6.6617,6.6617,6.6617,6.6617,6.6617,0.0,0.0,0.0,0.0,0.0,0.0,3.9711,4.0113,4.0327,0.0,0.0,0.0,0.0,0.0,0.0,0.0,0.0,0.0,0.0,0.0,0.0,0.0,0.0,0.0,0.0,4.7323,4.7323,4.7323,4.6807,4.6726,4.7269,4.7758,4.8192,4.8544,4.8192,4.8491,4.9474,4.8593,4.8697,4.9855,4.9308,4.9497,5.0318,5.0401,5.0627,5.0906,5.0683,5.0543,5.0487,5.0204,5.0401,5.0905,5.1429,5.212,5.2895,5.3714,5.4646,5.5583,5.5933,5.625,5.6594,5.7134,5.7331,5.7416,5.7725,5.8031,5.8335,5.8726,5.9446,6.0116,6.0176,6.0715,6.1513,6.2617,6.3052,6.3623,6.525,6.57,6.5754,6.5717,6.6149,6.6565,6.6591,6.6591,6.6565,6.6617,6.6617,6.6617,6.6617,6.6379,6.6246,6.6246,6.6246,6.6246,6.6246,6.6459,6.6617,6.6617,6.6617,6.6617,6.6617,6.6617,6.6617,6.6617,6.6617,6.6617,6.6617,6.6617,6.6617,6.6617,6.6617,6.6617,0.0,0.0,0.0,0.0,0.0,0.0,3.7476,3.7979,3.8902,0.0,0.0,0.0,0.0,0.0,0.0,0.0,0.0,0.0,0.0,0.0,0.0,0.0,0.0,0.0,0.0,4.6671,4.6671,4.6671,4.6563,4.6536,4.6671,4.678,4.7078,4.7647,4.7132,4.7484,4.8872,4.8213,4.8204,4.8875,4.9231,4.9508,4.9706,5.0448,5.0845,5.0906,5.1128,5.0961,5.0487,5.0668,5.0629,5.0516,5.0621,5.1498,5.2836,5.3724,5.4827,5.5933,5.6766,5.7078,5.7134,5.7275,5.7472,5.7725,5.7781,5.8169,5.8783,5.962,5.9969,6.0206,6.0775,6.1403,6.197,6.2232,6.3383,6.4559,6.4902,6.5754,6.6422,6.6401,6.6338,6.6352,6.6565,6.6432,6.6352,6.6565,6.6617,6.6617,6.6617,6.6565,6.6538,6.6538,6.6538,6.6538,6.6538,6.6565,6.6617,6.6617,6.6617,6.6617,6.6617,6.6617,6.6617,6.6617,6.6617,6.6617,6.6617,6.6617,6.6617,6.6617,6.6617,6.6617,0.0,0.0,0.0,3.7768,0.0,0.0,0.0,3.7416,3.7725,3.9025,0.0,0.0,0.0,0.0,0.0,0.0,0.0,0.0,0.0,0.0,0.0,0.0,0.0,0.0,0.0,4.6509,4.6509,4.6509,4.6509,4.6509,4.6509,4.6509,4.6697,4.7154,4.6854,4.7259,4.8428,4.7982,4.8026,4.8592,4.8722,4.8979,4.9324,4.979,5.0186,5.046,5.0515,5.0404,5.0263,5.025,5.0318,5.0416,5.0554,5.1571,5.3,5.3296,5.44,5.5788,5.6394,5.6709,5.6908,5.7191,5.7528,5.7836,5.7975,5.8624,5.9503,5.9969,6.0565,6.1164,6.1523,6.2091,6.2656,6.2911,6.3689,6.4435,6.474,6.5538,6.6161,6.6161,6.6192,6.6272,6.6565,6.6485,6.6459,6.6591,6.6617,6.6617,6.6617,6.6617,6.6617,6.6617,6.6617,6.6617,6.6617,6.6617,6.6617,6.6617,6.6617,6.6617,6.6617,6.6617,6.6617,6.6617,6.6617,6.6617,6.6617,6.6617,6.6617,6.6617,6.6617,6.6617,0.0,0.0,0.0,0.0,0.0,3.7609,0.0,0.0,0.0,3.8212,0.0,0.0,0.0,0.0,0.0,0.0,0.0,0.0,0.0,0.0,0.0,0.0,0.0,0.0,0.0,4.6237,4.6264,4.6481,4.6291,4.6264,4.6481,4.6561,4.6666,4.6822,4.6899,4.7328,4.8033,4.7795,4.7949,4.8503,4.8404,4.8642,4.9111,4.9278,4.9611,4.9982,4.9727,4.9727,4.9897,4.9748,4.9927,5.0356,5.0763,5.1814,5.3116,5.3147,5.4196,5.5642,5.602,5.6365,5.6652,5.7219,5.7669,5.8031,5.8307,5.9192,6.0144,6.0236,6.1074,6.1972,6.2211,6.26,6.3043,6.359,6.3819,6.4073,6.4685,6.5262,6.5727,6.5835,6.6081,6.6352,6.6565,6.6565,6.6538,6.6591,6.6617,6.6617,6.6617,6.6617,6.6617,6.6617,6.6617,6.6617,6.6617,6.6617,6.6617,6.6617,6.6617,6.6617,6.6617,6.6617,6.6617,6.6617,6.6617,6.6617,6.6617,6.6617,6.6617,6.6617,6.6617,6.6617,0.0,0.0,0.0,0.0,4.0105,0.0,0.0,0.0,3.8884,3.8483,0.0,0.0,0.0,0.0,0.0,0.0,0.0,0.0,0.0,0.0,0.0,0.0,0.0,0.0,0.0,0.0,4.5343,4.6427,4.5505,4.537,4.6454,4.6744,4.677,4.6561,4.7003,4.7317,4.7398,4.76,4.7857,4.817,4.8972,4.9265,4.9138,4.9968,5.0211,4.9982,4.9727,4.9613,4.9667,4.9888,4.9983,5.0124,5.102,5.1902,5.2936,5.4313,5.5252,5.5991,5.6851,5.7162,5.7247,5.7641,5.8114,5.8637,5.8909,5.9493,6.0206,6.0835,6.1104,6.1493,6.2689,6.26,6.2389,6.3044,6.3565,6.4073,6.4685,6.5262,6.5862,6.6401,6.6538,6.6565,6.6591,6.6406,6.6326,6.6565,6.6617,6.6617,6.6617,6.6617,6.6617,6.6617,6.6617,6.6617,6.6617,6.6617,6.6617,6.6617,6.6617,6.6617,6.6617,6.6617,6.6617,6.6617,6.6617,6.6617,6.6617,6.6617,6.6617,6.6617,6.6617,6.6617,0.0,0.0,0.0,0.0,0.0,0.0,0.0,0.0,3.8266,0.0,0.0,0.0,0.0,0.0,0.0,0.0,0.0,0.0,0.0,0.0,0.0,0.0,0.0,0.0,0.0,0.0,0.0,0.0,0.0,4.5071,4.5938,4.6423,4.664,4.6509,4.7003,4.7288,4.7288,4.7906,4.8282,4.8411,4.8988,4.9115,4.8817,4.9222,4.9346,4.924,4.9125,4.9297,4.961,4.9883,5.0065,5.0379,5.1665,5.2617,5.329,5.3817,5.5049,5.6509,5.6709,5.7134,5.7669,5.8169,5.8472,5.8808,5.9466,6.0146,6.0835,6.1493,6.1972,6.2391,6.2958,6.2898,6.2748,6.3048,6.325,6.3594,6.4186,6.474,6.5344,6.5942,6.6347,6.6617,6.6617,6.6512,6.6485,6.6591,6.6617,6.6617,6.6617,6.6617,6.6617,6.6617,6.6617,6.6617,6.6617,6.6965,6.6997,6.6617,6.6617,6.6617,6.6617,6.6617,6.6617,6.6617,6.6617,6.6807,6.7186,6.7186,6.7407,6.7818,6.7376,6.7186,4.1768,0.0,0.0,0.0,0.0,0.0,0.0,0.0,0.0,0.0,0.0,0.0,0.0,0.0,0.0,0.0,0.0,0.0,0.0,0.0,0.0,0.0,0.0,0.0,0.0,0.0,0.0,0.0,0.0,0.0,4.5608,4.6124,4.6423,4.6586,4.722,4.7479,4.7391,4.8296,4.868,4.8592,4.8999,4.8982,4.8586,4.8802,4.8813,4.8692,4.8692,4.9061,4.9737,4.9818,5.0113,5.0676,5.223,5.3143,5.3613,5.3777,5.5016,5.6623,5.6566,5.7134,5.8003,5.8527,5.8748,5.8917,5.9613,6.0296,6.0984,6.1642,6.2181,6.2659,6.3018,6.2958,6.2868,6.3078,6.3108,6.3279,6.4017,6.449,6.5043,6.5808,6.6294,6.6617,6.6617,6.6617,6.6617,6.6617,6.6617,6.6617,6.6617,6.6617,6.6617,6.6617,6.6617,6.6617,6.6617,6.706,6.7123,6.6649,6.6775,6.687,6.687,6.706,6.7186,6.7186,6.7186,6.7407,6.7881,6.7881,6.8166,6.8671,6.8134,6.7881,0.0,0.0,0.0,0.0,0.0,0.0,0.0,0.0,4.0128,0.0,0.0,0.0,0.0,0.0,0.0,0.0,0.0,0.0,0.0,0.0,0.0,0.0,0.0,0.0,0.0,0.0,0.0,0.0,0.0,0.0,4.5755,4.5972,4.6298,4.6873,4.7711,4.8026,4.7701,4.8607,4.8912,4.862,4.9198,4.917,4.8613,4.926,4.9242,4.8692,4.8692,4.9184,4.9951,4.9629,5.0002,5.0943,5.2541,5.3349,5.3756,5.498,5.5643,5.602,5.668,5.7473,5.8223,5.8582,5.8855,5.9072,5.9129,5.9608,6.0266,6.0954,6.1136,6.1463,6.2778,6.2629,6.2301,6.2958,6.3108,6.3394,6.4518,6.4795,6.5153,6.6347,6.6591,6.6617,6.6617,6.6617,6.6617,6.6617,6.6617,6.6617,6.6617,6.6617,6.6617,6.6617,6.6617,6.6617,6.6617,6.6617,6.6617,6.6617,6.7218,6.7565,6.7565,6.8261,6.8608,6.8608,6.8608,6.864,6.864,6.864,6.8671,6.8703,6.8671,6.864,0.0,0.0,4.4662,4.3251,0.0,0.0,0.0,0.0,0.0,0.0,0.0,0.0,0.0,0.0,0.0,0.0,0.0,0.0,0.0,0.0,0.0,0.0,0.0,0.0,0.0,0.0,0.0,0.0,0.0,0.0,0.0,4.543,4.6026,4.6298,4.6977,4.7457,4.7701,4.845,4.8866,4.894,4.9529,4.9627,4.926,4.9276,4.9154,4.8979,4.9173,4.9526,5.0028,5.0442,5.1196,5.2128,5.2842,5.3596,5.4309,5.5178,5.5961,5.668,5.7472,5.8114,5.8582,5.8855,5.9018,5.9189,5.9608,6.0236,6.0894,6.1583,6.2091,6.251,6.2988,6.2928,6.2838,6.3048,6.3365,6.3847,6.4629,6.5098,6.5646,6.6427,6.6617,6.6617,6.6617,6.6617,6.6617,6.6617,6.6617,6.6617,6.6617,6.6997,6.7091,6.6649,6.6997,6.7091,6.6649,6.6997,6.7471,6.7945,6.8197,6.8324,6.8324,6.8545,6.8703,6.8703,6.8703,6.8924,6.9363,6.9363,6.9588,7.009,7.009,6.9837,4.5912,4.5938,0.0,4.4689,4.4011,0.0,4.154,0.0,0.0,0.0,0.0,0.0,0.0,0.0,0.0,0.0,0.0,0.0,0.0,3.9424,0.0,0.0,0.0,0.0,0.0,0.0,0.0,0.0,0.0,0.0,0.0,0.0,4.5624,4.5997,4.6713,4.7275,4.7701,4.8484,4.8926,4.9111,4.9719,4.9868,4.9585,4.9383,4.9154,4.8979,4.9147,4.9526,5.0057,5.0897,5.1883,5.2931,5.377,5.4467,5.5029,5.5379,5.6106,5.705,5.8184,5.8542,5.8582,5.8964,5.9099,5.9219,5.9877,6.0386,6.0924,6.1852,6.2391,6.2808,6.3048,6.3108,6.3108,6.3108,6.3365,6.3819,6.4629,6.5098,6.5619,6.6427,6.6617,6.6617,6.6617,6.6617,6.6617,6.6617,6.6617,6.6617,6.6617,6.6965,6.7091,6.6649,6.6997,6.706,6.6649,6.7218,6.7787,6.8261,6.8766,6.9051,6.9051,6.9304,6.943,6.943,6.943,6.9679,7.009,7.009,7.0343,7.0817,7.0817,7.0564]},{"header":{"parameterUnit":"m.s-1","parameterCategory":1,"la1":30.6,"la2":29.2853,"lo1":-89.7004,"lo2":-87.6739,"dy":0.0162,"dx":0.0183,"nx":112,"ny":82,"refTime":"2024-03-16T18:00:00:Z","depth":0,"parameterNumber":3,"parameterNumberName":"V-component_of_WINDS"},"data":[0.0,0.0,0.0,0.0,0.0,0.0,0.0,0.0,0.0,0.0,0.0,0.0,0.0,0.0,0.0,0.0,0.0,0.0,0.0,0.0,0.0,0.0,0.0,0.0,0.0,0.0,0.0,0.0,0.0,0.0,0.0,0.0,0.0,0.0,0.0,0.0,0.0,0.0,0.0,0.0,0.0,0.0,0.0,0.0,0.0,0.0,0.0,0.0,0.0,0.0,0.0,0.0,0.0,0.0,0.0,0.0,0.0,0.0,0.0,0.0,0.0,0.0,0.0,0.0,0.0,0.0,0.0,0.0,0.0,0.0,0.0,0.0,0.0,0.0,0.0,0.0,0.0,0.0,0.0,0.0,0.0,0.0,0.0,0.0,0.0,0.0,0.0,0.0,0.0,0.0,0.0,1.9603,2.1267,2.227,2.2169,2.1946,2.1079,1.9442,0.0,0.0,0.0,0.0,0.0,0.0,0.0,0.0,0.0,0.0,0.0,0.0,0.0,0.0,0.0,0.0,0.0,0.0,0.0,0.0,0.0,0.0,0.0,0.0,0.0,0.0,0.0,0.0,0.0,0.0,0.0,0.0,0.0,0.0,0.0,0.0,0.0,0.0,0.0,0.0,0.0,0.0,0.0,0.0,0.0,0.0,0.0,0.0,0.0,0.0,0.0,0.0,0.0,0.0,0.0,0.0,0.0,0.0,0.0,0.0,0.0,0.0,0.0,0.0,0.0,0.0,0.0,0.0,0.0,0.0,0.0,0.0,0.0,0.0,0.0,0.0,0.0,0.0,0.0,0.0,0.0,0.0,0.0,0.0,0.0,0.0,0.0,0.0,0.0,0.0,0.0,0.0,0.0,0.0,0.0,0.0,0.0,0.0,0.0,0.0,0.0,0.0,0.0,0.0,1.9198,2.1213,2.253,2.305,2.2477,2.2248,2.1641,2.054,0.0,0.0,0.0,0.0,0.0,0.0,0.0,0.0,0.0,0.0,0.0,0.0,0.0,0.0,0.0,0.0,0.0,0.0,0.0,0.0,0.0,0.0,0.0,0.0,0.0,0.0,0.0,0.0,0.0,0.0,0.0,0.0,0.0,0.0,0.0,0.0,0.0,0.0,0.0,0.0,0.0,0.0,0.0,0.0,0.0,0.0,0.0,0.0,0.0,0.0,0.0,0.0,0.0,0.0,0.0,0.0,0.0,0.0,0.0,0.0,0.0,0.0,0.0,0.0,0.0,0.0,0.0,0.0,0.0,0.0,0.0,0.0,0.0,0.0,0.0,0.0,0.0,0.0,0.0,0.0,0.0,0.0,0.0,0.0,0.0,0.0,0.0,0.0,0.0,0.0,0.0,0.0,0.0,0.0,0.0,0.0,0.0,0.0,0.0,0.0,0.0,0.0,0.0,1.9023,2.0012,2.2784,2.3241,2.3302,2.3213,2.2419,2.1635,2.0972,1.9856,0.0,0.0,0.0,0.0,0.0,0.0,0.0,0.0,0.0,0.0,0.0,0.0,0.0,0.0,0.0,0.0,0.0,0.0,0.0,0.0,0.0,0.0,0.0,0.0,0.0,0.0,0.0,0.0,0.0,0.0,0.0,0.0,0.0,0.0,0.0,0.0,0.0,0.0,0.0,0.0,0.0,0.0,0.0,0.0,0.0,0.0,0.0,0.0,0.0,0.0,0.0,0.0,0.0,0.0,0.0,0.0,0.0,0.0,0.0,0.0,0.0,0.0,0.0,0.0,0.0,0.0,0.0,0.0,0.0,0.0,0.0,0.0,0.0,0.0,0.0,0.0,0.0,0.0,0.0,0.0,0.0,0.0,0.0,0.0,0.0,0.0,0.0,0.0,0.0,0.0,0.0,0.0,0.0,0.0,0.0,0.0,0.0,0.0,0.0,0.0,0.0,0.0,2.0315,2.1118,2.3968,2.4051,2.3961,2.4068,2.305,2.209,2.1312,2.0334,0.0,0.0,0.0,0.0,0.0,0.0,0.0,0.0,0.0,0.0,0.0,0.0,0.0,0.0,0.0,0.0,0.0,0.0,0.0,0.0,0.0,0.0,0.0,0.0,0.0,0.0,0.0,0.0,0.0,0.0,0.0,0.0,0.0,0.0,0.0,0.0,0.0,0.0,0.0,0.0,0.0,0.0,0.0,0.0,0.0,0.0,0.0,0.0,0.0,0.0,0.0,0.0,0.0,0.0,0.0,0.0,0.0,0.0,0.0,0.0,0.0,0.0,0.0,0.0,0.0,0.0,0.0,0.0,0.0,0.0,0.0,0.0,0.0,0.0,0.0,0.0,0.0,0.0,0.0,0.0,0.0,0.0,0.0,0.0,0.0,0.0,0.0,0.0,0.0,0.0,0.0,0.0,0.0,0.0,0.0,0.0,0.0,0.0,0.0,0.0,0.0,0.0,2.1141,2.2578,2.4298,2.5389,2.5711,2.4982,2.465,2.3699,2.1863,2.184,0.0,0.0,0.0,0.0,0.0,0.0,0.0,0.0,0.0,0.0,0.0,0.0,0.0,0.0,0.0,0.0,0.0,0.0,0.0,0.0,0.0,0.0,0.0,0.0,0.0,0.0,0.0,0.0,0.0,0.0,0.0,0.0,0.0,0.0,0.0,0.0,0.0,0.0,0.0,0.0,0.0,0.0,0.0,0.0,0.0,0.0,0.0,0.0,0.0,0.0,0.0,0.0,0.0,0.0,0.0,0.0,0.0,0.0,0.0,0.0,0.0,0.0,0.0,0.0,0.0,0.0,0.0,0.0,0.0,0.0,0.0,0.0,0.0,0.0,0.0,0.0,0.0,0.0,0.0,0.0,0.0,0.0,0.0,0.0,0.0,0.0,0.0,0.0,0.0,0.0,0.0,0.0,0.0,0.0,0.0,0.0,0.0,0.0,0.0,0.0,0.0,0.0,2.1553,2.3083,0.0,2.6065,2.6125,2.5493,2.5181,2.4366,2.2889,0.0,0.0,0.0,0.0,0.0,0.0,0.0,0.0,0.0,0.0,0.0,0.0,0.0,0.0,0.0,0.0,0.0,0.0,0.0,0.0,0.0,0.0,0.0,0.0,0.0,0.0,0.0,0.0,0.0,0.0,0.0,0.0,0.0,0.0,0.0,0.0,0.0,0.0,0.0,0.0,0.0,0.0,0.0,0.0,0.0,0.0,0.0,0.0,0.0,0.0,0.0,0.0,0.0,0.0,0.0,0.0,0.0,0.0,0.0,0.0,0.0,0.0,0.0,0.0,0.0,0.0,0.0,0.0,0.0,0.0,0.0,0.0,0.0,0.0,0.0,0.0,0.0,0.0,0.0,0.0,0.0,0.0,0.0,0.0,0.0,0.0,0.0,0.0,0.0,0.0,0.0,0.0,0.0,0.0,0.0,0.0,0.0,0.0,0.0,0.0,0.0,0.0,2.112,2.2344,2.3942,0.0,2.6837,2.6795,2.6132,2.5892,2.5117,2.3592,0.0,0.0,0.0,0.0,0.0,0.0,0.0,0.0,0.0,0.0,0.0,0.0,0.0,0.0,0.0,0.0,0.0,0.0,0.0,0.0,0.0,0.0,0.0,0.0,0.0,0.0,0.0,0.0,0.0,0.0,0.0,0.0,0.0,0.0,0.0,0.0,0.0,0.0,0.0,0.0,0.0,0.0,0.0,0.0,0.0,0.0,0.0,0.0,0.0,0.0,0.0,0.0,0.0,0.0,0.0,0.0,0.0,0.0,0.0,0.0,0.0,0.0,0.0,0.0,0.0,0.0,0.0,0.0,0.0,0.0,0.0,0.0,0.0,0.0,0.0,0.0,0.0,0.0,0.0,0.0,0.0,0.0,0.0,0.0,0.0,0.0,0.0,0.0,0.0,0.0,0.0,0.0,0.0,0.0,0.0,0.0,0.0,0.0,0.0,0.0,0.0,0.0,2.1918,2.3632,2.5336,2.7024,2.7817,2.7849,2.6994,2.6968,2.6055,0.0,0.0,0.0,0.0,0.0,0.0,0.0,0.0,0.0,0.0,0.0,0.0,0.0,0.0,0.0,0.0,0.0,0.0,0.0,0.0,0.0,0.0,0.0,0.0,0.0,0.0,0.0,0.0,0.0,0.0,0.0,0.0,0.0,0.0,0.0,0.0,0.0,0.0,0.0,0.0,0.0,0.0,0.0,0.0,0.0,0.0,0.0,0.0,0.0,0.0,0.0,0.0,0.0,0.0,0.0,0.0,0.0,0.0,0.0,0.0,0.0,0.0,0.0,0.0,0.0,0.0,0.0,0.0,0.0,0.0,0.0,0.0,0.0,0.0,0.0,0.0,0.0,0.0,0.0,0.0,0.0,0.0,0.0,0.0,0.0,0.0,0.0,0.0,0.0,0.0,0.0,0.0,0.0,0.0,0.0,0.0,0.0,0.0,0.0,0.0,0.0,0.0,0.0,0.0,2.4101,2.6103,2.7532,2.8119,2.8046,2.7195,2.725,2.6459,2.4376,0.0,0.0,0.0,0.0,0.0,0.0,0.0,0.0,0.0,0.0,0.0,0.0,0.0,0.0,0.0,0.0,0.0,0.0,0.0,0.0,0.0,0.0,0.0,0.0,0.0,0.0,0.0,0.0,0.0,0.0,0.0,0.0,0.0,0.0,0.0,0.0,0.0,0.0,0.0,0.0,0.0,0.0,0.0,0.0,0.0,0.0,0.0,0.0,0.0,0.0,0.0,0.0,0.0,0.0,0.0,0.0,0.0,0.0,0.0,0.0,0.0,0.0,0.0,0.0,0.0,0.0,0.0,0.0,0.0,0.0,0.0,0.0,0.0,0.0,0.0,0.0,0.0,0.0,0.0,0.0,0.0,0.0,0.0,0.0,0.0,0.0,0.0,0.0,0.0,0.0,0.0,0.0,0.0,0.0,0.0,0.0,0.0,0.0,0.0,0.0,0.0,0.0,2.2634,2.48,2.67,2.8,2.8363,2.8105,2.7158,2.7267,2.6502,2.4509,0.0,0.0,0.0,0.0,0.0,0.0,0.0,0.0,0.0,0.0,0.0,0.0,0.0,0.0,0.0,0.0,0.0,0.0,0.0,0.0,0.0,0.0,0.0,0.0,0.0,0.0,0.0,0.0,0.0,0.0,0.0,0.0,0.0,0.0,0.0,0.0,0.0,0.0,0.0,0.0,0.0,0.0,0.0,0.0,0.0,0.0,0.0,0.0,0.0,0.0,0.0,0.0,0.0,0.0,0.0,0.0,0.0,0.0,0.0,0.0,0.0,0.0,0.0,0.0,0.0,0.0,0.0,0.0,0.0,0.0,0.0,0.0,0.0,0.0,0.0,0.0,0.0,0.0,0.0,0.0,0.0,0.0,0.0,0.0,0.0,0.0,0.0,0.0,0.0,0.0,0.0,0.0,0.0,0.0,0.0,0.0,0.0,0.0,0.0,0.0,0.0,0.0,2.3866,2.5609,2.7162,2.8362,2.8502,2.8089,2.7103,2.7123,2.6389,2.4467,0.0,0.0,0.0,0.0,0.0,0.0,0.0,0.0,0.0,0.0,0.0,0.0,0.0,0.0,0.0,0.0,0.0,0.0,0.0,0.0,0.0,0.0,0.0,0.0,0.0,0.0,0.0,0.0,0.0,0.0,0.0,0.0,0.0,0.0,0.0,0.0,0.0,0.0,0.0,0.0,0.0,0.0,0.0,0.0,0.0,0.0,0.0,0.0,0.0,0.0,0.0,0.0,0.0,0.0,0.0,0.0,0.0,0.0,0.0,0.0,2.1401,0.0,0.0,0.0,0.0,0.0,0.0,0.0,0.0,0.0,0.0,0.0,0.0,0.0,0.0,0.0,0.0,0.0,0.0,0.0,0.0,0.0,0.0,0.0,0.0,0.0,0.0,0.0,0.0,0.0,0.0,0.0,0.0,0.0,0.0,0.0,0.0,0.0,0.0,0.0,0.0,0.0,2.3977,2.607,2.7743,2.843,2.8502,2.8293,2.7815,2.7416,2.6724,2.5605,0.0,0.0,0.0,0.0,0.0,0.0,0.0,0.0,0.0,0.0,0.0,0.0,0.0,0.0,0.0,0.0,0.0,0.0,0.0,0.0,0.0,0.0,0.0,0.0,0.0,0.0,0.0,0.0,0.0,0.0,0.0,0.0,0.0,0.0,0.0,0.0,0.0,0.0,0.0,0.0,0.0,0.0,0.0,0.0,0.0,0.0,0.0,0.0,0.0,0.0,0.0,0.0,0.0,0.0,0.0,0.0,0.0,0.0,0.0,0.0,0.0,2.2578,0.0,0.0,0.0,0.0,0.0,0.0,0.0,0.0,0.0,0.0,0.0,0.0,0.0,0.0,0.0,0.0,0.0,0.0,0.0,0.0,0.0,0.0,0.0,0.0,0.0,0.0,0.0,0.0,0.0,0.0,0.0,0.0,0.0,0.0,0.0,0.0,0.0,0.0,0.0,0.0,2.472,2.6513,2.7902,2.843,2.8502,2.8345,2.7888,2.7357,2.673,2.6029,2.464,0.0,0.0,0.0,0.0,0.0,0.0,0.0,0.0,0.0,0.0,0.0,0.0,0.0,0.0,0.0,0.0,0.0,0.0,0.0,0.0,0.0,0.0,0.0,0.0,0.0,0.0,0.0,0.0,0.0,0.0,0.0,0.0,0.0,0.0,0.0,0.0,0.0,0.0,0.0,0.0,0.0,0.0,0.0,0.0,0.0,0.0,0.0,0.0,0.0,0.0,0.0,0.0,0.0,2.6427,2.6735,2.7169,2.7558,2.7342,2.6564,2.5017,2.4305,2.4164,0.0,0.0,0.0,0.0,0.0,0.0,0.0,0.0,0.0,0.0,0.0,0.0,0.0,0.0,0.0,0.0,0.0,0.0,0.0,0.0,0.0,0.0,0.0,0.0,0.0,2.4631,2.4547,0.0,0.0,0.0,0.0,0.0,0.0,0.0,0.0,0.0,0.0,0.0,0.0,2.5452,2.6881,2.7959,2.8454,2.8502,2.831,2.7878,2.7406,2.6906,2.6371,2.5195,2.4247,0.0,0.0,0.0,0.0,0.0,0.0,0.0,0.0,0.0,0.0,0.0,0.0,0.0,0.0,0.0,0.0,0.0,0.0,0.0,0.0,0.0,0.0,0.0,0.0,0.0,0.0,0.0,0.0,0.0,0.0,0.0,0.0,2.2114,2.1869,0.0,0.0,0.0,0.0,0.0,0.0,0.0,0.0,0.0,0.0,0.0,0.0,0.0,0.0,2.7379,2.8532,2.9199,2.9318,2.9975,3.021,3.0158,3.0199,3.0166,3.0047,2.9781,0.0,2.5527,2.5262,0.0,0.0,0.0,0.0,0.0,0.0,0.0,0.0,0.0,0.0,0.0,0.0,0.0,0.0,0.0,0.0,0.0,0.0,0.0,0.0,0.0,0.0,2.4988,2.6099,2.611,2.5917,0.0,2.4499,2.261,2.1454,0.0,0.0,0.0,0.0,0.0,0.0,0.0,0.0,2.5528,2.7075,2.8227,2.8478,2.8502,2.8474,2.8406,2.8232,2.7875,2.7336,2.6865,2.6129,2.507,2.3942,0.0,0.0,0.0,0.0,0.0,0.0,0.0,0.0,0.0,0.0,0.0,0.0,0.0,0.0,0.0,0.0,0.0,0.0,0.0,0.0,0.0,0.0,0.0,0.0,0.0,0.0,0.0,0.0,0.0,2.2644,2.354,2.3329,2.3948,2.4076,0.0,0.0,0.0,0.0,0.0,0.0,0.0,0.0,0.0,2.8264,2.8833,2.9437,3.0106,3.1005,3.1661,3.2,3.2313,3.2554,3.2782,3.2782,3.2782,3.2756,3.2469,3.1315,2.9552,2.792,2.6615,2.5551,0.0,0.0,0.0,0.0,2.3184,2.2902,2.4116,2.4367,0.0,0.0,0.0,0.0,0.0,0.0,0.0,0.0,0.0,0.0,0.0,0.0,0.0,2.7784,2.807,2.8113,2.8094,2.7186,2.5787,0.0,2.3169,2.2831,2.2113,0.0,0.0,0.0,0.0,0.0,2.6444,2.7703,2.8729,2.9072,2.9301,2.9309,2.9117,2.8806,2.8546,2.83,2.744,2.6802,2.6434,2.528,2.4075,0.0,0.0,0.0,0.0,0.0,0.0,0.0,0.0,0.0,0.0,0.0,0.0,0.0,0.0,0.0,0.0,0.0,0.0,0.0,0.0,0.0,0.0,0.0,0.0,0.0,0.0,0.0,0.0,2.3984,2.4978,2.483,2.5993,2.6239,0.0,0.0,0.0,0.0,0.0,0.0,2.7327,2.8417,2.9615,3.0811,3.1357,3.1987,3.2685,3.3273,3.3796,3.4241,3.4241,3.445,3.4842,3.4842,3.4842,3.4816,3.4397,3.3901,3.3149,3.0293,2.8476,2.7284,2.5963,2.5378,2.5286,2.5331,2.5081,2.4991,2.6571,2.684,2.6378,2.5984,0.0,2.5123,2.37,0.0,0.0,0.0,0.0,2.534,2.7232,2.8101,2.8668,2.937,2.988,3.0036,2.9401,2.9218,2.8419,0.0,2.521,2.4705,2.3573,0.0,0.0,0.0,0.0,2.7586,2.7552,2.8573,2.9464,2.9874,3.0136,3.0188,2.9939,2.9607,2.9341,2.9195,2.8204,2.765,2.7662,2.6561,2.5251,0.0,0.0,0.0,0.0,0.0,0.0,0.0,0.0,0.0,0.0,0.0,0.0,0.0,0.0,0.0,0.0,0.0,0.0,0.0,0.0,0.0,0.0,0.0,0.0,0.0,0.0,0.0,0.0,0.0,0.0,2.626,2.7317,0.0,0.0,0.0,0.0,2.7652,2.9273,3.03,3.0477,3.1571,3.2558,3.3404,3.3927,3.4528,3.5129,3.5652,3.594,3.5966,3.5966,3.5992,3.6018,3.6018,3.6018,3.6018,3.5992,3.5678,3.4946,3.2052,3.073,3.0392,2.9428,2.9383,2.9764,2.8957,2.8443,2.8142,2.805,2.7638,2.7235,2.7778,2.7432,2.6713,2.6311,2.5707,0.0,0.0,2.6949,2.7457,2.9199,2.9879,3.0303,3.1094,3.1306,3.112,3.0393,3.0094,2.9411,0.0,2.7157,2.6982,2.6405,0.0,2.6061,2.6478,2.7265,2.8028,2.8718,2.9736,3.0497,3.0725,3.0745,3.077,3.0745,3.0778,3.0562,2.9979,2.9711,2.9284,2.8666,2.7477,2.6517,2.5857,2.396,0.0,0.0,0.0,0.0,0.0,0.0,0.0,0.0,0.0,0.0,0.0,0.0,0.0,0.0,0.0,0.0,0.0,0.0,0.0,0.0,0.0,0.0,0.0,0.0,0.0,0.0,0.0,0.0,2.9577,3.0415,0.0,0.0,3.0645,3.0778,3.0986,3.1922,3.2846,3.3636,3.4371,3.5096,3.5783,3.6698,3.7116,3.6985,3.79,3.8437,3.8599,3.8021,3.7861,3.7994,3.7497,3.7273,3.7246,3.6854,3.6567,3.6279,3.4868,3.3664,3.2612,3.1761,3.1411,3.1336,3.1013,3.0411,2.9841,3.051,3.0429,3.0033,3.0022,2.9382,2.8541,2.8281,2.8104,2.8136,2.876,2.9153,2.9667,3.0842,3.1073,3.1234,3.2265,3.1934,3.1416,3.1484,3.1198,3.0723,3.0061,2.8868,2.7804,2.7295,2.7585,2.7649,2.7004,2.8327,2.9386,2.9362,3.0292,3.1076,3.1479,3.1695,3.1748,3.1525,3.1334,3.1044,3.0626,2.9774,2.9457,2.9779,2.8259,2.7179,2.6657,2.5113,2.404,0.0,0.0,0.0,0.0,0.0,0.0,0.0,0.0,0.0,0.0,0.0,0.0,0.0,0.0,0.0,0.0,0.0,0.0,0.0,0.0,0.0,0.0,0.0,0.0,0.0,0.0,3.0699,3.1942,3.3092,3.3707,3.3388,3.3837,3.4136,3.4136,3.4868,3.5652,3.641,3.6985,3.7456,3.7874,3.8632,3.8817,3.8475,3.9233,3.9719,4.0005,3.9394,3.928,3.9511,3.9005,3.8648,3.8415,3.7903,3.7591,3.7359,3.6903,3.6125,3.5067,3.408,3.3454,3.3133,3.3068,3.2585,3.1991,3.2461,3.2347,3.1932,3.1514,3.0715,2.9911,2.9791,2.9831,3.0034,3.0523,3.0898,3.141,3.2354,3.2496,3.2632,3.3423,3.3068,3.2495,3.241,3.2173,3.1838,3.1405,3.0229,2.9266,2.8933,2.9349,2.9455,2.8625,2.9891,3.083,3.052,3.1266,3.196,3.2262,3.2478,3.2457,3.2059,3.163,3.1261,3.093,2.982,2.946,3.0068,2.8631,2.7521,2.6912,2.5473,2.4307,2.3456,0.0,0.0,0.0,0.0,0.0,0.0,0.0,0.0,0.0,0.0,0.0,0.0,0.0,0.0,0.0,0.0,0.0,0.0,0.0,0.0,0.0,0.0,0.0,2.8629,3.1141,3.3193,3.3158,3.5251,3.6207,3.4967,3.6206,3.709,3.709,3.8109,3.8736,3.8739,3.9311,3.9651,3.9651,3.9677,3.9677,3.9701,3.9701,3.9845,4.0108,4.0055,4.0198,4.0431,4.0431,4.0087,3.9531,3.925,3.879,3.8217,3.8018,3.7926,3.775,3.6382,3.5672,3.5427,3.5223,3.4976,3.4608,3.3834,3.3245,3.2766,3.2198,3.1525,3.091,3.091,3.091,3.1075,3.1787,3.2222,3.2698,3.3687,3.417,3.4479,3.4708,3.4728,3.4382,3.3134,3.3014,3.2775,3.1469,3.1368,3.1507,3.1411,3.1411,3.1411,3.1436,3.1913,0.0,3.224,3.2742,3.309,3.309,3.309,3.2842,3.229,3.1712,3.1261,3.0956,2.9932,2.942,2.95,2.8529,2.7578,2.6703,2.4967,2.3532,2.2472,0.0,0.0,0.0,0.0,0.0,0.0,0.0,0.0,0.0,0.0,0.0,0.0,0.0,0.0,0.0,0.0,0.0,0.0,0.0,0.0,0.0,0.0,3.1745,3.1413,3.3816,3.5758,3.6279,3.7559,3.8349,3.8277,3.8816,3.9078,3.8893,3.937,3.9735,3.9913,4.0267,4.0678,4.1123,4.1569,4.188,4.2052,4.2054,4.2204,4.2449,4.1373,4.1021,4.1257,4.0662,4.0301,4.0141,3.9859,3.9398,3.882,3.8568,3.8007,3.7292,3.7123,3.6739,3.6347,3.6275,3.5863,3.5234,3.4853,3.4499,3.4212,3.4437,3.4092,3.362,3.362,3.362,3.3648,3.3712,3.3881,3.4172,3.4699,3.4719,3.4835,3.573,3.5303,3.4705,3.476,3.4482,3.4151,3.3784,3.3731,3.3398,3.219,3.1989,3.2139,3.2562,3.2763,0.0,3.2842,3.3014,3.309,3.309,3.309,3.304,3.2864,3.2088,3.1559,0.0,2.9729,2.8966,2.9612,2.8164,2.6984,2.6203,2.5601,2.4778,0.0,0.0,0.0,0.0,0.0,0.0,0.0,0.0,0.0,0.0,0.0,0.0,0.0,0.0,0.0,0.0,0.0,0.0,0.0,0.0,0.0,0.0,3.3358,3.4702,3.5104,3.6355,3.7564,3.8334,3.9336,4.0058,4.0303,4.0758,4.1144,4.1235,4.1482,4.1688,4.1856,4.2034,4.2267,4.2611,4.2955,4.3217,4.3368,4.3369,4.3496,4.3773,4.2925,4.2653,4.2871,4.252,4.2088,0.0,4.1463,4.0908,4.0079,3.9591,3.9032,0.0,0.0,0.0,0.0,0.0,3.6344,3.5974,3.5787,3.5413,3.5104,3.5382,3.5132,3.4703,3.4703,3.4703,3.4731,3.4819,3.494,3.5157,3.559,3.5562,3.5579,3.623,3.5904,3.5429,3.5483,3.528,3.4979,3.4753,0.0,0.0,3.3724,3.3398,3.337,3.3721,3.3771,3.3771,3.3771,3.3771,3.3671,3.3467,3.3442,3.3241,3.2742,3.1934,0.0,0.0,0.0,2.863,2.8742,2.7459,0.0,0.0,0.0,2.5876,2.5463,0.0,0.0,0.0,2.3894,2.3715,0.0,0.0,0.0,0.0,0.0,0.0,0.0,0.0,0.0,0.0,0.0,0.0,0.0,0.0,0.0,0.0,3.6322,3.8458,3.9196,3.8956,3.8992,3.9769,4.0817,4.1523,4.153,4.2306,4.3012,4.3489,4.38,4.3927,4.3876,0.0,0.0,0.0,0.0,4.4086,4.4192,4.4139,4.4213,4.4443,4.4413,4.4487,4.4742,4.5016,4.4562,4.3551,4.342,4.2688,4.1547,4.0774,4.0363,4.0062,3.8075,3.7028,3.6624,3.6553,3.662,3.6662,3.6499,0.0,0.0,3.5583,3.528,3.4879,3.4879,3.4879,3.4979,3.5481,3.5583,3.5732,3.6256,3.6405,3.6405,3.6405,3.6405,3.6256,3.5732,3.5583,3.5458,3.4979,3.4879,3.5029,3.5531,3.5155,3.4803,3.4879,3.4828,3.4803,3.4803,3.4753,3.4477,3.3947,0.0,0.0,3.239,3.1647,3.1281,3.1486,2.9888,2.8525,2.7584,2.6928,2.6691,2.693,2.6774,2.6884,2.7302,2.7302,2.7325,2.7348,2.5857,2.5116,0.0,0.0,0.0,0.0,0.0,0.0,0.0,0.0,0.0,0.0,0.0,0.0,0.0,0.0,0.0,3.7324,3.8384,3.9801,4.2565,4.2049,4.1348,4.1302,4.2478,4.3244,4.3096,4.3611,4.3921,4.3825,4.4055,4.4132,4.3902,4.4106,0.0,4.4932,4.4932,4.5278,4.5999,4.5512,4.5321,4.5346,0.0,0.0,4.5041,4.5316,4.5302,4.5029,4.4092,4.3172,4.2226,4.1167,4.0208,3.9355,3.8712,3.828,3.7966,3.7515,3.7067,3.6686,3.6662,3.6471,3.623,3.623,3.6155,3.6055,3.6055,3.6055,0.0,3.6205,3.623,3.6256,3.638,3.6405,3.6405,3.6405,3.6405,3.638,3.6256,3.623,3.6205,3.608,3.6055,3.6105,3.6205,3.5755,3.5506,3.6004,3.568,3.5332,3.5332,3.4979,3.4477,3.3947,3.3897,3.3646,3.2989,3.2348,3.2001,3.2043,3.0653,2.9429,2.8471,2.8298,2.8259,2.8304,2.7916,2.7757,2.7849,2.7849,2.8035,2.8379,2.7279,2.6981,0.0,0.0,0.0,0.0,0.0,0.0,0.0,0.0,0.0,0.0,0.0,3.164,0.0,0.0,3.7206,3.9627,4.0974,4.2247,4.3839,4.407,4.3795,4.3073,4.3503,4.3931,4.4068,4.451,4.4825,4.4938,4.5224,4.5328,4.5198,4.5328,4.5592,4.6046,4.6046,4.6313,4.6873,4.6599,4.6435,4.6461,4.626,4.6199,4.6199,4.6477,4.6437,4.6106,4.5553,4.4859,4.4056,4.292,4.1646,4.046,4.0606,3.9743,3.8341,3.7954,3.7606,3.733,3.733,3.7131,3.6808,3.6808,3.6607,3.6405,3.6405,3.6405,3.6405,3.6405,3.6405,3.6405,3.6405,3.6405,3.6405,3.6405,3.6405,3.6405,3.6405,3.6405,3.6405,3.6405,3.6405,3.6405,3.6405,3.6155,3.6031,3.6331,3.6155,3.5956,3.5956,3.5705,3.5328,3.4753,3.4452,3.4098,3.3567,3.2968,3.2331,3.1547,3.0873,3.0061,2.9096,2.8819,2.883,2.911,2.8853,2.8861,2.9091,2.9091,2.9228,2.9435,2.8931,2.8586,0.0,0.0,0.0,0.0,0.0,0.0,0.0,0.0,3.0826,3.2455,3.3212,3.4294,3.6587,3.8553,4.0238,4.1536,4.3449,4.4769,4.4753,4.5676,4.6048,4.5234,4.4766,4.4695,4.5232,4.56,4.6001,4.6488,4.6887,4.7045,4.6914,4.7045,4.7096,4.7091,4.7143,4.7273,4.7453,4.7395,4.7503,4.7751,4.7553,4.7472,4.7559,4.7703,4.7524,4.705,4.6759,4.6217,4.5508,4.4406,4.3123,4.1905,4.217,4.0846,3.8788,3.8562,3.8288,3.8089,3.8089,3.7762,3.7361,3.7361,3.706,3.6708,3.6708,3.6708,3.6708,3.6708,3.6708,3.6708,3.6708,3.6708,3.6683,3.6582,3.6556,3.6531,3.643,3.6405,3.6405,3.6405,3.6405,3.6405,3.6405,3.6405,3.6405,3.6405,3.6405,3.6405,3.6405,3.6405,3.618,3.5558,3.5107,3.4628,3.4098,3.3545,3.2693,3.1353,3.111,3.068,2.9886,2.9389,2.9337,2.9775,2.9775,2.9915,3.0193,3.0193,3.0193,3.0193,3.0193,2.978,2.9773,2.8814,0.0,3.0513,3.1079,3.1763,0.0,0.0,3.5438,3.6176,3.731,3.8373,3.9118,4.1336,4.3215,4.3626,4.5036,4.6324,4.7017,4.7343,4.7677,4.8074,4.7192,4.6798,4.7397,4.7717,4.8017,4.8353,4.8916,4.8996,4.8461,4.8943,4.8801,4.7721,4.7931,4.8062,4.8113,4.7823,4.823,4.9341,4.8432,4.8182,4.8454,4.8154,4.8002,4.7892,4.6623,4.5614,4.4761,4.3839,4.3093,4.2434,4.1706,4.0969,4.026,4.0169,3.9357,3.836,3.836,3.8162,3.7914,3.7914,3.7864,3.7814,3.7814,3.7814,3.7814,3.7814,3.7814,3.7814,3.7814,3.7814,3.7688,3.7235,3.711,3.6984,3.6482,3.6405,3.6405,3.6405,3.6405,3.6405,3.6405,3.6405,3.6405,3.6405,3.6405,3.6405,3.6405,3.6405,3.618,3.5558,3.5433,3.5182,3.4653,3.4123,3.357,3.298,3.2103,3.1575,3.1436,3.0928,3.0684,3.0755,3.0755,3.0554,3.0193,3.0193,3.0193,3.0193,3.0193,3.0124,3.2167,0.0,0.0,0.0,3.381,3.4679,3.6191,3.6937,3.766,3.9044,3.9878,4.0798,4.2267,4.3386,4.4352,0.0,4.6634,4.7644,4.7882,4.8213,4.8353,4.8089,4.7787,4.7854,4.8481,4.883,4.9074,4.9217,4.9298,4.9351,4.9458,4.9378,4.9159,4.8802,4.9251,4.9303,4.8961,4.861,4.866,4.9006,4.8091,4.7953,4.8592,4.8287,4.815,4.8124,4.7692,4.6797,4.5662,4.5315,4.4318,4.3045,4.2828,4.1837,4.044,4.0134,3.9652,3.9146,3.9146,3.8894,3.8542,3.8542,3.8291,3.8015,3.8015,3.8015,3.8015,3.8015,3.8015,3.8015,3.8015,3.8015,3.7939,3.7713,3.7663,3.7588,3.7386,3.7336,3.7261,3.6934,3.6859,3.6758,3.6431,3.6405,3.6405,3.6405,3.6405,3.6405,3.6405,3.6405,3.618,3.5558,3.5508,3.5282,3.4753,3.4207,3.381,3.3629,3.2683,3.2176,3.2176,3.1646,3.1391,3.1414,3.1414,3.1298,3.1065,3.1111,3.1135,3.1135,3.1088,3.1088,3.4009,0.0,0.0,3.4949,3.6219,3.7375,3.82,3.8966,3.9952,4.1443,4.2044,4.2759,4.4344,4.4908,0.0,4.6477,4.7839,4.8706,4.8534,4.8876,4.8857,4.8139,4.8128,4.8474,4.9122,4.9479,4.9836,5.0198,5.0066,5.0092,5.036,5.02,4.9955,4.9653,5.0104,5.0212,4.9788,4.941,4.94,4.9713,4.8395,4.8206,4.8973,4.8324,4.8029,4.7951,4.8159,4.7634,4.6652,4.6459,4.5502,4.4105,4.3954,4.2705,4.09,4.0414,4.0029,3.9697,3.9697,3.9446,3.912,3.912,3.8843,3.8467,3.8467,3.8467,3.8467,3.8467,3.8467,3.8467,3.8467,3.8467,3.8442,3.8291,3.8241,3.8191,3.804,3.8015,3.7889,3.7487,3.7412,3.7311,3.6909,3.6833,3.6833,3.6833,3.6833,3.6733,3.6455,3.6405,3.623,3.5782,3.5757,3.5581,3.5203,3.4661,3.4333,3.4333,3.3308,3.2676,3.2676,3.2206,3.1897,3.1801,3.1921,3.1897,3.1707,3.1754,3.1778,3.1801,3.1754,3.1754,0.0,0.0,3.4401,3.6107,3.7974,3.9547,4.0187,4.1637,4.2961,4.3347,4.3991,4.451,4.4494,4.5846,4.7004,4.7246,4.8455,4.9362,4.9365,4.9444,4.9319,4.8892,4.8631,4.8739,0.0,4.9673,5.0385,5.1646,5.1948,5.1895,5.1403,5.2139,5.1802,5.0049,5.0239,5.0428,5.0455,5.0082,5.0761,5.2539,5.011,4.9314,4.993,4.8413,4.7547,4.7343,4.7343,4.7315,4.7232,4.6652,4.6197,4.5803,4.4625,4.3343,4.2134,4.1775,4.0824,3.9697,3.9697,3.9697,3.9672,3.9672,3.9647,3.9647,3.9647,3.9647,3.9647,3.9647,3.9647,3.9647,3.9647,3.9647,3.9521,3.8994,3.8869,3.8718,3.814,3.8015,3.799,3.799,3.799,3.7965,3.7965,3.7965,3.7965,3.7965,3.7965,3.7563,3.6532,3.6405,3.6405,3.638,3.638,3.638,3.6355,3.5807,3.546,3.546,3.4013,3.3189,3.3189,3.2723,3.2253,3.1825,3.2253,3.2229,3.1707,3.1707,3.1754,3.1801,3.1801,3.1801,0.0,0.0,3.8298,3.9872,4.1283,4.2489,4.3269,4.3738,4.4116,4.4593,4.4031,4.3556,4.378,4.4419,4.5214,4.6268,4.8103,4.9558,4.9983,5.0434,5.0034,4.8265,4.8304,0.0,0.0,0.0,0.0,5.1408,5.1914,5.2222,5.225,5.2168,5.1838,5.1206,5.1829,5.1857,5.1097,5.0913,5.0989,5.1224,5.0176,4.9464,4.9137,4.919,4.8748,4.7895,4.7895,4.7778,4.7545,4.7144,4.671,4.622,4.563,4.4565,4.3249,4.2735,4.2034,4.1254,4.0481,4.0249,4.0174,3.9823,3.9948,4.0174,3.9798,3.9697,3.9697,3.9697,3.9697,3.9697,3.9697,3.9697,3.9647,3.9471,3.9446,3.9396,3.917,3.912,3.9019,3.8668,3.8592,3.8492,3.8065,3.8015,3.8015,3.8015,3.8015,3.7864,3.7513,3.7462,3.7336,3.6959,3.6934,3.6783,3.643,3.59,3.5397,3.5063,3.4198,3.3572,3.328,3.3132,3.2961,3.2789,3.2961,3.2936,3.2764,3.2764,3.2764,3.2789,3.2789,3.2789,3.8162,3.9531,4.0793,4.2406,4.3671,4.4655,4.5133,4.5221,4.528,4.5405,4.4145,4.3101,4.3251,4.3003,4.3424,4.5336,4.7119,4.8767,5.013,5.0311,4.9776,4.8361,4.8109,0.0,0.0,0.0,0.0,5.1229,5.1576,5.2027,5.2669,5.2227,5.2008,5.2096,5.2363,5.2114,5.1376,5.1231,5.0896,5.0321,5.0321,4.9799,4.8869,4.9524,4.9356,4.8503,4.8387,4.8213,4.8007,4.7604,4.722,4.6832,4.6434,4.552,4.4298,4.365,4.2918,4.2052,4.1113,4.0775,4.0725,4.0374,4.0499,4.0675,4.0149,3.9998,3.9998,3.9998,3.9998,4.0023,4.0224,4.0149,3.9998,3.9998,3.9848,3.9697,3.9697,3.9697,3.9571,3.9118,3.9119,3.9019,3.8542,3.8517,3.8617,3.8617,3.8617,3.8467,3.8065,3.8015,3.7864,3.7513,3.7487,3.7361,3.7009,3.6478,3.5942,3.5405,3.467,3.4054,3.3568,3.3394,3.3317,3.3317,3.3317,3.3317,3.3317,3.3478,3.3453,3.3317,3.366,3.3729,4.0625,4.1583,4.2034,4.3695,4.509,4.5997,4.5744,4.613,4.6322,4.5703,4.4248,4.3031,0.0,0.0,4.1902,4.451,4.5809,4.7351,4.9932,4.9376,4.8852,0.0,0.0,0.0,0.0,0.0,0.0,5.1258,0.0,5.1477,5.263,5.2427,5.2426,5.2686,5.1904,5.1459,5.1404,5.11,5.063,5.0022,5.062,5.0286,4.9138,4.9379,4.9352,4.9082,4.8767,4.8621,4.8566,4.7979,4.7754,4.7699,4.7086,4.6228,4.5199,4.4572,4.3466,4.2233,4.1646,4.1404,4.1352,4.1327,4.1327,4.1252,4.07,4.0524,4.0524,4.0524,4.0524,4.065,4.1177,4.0901,4.0499,4.0524,4.0149,3.9747,3.9772,3.9772,3.9695,3.9461,3.9566,3.9619,3.9386,3.9516,3.9671,3.9671,3.9697,3.9295,3.8241,3.809,3.809,3.804,3.804,3.804,3.8015,3.7518,3.7022,3.6481,3.5467,3.4653,3.4085,3.3613,3.3386,3.3386,3.3386,3.3386,3.3386,3.3821,3.3798,3.3409,3.4349,3.4532,4.2322,4.3908,4.5164,4.5609,4.6335,4.6962,4.6889,4.6188,4.5419,4.5025,4.2786,4.0603,0.0,0.0,0.0,4.393,4.6647,0.0,5.107,5.1509,0.0,0.0,0.0,4.9501,4.9272,4.9799,0.0,0.0,5.1914,5.2117,5.2658,5.3107,5.3135,5.2714,5.274,5.2738,5.2711,5.1957,5.1155,5.038,5.0519,5.0299,4.9774,4.9365,4.9145,4.9083,4.8811,4.8782,4.8941,4.8541,4.8499,4.8623,4.8007,4.7246,4.6447,4.6236,4.513,4.3737,4.3576,4.2858,4.1909,4.1453,4.1605,4.1858,4.1277,4.1102,4.1102,4.1102,4.1102,4.1127,4.125,4.0901,4.06,4.1001,4.0675,4.0425,4.08,4.0901,4.0874,4.0821,4.0364,3.9984,3.9905,3.961,3.9388,3.9388,3.9568,3.9597,3.9295,3.927,3.9094,3.8718,3.8668,3.8492,3.804,3.7866,3.7568,3.7047,3.6371,3.5766,3.5217,3.4704,3.4418,3.4418,3.4418,3.4418,3.4418,3.4532,3.4532,3.4418,3.467,3.4739,4.4625,4.6091,4.7189,4.7189,4.7459,4.7429,4.6262,4.5522,4.4663,4.3016,4.1241,0.0,0.0,0.0,0.0,0.0,0.0,0.0,5.1337,5.1917,5.1841,0.0,5.1266,0.0,5.0349,5.0954,5.1693,0.0,5.2564,5.2905,5.3501,5.3754,5.3895,5.3922,5.3329,5.2657,5.2017,5.1736,5.1238,5.0515,5.0794,5.0796,5.0601,5.0381,5.0298,5.0264,0.0,4.974,4.9845,4.9391,4.9218,4.9137,4.8409,4.7851,4.7375,4.6517,4.5728,4.5008,4.4591,4.3911,4.3112,4.2308,4.2258,4.2436,4.1856,4.1681,4.1681,4.1681,4.1681,4.1756,4.198,4.1656,4.1304,4.163,4.1252,4.0926,4.1252,4.1302,4.1302,4.1302,4.0837,4.0479,4.0611,4.0388,4.0088,3.9865,3.9944,3.9921,3.9567,3.9645,3.9572,3.9296,3.9245,3.9018,3.8414,3.8161,3.7681,3.6901,3.6335,3.5775,3.5279,3.4967,3.4808,3.4808,3.4808,3.4808,3.4808,3.5014,3.5014,3.4808,3.5244,3.5336,4.704,4.7967,4.8409,4.8319,4.8185,4.7423,4.5005,4.4471,4.3642,4.0712,0.0,3.8889,3.6918,0.0,3.9625,4.1705,0.0,4.7372,5.1399,5.1644,5.1909,5.3185,5.3077,5.2515,5.1526,5.2429,5.3078,5.3106,5.344,5.3922,5.4569,5.446,5.4686,5.548,5.3865,5.2323,5.0876,5.1238,5.1128,5.0599,5.11,5.1349,5.1432,5.1568,5.1677,5.1649,0.0,0.0,5.0863,5.0326,4.9941,4.9594,4.8788,4.8328,4.8001,4.6477,4.5938,4.5825,4.5052,4.4705,4.4439,4.3514,4.3187,4.3115,4.2562,4.2411,4.2386,4.2338,4.2313,4.2411,4.2889,4.2587,4.2238,4.2389,4.1907,4.1453,4.1603,4.1578,4.1553,4.1628,4.1287,4.1078,4.132,4.1272,4.1071,4.0569,4.052,4.0292,3.9583,3.9591,3.9645,3.9594,3.9594,3.9336,3.8788,3.8342,3.7649,3.667,3.6064,3.5534,3.512,3.5044,3.4992,3.4992,3.4992,3.4992,3.4992,3.5405,3.5405,3.5014,3.596,3.614,4.8558,4.9037,4.8977,4.8438,4.7584,4.662,4.5588,4.3553,0.0,0.0,0.0,3.6976,3.6043,3.7679,0.0,4.3351,0.0,0.0,0.0,0.0,5.2506,0.0,0.0,0.0,0.0,0.0,0.0,0.0,0.0,5.5481,5.4625,5.5279,5.5623,5.548,5.4905,5.3997,5.2767,5.2258,5.1732,5.1155,5.1045,5.1155,5.1404,5.1155,5.1072,5.1072,0.0,0.0,5.0878,5.0784,5.0719,5.0583,4.9945,4.9083,4.8192,4.811,4.7036,4.5679,4.5657,4.5199,4.4564,4.4364,4.4313,4.4213,4.3689,4.3514,4.3413,4.2989,4.2864,4.2889,4.2989,4.2587,4.2411,4.3288,4.2788,4.2286,4.3187,4.3011,4.2836,4.3288,4.2385,4.1569,4.1624,4.1278,4.0873,4.0555,4.0693,4.0778,4.0651,3.9882,3.9258,3.8998,3.8945,3.8815,3.85,3.8394,3.8161,3.7748,3.7163,3.6794,3.6701,3.6295,3.6052,3.6052,3.6052,3.6052,3.6052,3.6121,3.6121,3.6052,3.6622,3.6824,4.9426,4.9849,4.9763,4.9,4.7956,4.643,4.3857,0.0,0.0,0.0,0.0,3.5809,3.4939,0.0,0.0,0.0,0.0,0.0,0.0,0.0,0.0,0.0,0.0,0.0,0.0,0.0,0.0,0.0,0.0,0.0,5.5565,5.6137,5.6023,5.5079,5.5152,5.419,5.2016,5.1982,5.1541,5.0628,5.0683,5.0767,5.0961,5.11,5.1072,5.0934,5.1238,0.0,5.1155,5.1179,5.1067,5.0847,5.0405,4.9776,4.9086,4.8753,4.788,4.6875,4.6647,4.609,4.5468,4.5468,4.5066,4.4539,4.4288,4.4242,4.4166,4.3915,4.3639,4.3413,4.3413,4.3014,4.2738,4.3237,4.2849,4.254,4.3234,4.305,4.2865,4.3285,4.2824,4.2391,4.2391,4.2166,4.1836,4.1452,4.1484,4.1411,4.095,4.0452,3.9996,3.9677,3.9669,3.9259,3.8222,3.8169,3.7868,3.7147,3.6823,3.6661,3.6661,3.644,3.6305,3.6305,3.6305,3.6305,3.6305,3.6553,3.6668,3.6691,3.7196,3.7425,4.9641,5.0253,5.039,4.9241,4.811,4.6196,4.21,4.0159,0.0,0.0,3.5013,3.4975,3.4348,0.0,0.0,0.0,0.0,0.0,0.0,0.0,0.0,0.0,0.0,0.0,0.0,0.0,0.0,0.0,0.0,0.0,5.6509,5.6766,5.6362,5.5217,5.5343,5.4242,5.1905,5.19,5.1403,5.0488,5.0543,5.0571,5.0599,5.1072,5.1128,5.0823,5.1211,0.0,0.0,5.1431,5.1349,5.1072,5.0739,5.0348,4.9897,4.893,4.8294,4.7824,4.7205,4.6695,4.6301,4.6301,4.5668,4.4941,4.4815,4.4765,4.4794,4.464,4.4317,4.3966,4.3966,4.3664,4.3338,4.3338,4.3244,4.3202,4.3485,4.3215,4.3052,4.3375,4.3228,4.305,4.2994,4.2922,4.2724,4.2135,4.2141,4.1905,4.1197,4.1117,4.0976,4.071,4.0582,3.9878,3.828,3.82,3.7773,3.6681,3.6626,3.6626,3.6626,3.6626,3.6626,3.6626,3.6626,3.6626,3.6626,3.6989,3.7168,3.7168,3.7724,3.7953,4.891,4.9964,5.0619,4.8477,4.7036,4.5296,4.2111,0.0,0.0,3.5542,3.4662,3.4294,3.5119,0.0,0.0,0.0,0.0,4.4687,0.0,0.0,0.0,0.0,0.0,0.0,0.0,0.0,0.0,0.0,0.0,0.0,5.688,5.688,5.6964,5.7045,5.5998,5.5277,5.4969,5.3115,5.2113,5.1977,5.1238,5.085,5.0878,5.0934,5.0822,5.0571,0.0,0.0,0.0,5.1541,5.1732,5.1677,5.1404,5.0767,4.9897,4.893,4.8032,4.7205,4.6601,4.6331,4.6301,4.6301,4.625,4.605,4.5547,4.5422,4.5296,4.474,4.4564,4.4514,4.4514,4.4489,4.4439,4.4439,4.484,4.5217,4.5246,4.4815,4.4473,4.4763,4.4037,4.3279,4.2938,4.269,4.2344,4.1732,4.1927,4.2042,4.1827,4.1813,4.1747,4.1595,4.0922,4.0092,3.9074,3.8999,3.8614,3.774,3.7655,3.7655,3.7655,3.7655,3.7655,3.7655,3.7655,3.7655,3.7655,3.7701,3.7724,3.7724,3.8275,3.8533,4.8212,4.9272,4.9446,4.7959,4.6344,4.4268,4.0855,0.0,3.6351,3.4512,3.3808,3.3762,3.4552,3.5069,0.0,0.0,3.9402,0.0,0.0,0.0,0.0,0.0,0.0,0.0,0.0,0.0,0.0,0.0,0.0,0.0,5.7134,5.7134,5.6932,5.6472,5.5467,5.4476,5.3525,5.2126,5.1238,5.0878,5.0516,5.0376,5.0376,5.0739,5.0739,5.0543,0.0,0.0,0.0,5.1238,5.1266,5.1293,5.1541,5.1183,5.046,4.97,4.91,4.8466,4.7497,4.69,4.6596,4.6596,4.6451,4.6276,4.605,4.5974,4.5924,4.5698,4.5397,4.5146,4.5146,4.4895,4.4589,4.4589,4.4673,4.4736,4.4911,4.4648,4.4432,4.4715,4.4415,4.4086,4.397,4.3829,4.3679,4.3449,4.3233,4.3109,4.3049,4.2749,4.2516,4.2383,4.1479,4.0438,3.9324,3.8963,3.8503,3.7849,3.7793,3.7793,3.7793,3.7793,3.7793,3.7793,3.7793,3.7793,3.7793,3.8114,3.8275,3.8275,3.878,3.917,4.6792,4.7971,4.8305,4.7224,4.5568,4.3349,0.0,0.0,3.5955,3.3838,3.3486,3.3743,3.4222,3.4705,3.5332,3.6409,3.7577,3.9455,4.2552,0.0,0.0,0.0,0.0,0.0,0.0,0.0,0.0,0.0,0.0,0.0,0.0,5.7162,5.6875,5.6246,5.5334,5.4316,5.3107,5.21,5.1236,5.0536,5.0366,5.0173,5.001,5.0544,5.0683,5.0543,0.0,0.0,0.0,5.1211,5.1183,5.1211,5.1541,5.1348,5.0823,5.0038,4.9501,4.9072,4.785,4.7168,4.6776,4.6686,4.6506,4.6301,4.6301,4.6301,4.6301,4.6301,4.6024,4.5723,4.5723,4.5422,4.5091,4.5091,4.4969,4.4881,4.5062,4.4944,4.4852,4.4944,4.4849,4.4694,4.4606,4.454,4.4444,4.4357,4.409,4.384,4.3668,4.3291,4.2979,4.2734,4.183,4.0928,4.0072,3.9412,3.8899,3.8516,3.8321,3.8229,3.8229,3.8229,3.8229,3.8229,3.8229,3.8229,3.8229,3.8619,3.8872,3.9062,3.9377,3.979,4.4319,4.6076,4.7518,4.6231,4.4602,4.2586,0.0,0.0,3.5145,3.3854,3.3963,3.4346,3.4563,3.575,3.6752,3.6959,3.7858,3.9718,4.3214,0.0,0.0,0.0,0.0,0.0,0.0,0.0,0.0,0.0,0.0,0.0,0.0,5.6908,5.6908,5.6908,5.5964,5.531,5.4998,5.378,5.271,5.1762,5.1165,5.058,5.001,5.0347,5.0515,0.0,0.0,0.0,0.0,5.1706,5.1787,5.1759,5.1514,5.1211,5.0767,4.9558,4.8899,4.8434,4.7227,4.6806,4.6746,4.6391,4.6301,4.6301,4.6301,4.6301,4.6301,4.6301,4.6301,4.6301,4.6301,4.6301,4.6301,4.6301,4.6301,4.6301,4.6301,4.6301,4.618,4.5853,4.537,4.4908,4.456,4.4348,4.409,4.3772,4.3977,4.3973,4.3276,4.3216,4.3024,4.2541,4.2019,4.169,4.166,4.0751,4.0141,4.0087,3.9561,3.9285,3.9285,3.9285,3.9285,3.9285,3.9285,3.9285,3.9285,3.9285,3.959,4.0073,4.0073,4.0349,4.1703,4.3316,4.4283,4.268,4.1463,4.0117,3.7922,0.0,3.5068,3.3557,3.3822,3.4171,3.3843,3.4941,3.6273,3.7493,3.8624,4.0027,0.0,0.0,0.0,0.0,0.0,0.0,0.0,0.0,0.0,0.0,0.0,0.0,0.0,5.668,5.648,5.6279,5.5366,5.474,5.4396,5.2962,5.2011,5.1506,5.0923,5.0425,5.001,5.0516,0.0,0.0,0.0,0.0,0.0,5.1486,5.1651,5.1759,5.1238,5.085,5.0377,4.8957,4.8495,4.8463,4.7438,4.7083,4.7053,4.6964,4.6636,4.6301,4.6301,4.6301,4.6301,4.6301,4.6301,4.6301,4.6301,4.6301,4.6301,4.6301,4.6301,4.6301,4.6301,4.6301,4.6271,4.615,4.5995,4.587,4.5755,4.569,4.5595,4.5505,4.524,4.5015,4.4783,4.4048,4.346,4.3214,4.2293,4.1672,4.1646,4.0983,4.0592,4.0571,4.0433,4.0341,4.0341,4.0341,4.0341,4.0341,4.0341,4.0341,4.0341,4.0341,4.041,4.0594,4.0969,4.1015,0.0,4.1163,4.1796,4.0843,3.9808,0.0,0.0,0.0,3.4678,3.338,3.3499,3.3711,3.3356,3.4561,3.5967,3.7001,0.0,0.0,0.0,0.0,0.0,0.0,0.0,0.0,0.0,0.0,0.0,0.0,0.0,0.0,0.0,5.6365,5.6106,5.5816,5.5362,5.4963,5.4644,5.3236,5.2312,5.192,5.106,5.0424,5.001,5.0516,0.0,0.0,0.0,0.0,0.0,5.1514,5.1651,5.1759,5.1266,5.1045,5.0739,4.9074,4.8755,4.8926,4.7527,4.7142,4.7176,4.6934,4.6606,4.6301,4.6301,4.6301,4.6301,4.6301,4.6301,4.6301,4.6301,4.6301,4.6301,4.6301,4.6301,4.6301,4.6301,4.6301,4.6301,4.6301,4.6301,4.6301,4.6301,4.6301,4.6301,4.6301,4.6024,4.5723,4.5552,4.4817,4.4156,4.3572,4.2823,4.2237,4.1873,4.1214,4.0915,4.1099,4.0915,4.0793,4.0793,4.0793,4.0793,4.0793,4.0793,4.0793,4.0793,4.1007,4.1099,4.1122,4.1627,4.1696,0.0,3.925,3.9885,4.0172,3.9112,3.7779,0.0,0.0,0.0,3.3315,3.3134,3.3125,3.3106,3.4599,3.5859,0.0,0.0,0.0,0.0,0.0,0.0,0.0,0.0,0.0,0.0,0.0,0.0,0.0,0.0,0.0,0.0,5.6019,5.5903,5.5554,5.5787,5.5787,5.5467,5.4296,5.3395,5.2757,5.1521,5.0608,5.0038,5.0347,0.0,0.0,0.0,0.0,0.0,5.1706,5.1787,5.1759,5.1431,5.1459,5.1431,4.9643,4.9385,4.9556,4.7552,4.7078,4.7205,4.6631,4.6391,4.6361,4.6361,4.6331,4.6301,4.6301,4.6301,4.6301,4.6301,4.6301,4.6301,4.6301,4.6301,4.6301,4.6301,4.6301,4.6301,4.6301,4.6301,4.6301,4.6301,4.6301,4.6301,4.6301,4.6301,4.6095,4.5563,4.5459,4.4928,4.3638,4.3455,4.3094,4.2356,4.1435,4.1122,4.1635,4.1191,4.0907,4.0907,4.0907,4.0907,4.0907,4.0907,4.0907,4.0907,4.1397,4.1658,4.1658,4.2078,4.2307,3.4443,0.0,3.6982,3.6699,3.6442,3.6212,0.0,0.0,0.0,0.0,0.0,3.3459,3.3144,3.4713,0.0,0.0,0.0,0.0,0.0,0.0,0.0,0.0,0.0,0.0,0.0,0.0,0.0,0.0,0.0,0.0,0.0,5.6193,5.6193,5.5903,5.57,5.5467,5.5114,5.4384,5.3453,5.241,5.1636,5.0976,5.0375,5.0459,0.0,0.0,0.0,0.0,5.1404,5.1706,5.1787,5.1705,5.0711,5.0235,4.9898,4.8524,4.8117,4.8146,4.7674,4.785,4.8204,4.7795,4.7353,4.6968,4.6968,4.6665,4.6301,4.6301,4.6301,4.6301,4.6301,4.6301,4.6301,4.6301,4.6301,4.6301,4.6301,4.6301,4.6301,4.6301,4.6301,4.6301,4.6301,4.6301,4.6301,4.6301,4.6301,4.607,4.5437,4.4896,4.4284,4.3449,4.2888,4.2517,4.2339,4.2078,4.2009,4.2123,4.2009,4.1963,4.1963,4.1963,4.1963,4.1963,4.1963,4.1963,4.1963,4.2055,4.2123,4.2123,4.2261,4.2307,3.2691,3.4115,3.541,3.509,3.5439,3.5722,3.5031,0.0,0.0,0.0,0.0,0.0,3.3089,0.0,0.0,0.0,0.0,0.0,0.0,0.0,0.0,0.0,0.0,0.0,0.0,0.0,0.0,0.0,0.0,0.0,0.0,5.599,5.6048,5.6193,5.5874,5.5501,5.5045,5.385,5.2865,5.2113,5.1367,5.0816,5.0515,5.0515,5.0571,0.0,0.0,0.0,5.1211,5.1514,5.1706,5.1732,5.0961,5.06,5.0404,4.9215,4.8928,4.91,4.8524,4.835,4.8292,4.7854,4.7471,4.7176,4.7053,4.678,4.6536,4.6536,4.6416,4.6301,4.6301,4.6301,4.6301,4.6301,4.6301,4.6301,4.6301,4.6301,4.6301,4.6301,4.6301,4.6301,4.6301,4.6301,4.621,4.5883,4.5823,4.5611,4.4945,4.4515,4.4051,4.3389,4.298,4.2633,4.2339,4.2307,4.2307,4.2307,4.2307,4.2307,4.2307,4.2307,4.2307,4.2307,4.2307,4.2307,4.2307,4.2307,4.2307,4.2307,4.2307,4.2307,3.2071,3.3459,3.4696,3.4437,3.5147,3.5549,0.0,0.0,0.0,0.0,0.0,0.0,0.0,0.0,0.0,0.0,0.0,0.0,0.0,0.0,0.0,0.0,0.0,0.0,0.0,0.0,0.0,0.0,0.0,0.0,0.0,5.5729,5.5845,5.6451,5.6106,5.5564,5.4885,5.3348,5.239,5.1955,5.1149,5.0762,5.0792,5.0708,5.0736,0.0,0.0,0.0,5.0989,5.1266,5.1569,5.1759,5.1404,5.1376,5.1403,5.0376,5.0207,5.0348,4.9415,4.8669,4.8029,4.756,4.7353,4.7205,4.6959,4.6836,4.6806,4.6806,4.6566,4.6301,4.6301,4.6301,4.6301,4.6301,4.6301,4.6301,4.6301,4.6301,4.6301,4.6301,4.6301,4.6301,4.6301,4.621,4.5944,4.5373,4.5294,4.5012,4.4237,4.4216,4.4015,4.3349,4.3216,4.2964,4.2454,4.2353,4.2307,4.2307,4.2307,4.2307,4.2307,4.2307,4.2307,4.2307,4.2307,4.2307,4.2307,4.2307,4.2307,4.2307,4.2307,4.2307,3.2436,3.3555,3.4437,3.3868,3.4386,0.0,0.0,0.0,0.0,0.0,0.0,0.0,0.0,0.0,0.0,0.0,0.0,0.0,0.0,0.0,0.0,0.0,0.0,0.0,0.0,0.0,0.0,0.0,0.0,0.0,0.0,0.0,5.6193,5.6794,5.6019,5.5021,5.3923,5.3832,5.3287,5.2244,5.2077,5.2033,5.2016,5.1736,5.1764,0.0,0.0,5.1294,5.1321,5.1377,5.1569,5.1732,5.0934,5.0488,5.0263,5.0066,4.9413,4.8666,4.8986,4.8724,4.8201,4.8347,4.8029,4.756,4.7235,4.6964,4.6806,4.6806,4.6566,4.6301,4.6301,4.6301,4.6301,4.6301,4.6301,4.6301,4.6301,4.6301,4.6301,4.6301,4.6301,4.6301,4.6301,4.5823,4.5403,4.5312,4.5205,4.4702,4.3592,4.386,4.3865,4.3184,4.2719,4.2595,4.2936,4.2559,4.2307,4.2307,4.2307,4.2307,4.2307,4.2307,4.2307,4.2307,4.2307,4.2307,4.2307,4.2307,4.2307,4.2307,4.2307,4.2307,3.197,3.3003,3.387,3.3699,0.0,0.0,0.0,0.0,0.0,0.0,0.0,0.0,0.0,0.0,0.0,0.0,0.0,0.0,0.0,0.0,0.0,0.0,0.0,0.0,0.0,0.0,0.0,0.0,0.0,0.0,0.0,0.0,5.6193,5.6623,5.5765,5.4993,5.4394,5.3742,5.2868,5.1801,5.1946,5.2122,5.2296,5.2155,5.1877,5.1544,0.0,5.1045,5.0906,5.1072,5.1321,5.1514,5.0767,5.0488,5.0488,5.0488,5.0348,5.0096,4.9727,4.9413,4.907,4.8347,4.7938,4.7615,4.7112,4.69,4.6776,4.6596,4.6421,4.6301,4.6301,4.6301,4.6301,4.6301,4.6301,4.6301,4.6301,4.6301,4.6301,4.6301,4.6301,4.6301,4.6301,4.6279,4.6049,4.5392,4.5435,4.5103,4.3891,4.3852,4.3729,4.3152,4.289,4.2697,4.2683,4.2445,4.2307,4.2307,4.2307,4.2307,4.2307,4.2307,4.2307,4.2307,4.2307,4.2307,4.2307,4.2307,4.2307,4.2307,4.2307,4.2307,3.2008,3.2894,3.3704,0.0,0.0,0.0,0.0,0.0,0.0,0.0,0.0,0.0,0.0,0.0,0.0,0.0,0.0,0.0,0.0,0.0,0.0,0.0,0.0,0.0,0.0,0.0,0.0,0.0,0.0,0.0,0.0,0.0,5.6019,5.6308,5.5594,5.502,5.4686,5.3565,5.2614,5.1801,5.1866,5.2095,5.2378,5.2323,5.1849,5.1099,5.11,5.0906,5.0599,5.0906,5.1183,5.1349,5.0906,5.0878,5.1072,5.0795,5.0989,5.1238,5.0151,4.9698,4.9385,4.8088,4.7703,4.7615,4.7078,4.6866,4.6776,4.6571,4.6522,4.6446,4.6351,4.6301,4.6301,4.6301,4.6301,4.6301,4.6301,4.6301,4.6301,4.6301,4.6396,4.6502,4.6502,4.6678,4.6508,4.557,4.5516,4.5243,4.4176,4.3998,4.3854,4.3487,4.3234,4.289,4.2353,4.2307,4.2307,4.2307,4.2307,4.2307,4.2307,4.2307,4.2307,4.2307,4.2307,4.2307,4.2307,4.2307,4.2307,4.2307,4.2307,4.2307,3.3397,3.408,3.4499,3.4901,0.0,0.0,0.0,0.0,0.0,0.0,0.0,0.0,0.0,0.0,0.0,0.0,0.0,0.0,0.0,0.0,0.0,0.0,0.0,0.0,0.0,0.0,0.0,0.0,0.0,0.0,0.0,0.0,0.0,5.6019,5.5672,5.4896,5.3697,5.3615,5.3384,5.3063,5.2515,5.2415,5.2647,5.2405,5.2099,5.1735,5.1737,5.1403,5.0906,5.1238,5.1377,5.1404,5.1349,5.1514,5.1595,5.0488,5.0095,5.0038,4.9412,4.8808,4.826,4.785,4.7703,4.7619,4.7265,4.6993,4.6866,4.7083,4.7106,4.6923,4.6451,4.6301,4.6301,4.6301,4.6301,4.6301,4.6301,4.6301,4.6301,4.6301,4.6697,4.7048,4.7048,4.6479,4.5974,4.5861,4.5197,4.4492,4.3897,4.4255,4.4543,4.4497,4.3648,4.289,4.2353,4.2307,4.2307,4.2307,4.2307,4.2307,4.2307,4.2307,4.2307,4.2307,4.2307,4.2307,4.2307,4.2307,4.2307,4.2307,4.2307,4.2307,3.2645,3.3381,3.4004,3.4793,0.0,0.0,0.0,0.0,0.0,0.0,0.0,0.0,0.0,0.0,0.0,0.0,0.0,0.0,0.0,0.0,0.0,0.0,0.0,0.0,0.0,0.0,0.0,0.0,0.0,0.0,0.0,0.0,0.0,5.5671,5.4986,5.438,5.3926,5.3332,5.3184,5.3419,5.3054,5.3018,5.3252,5.2761,5.229,5.1791,5.1627,5.1321,5.0934,5.1266,5.1404,5.1377,5.1183,5.1155,5.1183,5.0739,5.0795,5.0989,5.001,4.9499,4.9156,4.8029,4.7703,4.7645,4.7294,4.7116,4.7023,4.6989,4.6933,4.6879,4.6677,4.6698,4.6697,4.6401,4.6301,4.6301,4.6301,4.6301,4.6301,4.6301,4.6446,4.645,4.603,4.6276,4.6268,4.5541,4.5568,4.5535,4.499,4.5018,4.4819,4.4176,4.3211,4.2514,4.233,4.2307,4.2307,4.2307,4.2307,4.2307,4.2307,4.2307,4.2307,4.2307,4.2307,4.2307,4.2307,4.2307,4.2307,4.2307,4.2307,4.2307,3.2307,3.3123,3.3995,0.0,0.0,0.0,0.0,0.0,0.0,0.0,0.0,0.0,0.0,0.0,0.0,0.0,0.0,0.0,0.0,0.0,0.0,0.0,0.0,0.0,0.0,0.0,0.0,0.0,0.0,0.0,0.0,0.0,0.0,0.0,5.4442,5.3922,5.383,5.3182,5.3003,5.332,5.3241,5.3147,5.3016,5.2527,5.2008,5.1514,5.1433,5.1211,5.0934,5.1349,5.1404,5.1238,5.1183,5.1072,5.0934,5.1128,5.1321,5.1403,5.0572,5.0038,4.9556,4.8466,4.813,4.8106,4.7873,4.7765,4.7714,4.7645,4.7531,4.742,4.7334,4.7096,4.6798,4.6597,4.6426,4.6351,4.6527,4.6426,4.6351,4.6527,4.6702,4.6701,4.6452,4.6799,4.681,4.5966,4.5979,4.5952,4.5569,4.5478,4.5059,4.4153,4.3431,4.2949,4.2789,4.2628,4.2605,4.2766,4.2628,4.2468,4.2307,4.2307,4.2307,4.2307,4.2307,4.2307,4.2307,4.2307,4.2307,4.2307,4.2307,4.2399,3.2768,3.3638,3.4763,0.0,0.0,0.0,0.0,0.0,0.0,0.0,0.0,0.0,0.0,0.0,0.0,0.0,0.0,0.0,0.0,0.0,0.0,0.0,0.0,0.0,0.0,0.0,0.0,0.0,0.0,0.0,0.0,0.0,0.0,0.0,5.415,5.3523,5.32,5.32,5.3023,5.2723,5.3023,5.2722,5.1799,5.1521,5.1232,5.0906,5.1238,5.1211,5.0962,5.1541,5.1458,5.0989,5.1568,5.1431,5.0989,5.1568,5.1431,5.0906,5.0906,5.0096,4.91,4.9127,4.9118,4.9117,4.9087,4.9028,4.8984,4.9316,4.9084,4.8731,4.8463,4.7374,4.6446,4.6973,4.6697,4.6446,4.6998,4.6672,4.6476,4.6998,4.7525,4.8083,4.8661,4.8052,4.7497,4.7464,4.6294,4.5404,4.5404,4.5381,4.5197,4.4658,4.4612,4.4382,4.3854,4.3372,4.3303,4.3785,4.3349,4.2867,4.233,4.2307,4.2307,4.2307,4.2307,4.2307,4.233,4.233,4.233,4.233,4.233,4.2582,3.2981,3.3738,0.0,0.0,0.0,0.0,0.0,0.0,0.0,0.0,0.0,0.0,0.0,0.0,0.0,0.0,0.0,0.0,0.0,0.0,0.0,0.0,0.0,0.0,0.0,0.0,0.0,0.0,0.0,0.0,0.0,0.0,0.0,0.0,5.3578,5.34,5.3465,5.3052,5.2993,5.3318,5.2818,5.2502,5.2425,5.1481,5.1139,5.1231,5.1099,5.1128,5.1266,5.165,5.1677,5.1541,5.1732,5.1677,5.1541,5.1732,5.1431,5.0906,5.0897,5.0376,4.9733,4.969,4.9655,4.9632,4.9391,4.9282,4.9168,4.88,4.8593,4.8446,4.8145,4.7744,4.7481,4.76,4.7556,4.738,4.7149,4.7249,4.738,4.7149,4.7153,4.7104,4.6807,4.6429,4.6021,4.5522,4.5421,4.5404,4.5404,4.5082,4.4773,4.4612,4.4267,4.3969,4.3808,4.3671,4.3648,4.3808,4.3671,4.3372,4.289,4.2867,4.2867,4.2867,4.2867,4.3028,4.3372,4.3372,4.3372,4.3372,4.3372,4.3441,3.3391,0.0,0.0,0.0,0.0,0.0,0.0,0.0,0.0,0.0,0.0,0.0,0.0,0.0,0.0,0.0,0.0,0.0,0.0,0.0,0.0,0.0,0.0,0.0,0.0,0.0,0.0,0.0,0.0,0.0,0.0,0.0,0.0,0.0,5.3106,5.2906,5.3067,5.2706,5.2649,5.2894,5.2335,5.2132,5.2167,5.1289,5.0941,5.1036,5.0932,5.1155,5.1569,5.1623,5.1541,5.1486,5.1705,5.165,5.1431,5.1431,5.1377,5.1236,5.1255,5.0866,5.0374,5.0575,5.0477,5.0207,5.0019,4.9929,4.9775,4.9402,4.9089,4.8838,4.8649,4.8586,4.8535,4.8309,4.8083,4.7883,4.7807,4.7857,4.7789,4.7408,4.7248,4.7066,4.6617,4.6209,4.5792,4.5391,4.5366,4.5404,4.5404,4.5128,4.491,4.491,4.4612,4.4462,4.4462,4.4245,4.4199,4.4405,4.4245,4.3992,4.3693,4.3487,4.3372,4.3372,4.3372,4.351,4.3808,4.3808,4.3808,4.3808,4.3808,4.3923,3.3987,0.0,0.0,0.0,0.0,0.0,0.0,0.0,0.0,0.0,0.0,0.0,0.0,0.0,0.0,0.0,0.0,0.0,0.0,0.0,0.0,0.0,0.0,0.0,0.0,0.0,0.0,0.0,0.0,0.0,0.0,0.0,0.0,5.3557,5.2715,5.2268,5.2352,5.224,5.21,0.0,5.1706,5.1537,5.1309,5.0967,5.0724,5.0543,5.0795,5.1238,5.1787,5.1541,5.1238,5.0989,5.1513,5.1376,5.0906,5.0961,5.132,5.176,5.19,5.1508,5.0996,5.1672,5.1423,5.0864,5.0833,5.0737,5.062,5.0556,5.0136,4.9622,4.9622,4.959,4.9464,4.8994,4.8435,4.8184,4.8693,4.841,4.7989,4.7762,4.7692,4.7629,4.7425,4.6798,4.6305,4.6305,4.5788,4.5404,4.5404,4.5404,4.5404,4.5404,4.5404,4.5404,4.5404,4.4933,4.4864,4.5358,4.4933,4.4681,4.4681,4.4176,4.3877,4.3877,4.3877,4.39,4.3946,4.3946,4.3946,4.3946,4.3946,4.4199,3.5227,3.6312,0.0,0.0,0.0,0.0,0.0,0.0,0.0,0.0,0.0,0.0,0.0,0.0,0.0,0.0,0.0,0.0,0.0,0.0,0.0,0.0,0.0,0.0,0.0,0.0,0.0,0.0,0.0,0.0,0.0,0.0,0.0,5.2264,5.2013,5.2154,5.2603,5.1933,5.1794,0.0,5.1208,5.0735,5.0706,5.0369,5.0401,5.0823,5.0878,5.1238,5.1787,5.1732,5.1569,5.1266,5.1155,5.1017,5.0961,5.1431,5.1566,5.1672,5.2808,5.2459,5.1629,5.2234,5.1958,5.1377,5.1127,5.1016,5.0899,5.0359,5.0104,4.9912,4.9654,4.959,4.9565,4.9439,4.9314,4.9138,4.8868,4.9012,4.8914,4.791,4.7629,4.7353,4.6741,4.6092,4.5619,4.5619,4.5483,4.5404,4.5404,4.5404,4.5404,4.5404,4.5404,4.5404,4.5404,4.5289,4.5289,4.5381,4.5289,4.522,4.522,4.4704,4.4428,4.4428,4.4428,4.4635,4.5059,4.5059,4.5059,4.5059,4.5059,4.5128,3.5342,0.0,0.0,0.0,0.0,0.0,0.0,0.0,0.0,0.0,0.0,0.0,0.0,0.0,0.0,0.0,0.0,0.0,0.0,0.0,0.0,0.0,0.0,0.0,0.0,0.0,0.0,0.0,0.0,0.0,0.0,5.3134,5.2937,5.1842,5.1787,5.1927,5.2264,5.1709,5.1543,5.185,5.0932,5.043,5.0263,5.0066,5.0263,5.0739,5.085,5.1155,5.1623,5.1623,5.1514,5.1377,5.1017,5.0989,5.1183,5.1485,5.1784,5.214,5.2902,5.271,5.2189,5.2508,5.2156,5.1565,5.1377,5.1246,5.1025,5.0677,5.0353,5.0097,5.0072,4.9847,4.9622,4.9783,4.9719,4.9515,4.9213,4.9389,4.9321,4.8255,4.8036,4.7639,4.6573,4.5856,4.5404,4.5404,4.5404,4.5404,4.5404,4.5404,4.5404,4.5404,4.5404,4.5404,4.5404,4.5404,4.5404,4.5404,4.5404,4.5404,4.5404,4.5128,4.4956,4.4956,4.4956,4.5128,4.5404,4.5404,4.5404,4.5404,4.5404,4.5404,3.5009,0.0,4.0592,0.0,0.0,0.0,0.0,0.0,0.0,0.0,0.0,0.0,0.0,0.0,0.0,0.0,0.0,0.0,0.0,0.0,0.0,0.0,0.0,0.0,0.0,0.0,0.0,0.0,0.0,0.0,5.2574,5.263,5.2433,5.1815,5.1787,5.1787,5.1732,5.1514,5.1349,5.1294,5.0739,5.0347,5.0066,5.0066,5.0234,5.0543,5.085,5.1155,5.1404,5.1431,5.1431,5.1349,5.0962,5.11,5.1461,5.1395,5.1997,5.2775,5.2822,5.2736,5.2588,5.2588,5.2156,5.1596,5.1596,5.1408,5.1183,5.112,5.0646,5.0232,5.0455,5.0072,4.9654,4.9944,4.9783,4.959,4.959,4.959,4.9364,4.8494,4.8182,4.7702,4.6429,4.5893,4.5587,4.5427,4.5473,4.5496,4.5404,4.5404,4.5404,4.5404,4.5404,4.5404,4.5404,4.5404,4.5404,4.5404,4.5404,4.5404,4.5404,4.5404,4.5404,4.5404,4.5404,4.5404,4.5404,4.5404,4.5404,4.5404,4.5404,4.5404,0.0,0.0,4.3152,0.0,0.0,0.0,0.0,0.0,0.0,0.0,0.0,0.0,0.0,0.0,0.0,0.0,0.0,0.0,0.0,0.0,0.0,0.0,0.0,0.0,0.0,0.0,0.0,0.0,0.0,0.0,5.1983,5.2433,5.2433,5.1815,5.1787,5.1706,5.1487,5.1432,5.1238,5.0962,5.0655,5.0487,5.0431,5.0431,5.0459,5.0543,5.1072,5.1349,5.1432,5.1651,5.1623,5.1321,5.0767,5.1042,5.1706,5.1419,5.2102,5.3173,5.3386,5.3086,5.2588,5.2588,5.2156,5.1596,5.1596,5.1565,5.1471,5.1183,5.0836,5.0487,5.0232,4.9879,4.9622,4.9654,4.9622,4.959,4.959,4.959,4.9202,4.7894,4.6985,4.6253,4.5643,4.6185,4.6415,4.5519,4.5737,4.5852,4.545,4.5404,4.5404,4.5404,4.5404,4.5404,4.5404,4.5404,4.5404,4.5404,4.5404,4.5404,4.5404,4.5404,4.5404,4.5404,4.5404,4.5404,4.5404,4.5404,4.5404,4.5404,4.5404,4.5404,3.6406,3.9508,4.2615,0.0,0.0,0.0,0.0,0.0,0.0,0.0,0.0,0.0,0.0,0.0,0.0,0.0,0.0,0.0,0.0,0.0,0.0,0.0,0.0,0.0,0.0,0.0,0.0,0.0,0.0,5.2404,5.1815,5.204,5.2068,5.1787,5.1787,5.1732,5.1623,5.1487,5.1155,5.0683,5.0543,5.0403,5.0234,5.0571,5.0739,5.0767,5.1183,5.1294,5.1155,5.1459,5.1404,5.1128,5.104,5.1229,5.1587,5.1964,5.242,5.2897,5.3012,5.2861,5.2527,5.2156,5.1846,5.1596,5.1596,5.1596,5.1534,5.1183,5.0867,5.0556,5.0423,4.9976,4.9654,4.9815,4.9719,4.959,4.959,4.9299,4.869,4.7696,4.6819,4.6179,4.6004,4.6242,4.6196,4.5496,4.5806,4.5944,4.545,4.5404,4.5404,4.5404,4.5404,4.5404,4.5404,4.5404,4.5519,4.576,4.5783,4.5955,4.6231,4.6254,4.6116,4.5783,4.5541,4.5404,4.5404,4.5404,4.5404,4.5404,4.5679,4.5783,0.0,0.0,4.1246,4.4482,0.0,0.0,0.0,0.0,0.0,0.0,0.0,0.0,0.0,0.0,0.0,0.0,0.0,0.0,0.0,0.0,0.0,0.0,0.0,0.0,0.0,0.0,0.0,0.0,0.0,5.1787,5.1787,5.1787,5.1787,5.1787,5.1787,5.1759,5.1706,5.1431,5.1017,5.0515,5.0571,5.0487,5.0263,5.0767,5.1072,5.1155,5.1404,5.1294,5.0934,5.1266,5.1238,5.1045,5.1037,5.1279,5.1721,5.2183,5.2433,5.2607,5.2608,5.2496,5.2249,5.1752,5.1596,5.1596,5.1596,5.1534,5.1408,5.1183,5.0804,5.0487,5.0487,5.004,4.9654,4.9912,4.9783,4.9558,4.9364,4.8755,4.8035,4.7364,4.6725,4.63,4.6183,4.6334,4.6242,4.5496,4.6012,4.6242,4.5496,4.561,4.5725,4.561,4.5702,4.5771,4.5771,4.5771,4.5932,4.6288,4.6311,4.6472,4.6897,4.692,4.6701,4.6311,4.5978,4.5702,4.5587,4.5587,4.5656,4.5794,4.6127,4.6311,0.0,3.8224,0.0,4.2851,0.0,0.0,0.0,0.0,0.0,0.0,0.0,0.0,0.0,0.0,0.0,0.0,0.0,0.0,0.0,0.0,0.0,0.0,0.0,0.0,0.0,0.0,0.0,0.0,0.0,5.1787,5.1787,5.1787,5.1787,5.1787,5.1787,5.1706,5.1404,5.1072,5.0767,5.0515,5.0767,5.0878,5.0878,5.1211,5.1514,5.1759,5.1759,5.1431,5.0934,5.1266,5.1404,5.1294,5.043,5.1141,5.2529,5.1681,5.1904,5.2592,5.2588,5.2187,5.1659,5.1596,5.1596,5.1596,5.1596,5.1377,5.112,5.1088,5.0614,5.0129,5.0129,4.9847,4.959,4.9622,4.9622,4.9429,4.8698,4.8035,4.7331,4.6607,4.6285,4.5955,4.5541,4.6621,4.7033,4.561,4.6609,4.7023,4.5587,4.6231,4.6609,4.6127,4.6518,4.6828,4.6828,4.6828,4.6851,4.6874,4.6874,4.6874,4.692,4.692,4.6897,4.6874,4.6851,4.6564,4.6047,4.6047,4.6334,4.6828,4.6851,4.6874,0.0,0.0,0.0,4.2098,4.4001,0.0,0.0,0.0,0.0,0.0,0.0,0.0,0.0,0.0,0.0,0.0,0.0,0.0,0.0,0.0,0.0,0.0,0.0,0.0,0.0,0.0,0.0,0.0,0.0,0.0,5.1224,5.1224,5.1224,5.1224,5.1617,5.1678,5.1404,5.0297,5.0023,5.0487,5.0188,5.0271,5.0655,5.0961,5.1266,5.1541,5.1541,5.1431,5.1238,5.1541,5.1541,5.1404,5.146,5.1762,5.2088,5.1922,5.1924,5.2021,5.1962,5.1815,5.1596,5.1596,5.1596,5.1565,5.134,5.1214,5.0994,5.0582,5.0264,5.0065,4.9815,4.9687,4.959,4.959,4.959,4.9299,4.81,4.7663,4.7265,4.654,4.5995,4.5668,4.5829,4.6564,4.6954,4.6438,4.7069,4.7286,4.6484,4.669,4.6851,4.6632,4.6805,4.692,4.692,4.692,4.7023,4.7344,4.7332,4.7505,4.7826,4.7849,4.7689,4.7367,4.7332,4.7115,4.6609,4.6609,4.6701,4.692,4.7206,4.7332,0.0,0.0,0.0,0.0,0.0,0.0,0.0,0.0,0.0,0.0,0.0,0.0,0.0,0.0,0.0,0.0,0.0,0.0,0.0,0.0,0.0,0.0,0.0,0.0,0.0,0.0,0.0,0.0,0.0,0.0,5.0886,5.0886,5.0999,5.1195,5.1589,5.1678,5.1404,5.0075,4.9748,5.0487,4.9885,4.9968,5.0655,5.0961,5.1238,5.1541,5.1541,5.1404,5.1238,5.1431,5.1376,5.1266,5.1793,5.1899,5.183,5.2225,5.2081,5.1716,5.1869,5.1783,5.1596,5.1596,5.1596,5.1565,5.134,5.112,5.0836,5.0391,5.0104,4.9879,4.9654,4.959,4.964,4.9816,4.9866,4.9591,4.8579,4.8049,4.7437,4.6485,4.608,4.6001,4.6311,4.6793,4.7069,4.6943,4.7459,4.7643,4.6989,4.7325,4.7534,4.735,4.7488,4.7603,4.7603,4.7497,4.7528,4.7836,4.7859,4.8056,4.8377,4.84,4.824,4.7859,4.7859,4.7734,4.7426,4.7206,4.7206,4.739,4.7734,4.7859,0.0,0.0,0.0,0.0,0.0,0.0,4.5808,0.0,0.0,0.0,0.0,0.0,0.0,0.0,0.0,0.0,0.0,0.0,0.0,0.0,0.0,0.0,0.0,0.0,0.0,0.0,0.0,0.0,0.0,5.0212,5.0802,5.083,5.1139,5.1731,5.1702,5.1594,5.1404,5.0408,5.0106,5.046,4.9858,5.0051,5.0878,5.1211,5.1486,5.1787,5.1759,5.1431,5.0906,5.0934,5.0934,5.0961,5.1259,5.152,5.1769,5.2425,5.2208,5.1695,5.2342,5.2125,5.1596,5.1596,5.1596,5.1596,5.1596,5.1126,5.0588,5.0588,5.0104,4.959,4.959,4.9615,4.9741,5.0293,5.0411,5.0331,5.0118,4.9092,4.7807,4.6427,4.6575,4.692,4.692,4.7321,4.7446,4.7,4.7757,4.8033,4.7081,4.8162,4.8794,4.826,4.8678,4.898,4.898,4.8618,4.84,4.84,4.84,4.84,4.84,4.84,4.84,4.84,4.84,4.84,4.84,4.7859,4.7882,4.84,4.84,4.84,3.5353,0.0,0.0,0.0,0.0,0.0,4.2184,4.3002,0.0,0.0,0.0,0.0,0.0,0.0,0.0,0.0,0.0,0.0,0.0,0.0,0.0,0.0,0.0,0.0,0.0,0.0,0.0,0.0,4.9372,4.9344,4.9513,4.9513,5.0016,5.1111,4.9636,4.9673,5.1376,4.9604,4.9087,4.983,4.9228,4.9419,5.0243,5.0133,5.0602,5.1486,5.1045,5.0767,5.0655,5.1293,5.1541,5.1541,5.1155,5.1344,5.1721,5.1446,5.1469,5.1693,5.1838,5.1752,5.1596,5.1596,5.1596,5.1534,5.1309,5.0936,5.0525,5.0295,4.9912,4.959,4.959,4.9891,5.0218,5.0361,5.029,5.001,4.948,4.8943,4.8332,4.7562,4.7121,4.7,4.7367,4.7515,4.7676,4.7941,4.8217,4.8286,4.801,4.8325,4.8513,4.8374,4.849,4.8582,4.8582,4.8473,4.84,4.84,4.84,4.84,4.84,4.84,4.84,4.84,4.84,4.84,4.84,4.824,4.8263,4.84,4.84,4.84,0.0,0.0,0.0,0.0,0.0,0.0,4.1341,4.1792,4.231,0.0,0.0,0.0,0.0,0.0,0.0,0.0,0.0,0.0,0.0,0.0,0.0,0.0,0.0,0.0,0.0,0.0,0.0,4.9035,4.8783,4.8726,4.8981,4.926,4.9683,5.0306,4.9246,4.9419,5.1014,4.916,4.8727,4.9749,4.8681,4.8735,4.9831,4.9666,5.0189,5.1183,5.0961,5.0878,5.0906,5.1541,5.165,5.1404,5.1322,5.1624,5.2144,5.1878,5.2087,5.247,5.2271,5.2125,5.197,5.169,5.1596,5.1534,5.1214,5.0867,5.0525,5.0168,5.0024,4.9941,4.9941,5.0343,5.0746,5.0672,5.0567,5.026,4.9443,4.9133,4.8791,4.7947,4.7628,4.7597,4.7895,4.7928,4.8056,4.8354,4.84,4.84,4.84,4.8546,4.8654,4.8654,4.8654,4.8654,4.8654,4.8509,4.84,4.84,4.84,4.84,4.84,4.84,4.84,4.84,4.84,4.84,4.84,4.84,4.84,4.84,4.84,4.84,0.0,0.0,0.0,0.0,0.0,0.0,4.1801,4.1903,4.1805,0.0,0.0,0.0,0.0,0.0,0.0,0.0,0.0,0.0,0.0,0.0,0.0,0.0,0.0,0.0,0.0,4.8897,4.8897,4.8897,4.8417,4.8333,4.8895,4.9454,4.9687,4.9452,4.9687,4.9995,5.04,4.8965,4.8751,4.9747,4.8244,4.8218,4.9502,4.9529,5.0023,5.0906,5.1183,5.1321,5.1432,5.1762,5.1625,5.1183,5.1598,5.2234,5.2895,5.2957,5.3234,5.3501,5.3078,5.2742,5.2373,5.1783,5.1565,5.1471,5.1183,5.0836,5.0487,5.0212,5.0269,5.0444,5.0494,5.0946,5.1331,5.116,5.1058,5.0722,4.9843,4.9509,4.9045,4.7911,4.8115,4.8473,4.8437,4.8437,4.8473,4.84,4.84,4.84,4.84,4.8727,4.8908,4.8908,4.8908,4.8908,4.8908,4.8618,4.84,4.84,4.84,4.84,4.84,4.84,4.84,4.84,4.84,4.84,4.84,4.84,4.84,4.84,4.84,4.84,0.0,0.0,0.0,0.0,0.0,0.0,3.902,3.9673,4.0682,0.0,0.0,0.0,0.0,0.0,0.0,0.0,0.0,0.0,0.0,0.0,0.0,0.0,0.0,0.0,0.0,4.8277,4.8277,4.8277,4.8165,4.8137,4.8277,4.8389,4.8644,4.9072,4.8701,4.885,4.9678,4.8901,4.8415,4.8239,4.8379,4.8598,4.8899,4.909,4.9802,5.0906,5.0739,5.0906,5.1376,5.2183,5.26,5.2655,5.1738,5.2519,5.3942,5.2221,5.2257,5.3078,5.2187,5.1846,5.1783,5.1627,5.1408,5.1183,5.112,5.0677,5.0205,5.0305,5.0376,5.0519,5.0996,5.1523,5.1941,5.1872,5.127,5.0609,5.0423,4.9437,4.8536,4.8299,4.8585,4.8763,4.8473,4.8654,4.8763,4.8473,4.84,4.84,4.84,4.8473,4.8509,4.8509,4.8509,4.8509,4.8509,4.8473,4.84,4.84,4.84,4.84,4.84,4.84,4.84,4.84,4.84,4.84,4.84,4.84,4.84,4.84,4.84,4.84,0.0,0.0,0.0,3.9497,0.0,0.0,0.0,3.8915,3.9322,4.0456,0.0,0.0,0.0,0.0,0.0,0.0,0.0,0.0,0.0,0.0,0.0,0.0,0.0,0.0,0.0,4.8108,4.8108,4.8108,4.8108,4.8108,4.8108,4.8108,4.8198,4.8353,4.8045,4.8196,4.8853,4.814,4.7765,4.7803,4.7671,4.8079,4.8896,4.9036,4.9913,5.1348,5.1349,5.1403,5.1596,5.2206,5.2736,5.3128,5.2293,5.2939,5.411,5.2546,5.2533,5.3231,5.2588,5.2249,5.2032,5.1721,5.1346,5.1057,5.0899,5.057,5.0262,5.0376,5.082,5.1322,5.1624,5.2101,5.24,5.2033,5.1575,5.1082,5.0694,4.9723,4.8957,4.8957,4.898,4.8871,4.8473,4.8582,4.8618,4.8437,4.84,4.84,4.84,4.84,4.84,4.84,4.84,4.84,4.84,4.84,4.84,4.84,4.84,4.84,4.84,4.84,4.84,4.84,4.84,4.84,4.84,4.84,4.84,4.84,4.84,4.84,0.0,0.0,0.0,0.0,0.0,3.8945,0.0,0.0,0.0,3.9613,0.0,0.0,0.0,0.0,0.0,0.0,0.0,0.0,0.0,0.0,0.0,0.0,0.0,0.0,0.0,4.7828,4.7856,4.808,4.7884,4.7856,4.808,4.8058,4.7956,4.7803,4.7673,4.7743,4.8033,4.7276,4.712,4.756,4.7102,4.7696,4.9111,4.9385,5.0375,5.1814,5.2059,5.2059,5.1896,5.2309,5.2785,5.3239,5.2797,5.3247,5.4051,5.2974,5.2968,5.344,5.2987,5.2619,5.2311,5.169,5.1246,5.0836,5.0518,5.0388,5.0411,5.0544,5.1247,5.2,5.2201,5.2528,5.2607,5.2129,5.1911,5.1597,5.0765,5.0021,4.9473,4.9329,4.9065,4.8763,4.8473,4.8473,4.8509,4.8437,4.84,4.84,4.84,4.84,4.84,4.84,4.84,4.84,4.84,4.84,4.84,4.84,4.84,4.84,4.84,4.84,4.84,4.84,4.84,4.84,4.84,4.84,4.84,4.84,4.84,4.84,0.0,0.0,0.0,0.0,4.1259,0.0,0.0,0.0,4.0266,3.9894,0.0,0.0,0.0,0.0,0.0,0.0,0.0,0.0,0.0,0.0,0.0,0.0,0.0,0.0,0.0,0.0,4.6954,4.8024,4.7122,4.6982,4.8052,4.788,4.7854,4.8058,4.7571,4.7369,4.7398,4.7084,4.6824,4.667,4.7862,4.8678,4.9138,5.0461,5.1319,5.1814,5.2059,5.2167,5.2224,5.309,5.3483,5.3458,5.2603,5.3162,5.4281,5.2736,5.2604,5.3017,5.2094,5.1752,5.1659,5.1277,5.0741,5.0136,4.9815,5.0032,5.0519,5.1046,5.1272,5.1599,5.2544,5.2528,5.2293,5.2666,5.2283,5.1597,5.0765,5.0021,4.9293,4.8631,4.8509,4.8473,4.8437,4.8691,4.8799,4.8473,4.84,4.84,4.84,4.84,4.84,4.84,4.84,4.84,4.84,4.84,4.84,4.84,4.84,4.84,4.84,4.84,4.84,4.84,4.84,4.84,4.84,4.84,4.84,4.84,4.84,4.84,0.0,0.0,0.0,0.0,0.0,0.0,0.0,0.0,3.9669,0.0,0.0,0.0,0.0,0.0,0.0,0.0,0.0,0.0,0.0,0.0,0.0,0.0,0.0,0.0,0.0,0.0,0.0,0.0,0.0,4.6673,4.7519,4.7811,4.7981,4.8108,4.7571,4.7288,4.7288,4.7386,4.7394,4.7263,4.8403,4.9437,5.0386,5.1027,5.1774,5.2573,5.268,5.2519,5.2278,5.3201,5.3513,5.3379,5.3501,5.3719,5.3934,5.3408,5.2929,5.2465,5.2249,5.1783,5.1246,5.0677,5.0327,5.0116,5.0064,5.0469,5.1046,5.1599,5.2,5.2352,5.277,5.2719,5.2594,5.2845,5.2663,5.2248,5.1457,5.0694,4.9914,4.9185,4.8704,4.84,4.84,4.8546,4.8582,4.8437,4.84,4.84,4.84,4.84,4.84,4.84,4.84,4.84,4.84,4.8653,4.8676,4.84,4.84,4.84,4.84,4.84,4.84,4.84,4.84,4.8538,4.8814,4.8814,4.8974,4.9273,4.8951,4.8814,4.3346,0.0,0.0,0.0,0.0,0.0,0.0,0.0,0.0,0.0,0.0,0.0,0.0,0.0,0.0,0.0,0.0,0.0,0.0,0.0,0.0,0.0,0.0,0.0,0.0,0.0,0.0,0.0,0.0,0.0,4.7023,4.7502,4.7811,4.7979,4.7686,4.7427,4.7184,4.7825,4.8047,4.7803,4.8946,5.0117,5.1311,5.1483,5.2117,5.308,5.308,5.29,5.2641,5.3423,5.3681,5.3635,5.4204,5.4079,5.3613,5.3836,5.3245,5.2399,5.2461,5.1783,5.0867,5.0264,5.0065,4.9987,5.0132,5.0594,5.1172,5.1724,5.2176,5.2519,5.282,5.277,5.2694,5.287,5.2895,5.2629,5.1667,5.1011,5.0305,4.9365,4.8776,4.84,4.84,4.84,4.84,4.84,4.84,4.84,4.84,4.84,4.84,4.84,4.84,4.84,4.84,4.8722,4.8768,4.8423,4.8515,4.8584,4.8584,4.8722,4.8814,4.8814,4.8814,4.8974,4.9319,4.9319,4.9525,4.9893,4.9502,4.9319,0.0,0.0,0.0,0.0,0.0,0.0,0.0,0.0,4.1509,0.0,0.0,0.0,0.0,0.0,0.0,0.0,0.0,0.0,0.0,0.0,0.0,0.0,0.0,0.0,0.0,0.0,0.0,0.0,0.0,0.0,4.6662,4.6832,4.7113,4.7699,4.8024,4.7765,4.6927,4.8343,4.8646,4.7831,4.9575,5.0751,5.1339,5.1909,5.2518,5.308,5.308,5.3265,5.3566,5.3865,5.4211,5.451,5.423,5.3875,5.358,5.3618,5.3383,5.2987,5.2337,5.1466,5.0556,5.02,4.9879,4.9622,4.9615,5.0017,5.0569,5.1147,5.1356,5.1574,5.2619,5.2494,5.2277,5.277,5.2895,5.2491,5.0976,5.0624,5.0163,4.8704,4.8437,4.84,4.84,4.84,4.84,4.84,4.84,4.84,4.84,4.84,4.84,4.84,4.84,4.84,4.84,4.84,4.84,4.84,4.8837,4.9089,4.9089,4.9594,4.9847,4.9847,4.9847,4.987,4.987,4.987,4.9893,4.9916,4.9893,4.987,0.0,0.0,4.6199,4.4738,0.0,0.0,0.0,0.0,0.0,0.0,0.0,0.0,0.0,0.0,0.0,0.0,0.0,0.0,0.0,0.0,0.0,0.0,0.0,0.0,0.0,0.0,0.0,0.0,0.0,0.0,0.0,4.6433,4.6888,4.7113,4.7596,4.756,4.6927,4.8556,4.9134,4.8674,5.0511,5.1559,5.1909,5.2325,5.2653,5.2869,5.3487,5.3694,5.3707,5.4868,5.5022,5.4573,5.5079,5.4838,5.4132,5.3752,5.3105,5.2337,5.1408,5.0741,5.02,4.9879,4.9687,4.9665,5.0017,5.0544,5.1096,5.1674,5.2101,5.2452,5.2795,5.2744,5.2669,5.2845,5.2525,5.1876,5.0835,5.0234,4.958,4.8595,4.84,4.84,4.84,4.84,4.84,4.84,4.84,4.84,4.84,4.8676,4.8745,4.8423,4.8676,4.8745,4.8423,4.8676,4.902,4.9365,4.9548,4.964,4.964,4.9801,4.9916,4.9916,4.9916,5.0076,5.0337,5.0337,5.0559,5.0865,5.0865,5.0681,4.7544,4.7519,0.0,4.6227,4.5525,0.0,4.2969,0.0,0.0,0.0,0.0,0.0,0.0,0.0,0.0,0.0,0.0,0.0,0.0,4.0559,0.0,0.0,0.0,0.0,0.0,0.0,0.0,0.0,0.0,0.0,0.0,0.0,4.6681,4.6807,4.7691,4.7741,4.6927,4.8963,4.9679,4.9111,5.0926,5.1923,5.2194,5.2438,5.2653,5.2869,5.3459,5.3694,5.368,5.482,5.4913,5.4395,5.4777,5.4527,5.3959,5.3713,5.2953,5.1992,5.1194,5.0666,5.02,4.9751,4.959,4.969,5.0243,5.067,5.1122,5.19,5.2352,5.2644,5.2845,5.2895,5.2895,5.2895,5.2525,5.1911,5.0835,5.0234,4.9616,4.8595,4.84,4.84,4.84,4.84,4.84,4.84,4.84,4.84,4.84,4.8653,4.8745,4.8423,4.8676,4.8722,4.8423,4.8837,4.925,4.9594,4.9962,5.0168,5.0168,5.0352,5.0444,5.0444,5.0444,5.0567,5.0865,5.0865,5.1048,5.1392,5.1392,5.1209]}]]